<?xml version="1.0" encoding="UTF-8" standalone="no" ?>
<gpx xmlns="http://www.topografix.com/GPX/1/1" xmlns:xsi="http://www.w3.org/2001/XMLSchema-instance" xsi:schemaLocation="http://www.topografix.com/GPX/1/1 http://www.topografix.com/GPX/1/1/gpx.xsd" version="1.1" creator="VisuGPX - https://www.visugpx.com">
  <metadata>
    <name>Joyeux Randonneurs à Combenegre</name>
    <desc><![CDATA[Toutes les randonnées proposées sont accessible à tous. Il existe pratiquement toujours des possibilités  pour raccourcir le circuit à environ  6km.]]></desc>
  </metadata>
  <trk>
    <name><![CDATA[Tracé 3 mai 2016 13:56:01Combenegre]]></name>
    <trkseg>
      <trkpt lat="45.2181" lon="0.50414">
        <ele>205</ele>
        <time>2016-05-03T12:05:05Z</time>
      </trkpt>
      <trkpt lat="45.21814" lon="0.50416">
        <ele>209</ele>
        <time>2016-05-03T12:05:26Z</time>
      </trkpt>
      <trkpt lat="45.21818" lon="0.50416">
        <ele>209</ele>
        <time>2016-05-03T12:05:30Z</time>
      </trkpt>
      <trkpt lat="45.21818" lon="0.50422">
        <ele>211</ele>
        <time>2016-05-03T12:05:51Z</time>
      </trkpt>
      <trkpt lat="45.21816" lon="0.50427">
        <ele>214</ele>
        <time>2016-05-03T12:05:56Z</time>
      </trkpt>
      <trkpt lat="45.21814" lon="0.50432">
        <ele>217</ele>
        <time>2016-05-03T12:06:01Z</time>
      </trkpt>
      <trkpt lat="45.21814" lon="0.50438">
        <ele>215</ele>
        <time>2016-05-03T12:06:05Z</time>
      </trkpt>
      <trkpt lat="45.21811" lon="0.50444">
        <ele>217</ele>
        <time>2016-05-03T12:06:09Z</time>
      </trkpt>
      <trkpt lat="45.21809" lon="0.50449">
        <ele>218</ele>
        <time>2016-05-03T12:06:14Z</time>
      </trkpt>
      <trkpt lat="45.21808" lon="0.50455">
        <ele>218</ele>
        <time>2016-05-03T12:06:18Z</time>
      </trkpt>
      <trkpt lat="45.21807" lon="0.50461">
        <ele>218</ele>
        <time>2016-05-03T12:06:22Z</time>
      </trkpt>
      <trkpt lat="45.21805" lon="0.50468">
        <ele>218</ele>
        <time>2016-05-03T12:06:27Z</time>
      </trkpt>
      <trkpt lat="45.21803" lon="0.50473">
        <ele>219</ele>
        <time>2016-05-03T12:06:31Z</time>
      </trkpt>
      <trkpt lat="45.218" lon="0.50479">
        <ele>219</ele>
        <time>2016-05-03T12:06:36Z</time>
      </trkpt>
      <trkpt lat="45.21798" lon="0.50486">
        <ele>220</ele>
        <time>2016-05-03T12:06:40Z</time>
      </trkpt>
      <trkpt lat="45.21797" lon="0.50495">
        <ele>220</ele>
        <time>2016-05-03T12:06:45Z</time>
      </trkpt>
      <trkpt lat="45.21798" lon="0.50504">
        <ele>218</ele>
        <time>2016-05-03T12:06:49Z</time>
      </trkpt>
      <trkpt lat="45.21801" lon="0.5051">
        <ele>217</ele>
        <time>2016-05-03T12:06:53Z</time>
      </trkpt>
      <trkpt lat="45.21805" lon="0.50513">
        <ele>218</ele>
        <time>2016-05-03T12:06:57Z</time>
      </trkpt>
      <trkpt lat="45.21811" lon="0.50514">
        <ele>219</ele>
        <time>2016-05-03T12:07:02Z</time>
      </trkpt>
      <trkpt lat="45.21816" lon="0.50513">
        <ele>218</ele>
        <time>2016-05-03T12:07:07Z</time>
      </trkpt>
      <trkpt lat="45.2182" lon="0.50512">
        <ele>218</ele>
        <time>2016-05-03T12:07:11Z</time>
      </trkpt>
      <trkpt lat="45.21824" lon="0.50512">
        <ele>217</ele>
        <time>2016-05-03T12:07:15Z</time>
      </trkpt>
      <trkpt lat="45.2183" lon="0.50513">
        <ele>217</ele>
        <time>2016-05-03T12:07:20Z</time>
      </trkpt>
      <trkpt lat="45.21834" lon="0.50514">
        <ele>218</ele>
        <time>2016-05-03T12:07:25Z</time>
      </trkpt>
      <trkpt lat="45.21837" lon="0.50517">
        <ele>218</ele>
        <time>2016-05-03T12:07:29Z</time>
      </trkpt>
      <trkpt lat="45.21844" lon="0.5052">
        <ele>218</ele>
        <time>2016-05-03T12:07:34Z</time>
      </trkpt>
      <trkpt lat="45.21847" lon="0.50523">
        <ele>217</ele>
        <time>2016-05-03T12:07:38Z</time>
      </trkpt>
      <trkpt lat="45.21851" lon="0.50528">
        <ele>217</ele>
        <time>2016-05-03T12:07:43Z</time>
      </trkpt>
      <trkpt lat="45.21854" lon="0.50531">
        <ele>216</ele>
        <time>2016-05-03T12:07:47Z</time>
      </trkpt>
      <trkpt lat="45.21857" lon="0.50537">
        <ele>215</ele>
        <time>2016-05-03T12:07:51Z</time>
      </trkpt>
      <trkpt lat="45.2186" lon="0.50541">
        <ele>214</ele>
        <time>2016-05-03T12:07:56Z</time>
      </trkpt>
      <trkpt lat="45.21863" lon="0.50548">
        <ele>213</ele>
        <time>2016-05-03T12:08:00Z</time>
      </trkpt>
      <trkpt lat="45.21866" lon="0.50557">
        <ele>212</ele>
        <time>2016-05-03T12:08:05Z</time>
      </trkpt>
      <trkpt lat="45.21868" lon="0.50562">
        <ele>214</ele>
        <time>2016-05-03T12:08:10Z</time>
      </trkpt>
      <trkpt lat="45.21871" lon="0.5057">
        <ele>214</ele>
        <time>2016-05-03T12:08:15Z</time>
      </trkpt>
      <trkpt lat="45.21873" lon="0.50577">
        <ele>213</ele>
        <time>2016-05-03T12:08:20Z</time>
      </trkpt>
      <trkpt lat="45.21874" lon="0.50582">
        <ele>213</ele>
        <time>2016-05-03T12:08:24Z</time>
      </trkpt>
      <trkpt lat="45.21876" lon="0.50592">
        <ele>211</ele>
        <time>2016-05-03T12:08:29Z</time>
      </trkpt>
      <trkpt lat="45.21878" lon="0.50598">
        <ele>213</ele>
        <time>2016-05-03T12:08:34Z</time>
      </trkpt>
      <trkpt lat="45.2188" lon="0.50605">
        <ele>211</ele>
        <time>2016-05-03T12:08:38Z</time>
      </trkpt>
      <trkpt lat="45.21882" lon="0.50611">
        <ele>210</ele>
        <time>2016-05-03T12:08:43Z</time>
      </trkpt>
      <trkpt lat="45.21884" lon="0.50616">
        <ele>207</ele>
        <time>2016-05-03T12:08:49Z</time>
      </trkpt>
      <trkpt lat="45.21886" lon="0.50619">
        <ele>208</ele>
        <time>2016-05-03T12:08:54Z</time>
      </trkpt>
      <trkpt lat="45.21888" lon="0.50625">
        <ele>209</ele>
        <time>2016-05-03T12:09:04Z</time>
      </trkpt>
      <trkpt lat="45.21887" lon="0.50631">
        <ele>209</ele>
        <time>2016-05-03T12:09:09Z</time>
      </trkpt>
      <trkpt lat="45.21885" lon="0.50636">
        <ele>210</ele>
        <time>2016-05-03T12:09:14Z</time>
      </trkpt>
      <trkpt lat="45.21881" lon="0.50639">
        <ele>210</ele>
        <time>2016-05-03T12:09:19Z</time>
      </trkpt>
      <trkpt lat="45.21878" lon="0.50642">
        <ele>214</ele>
        <time>2016-05-03T12:09:27Z</time>
      </trkpt>
      <trkpt lat="45.21874" lon="0.50645">
        <ele>214</ele>
        <time>2016-05-03T12:09:31Z</time>
      </trkpt>
      <trkpt lat="45.2187" lon="0.50647">
        <ele>217</ele>
        <time>2016-05-03T12:09:41Z</time>
      </trkpt>
      <trkpt lat="45.21866" lon="0.50649">
        <ele>217</ele>
        <time>2016-05-03T12:09:46Z</time>
      </trkpt>
      <trkpt lat="45.21861" lon="0.5065">
        <ele>216</ele>
        <time>2016-05-03T12:09:51Z</time>
      </trkpt>
      <trkpt lat="45.21857" lon="0.50652">
        <ele>214</ele>
        <time>2016-05-03T12:09:57Z</time>
      </trkpt>
      <trkpt lat="45.21853" lon="0.50657">
        <ele>215</ele>
        <time>2016-05-03T12:10:02Z</time>
      </trkpt>
      <trkpt lat="45.21849" lon="0.50661">
        <ele>220</ele>
        <time>2016-05-03T12:10:09Z</time>
      </trkpt>
      <trkpt lat="45.21846" lon="0.50665">
        <ele>221</ele>
        <time>2016-05-03T12:10:14Z</time>
      </trkpt>
      <trkpt lat="45.21841" lon="0.50666">
        <ele>222</ele>
        <time>2016-05-03T12:10:19Z</time>
      </trkpt>
      <trkpt lat="45.21837" lon="0.5067">
        <ele>221</ele>
        <time>2016-05-03T12:10:24Z</time>
      </trkpt>
      <trkpt lat="45.21834" lon="0.50673">
        <ele>220</ele>
        <time>2016-05-03T12:10:29Z</time>
      </trkpt>
      <trkpt lat="45.2183" lon="0.50679">
        <ele>218</ele>
        <time>2016-05-03T12:10:34Z</time>
      </trkpt>
      <trkpt lat="45.21825" lon="0.50688">
        <ele>218</ele>
        <time>2016-05-03T12:10:39Z</time>
      </trkpt>
      <trkpt lat="45.21824" lon="0.50693">
        <ele>219</ele>
        <time>2016-05-03T12:10:43Z</time>
      </trkpt>
      <trkpt lat="45.21822" lon="0.50703">
        <ele>216</ele>
        <time>2016-05-03T12:10:48Z</time>
      </trkpt>
      <trkpt lat="45.21819" lon="0.50709">
        <ele>215</ele>
        <time>2016-05-03T12:10:52Z</time>
      </trkpt>
      <trkpt lat="45.21818" lon="0.50714">
        <ele>216</ele>
        <time>2016-05-03T12:10:56Z</time>
      </trkpt>
      <trkpt lat="45.21816" lon="0.50719">
        <ele>217</ele>
        <time>2016-05-03T12:11:01Z</time>
      </trkpt>
      <trkpt lat="45.21814" lon="0.50725">
        <ele>217</ele>
        <time>2016-05-03T12:11:06Z</time>
      </trkpt>
      <trkpt lat="45.21812" lon="0.5073">
        <ele>218</ele>
        <time>2016-05-03T12:11:10Z</time>
      </trkpt>
      <trkpt lat="45.2181" lon="0.50736">
        <ele>218</ele>
        <time>2016-05-03T12:11:14Z</time>
      </trkpt>
      <trkpt lat="45.21809" lon="0.50741">
        <ele>218</ele>
        <time>2016-05-03T12:11:18Z</time>
      </trkpt>
      <trkpt lat="45.2181" lon="0.50747">
        <ele>219</ele>
        <time>2016-05-03T12:11:22Z</time>
      </trkpt>
      <trkpt lat="45.2181" lon="0.50754">
        <ele>222</ele>
        <time>2016-05-03T12:11:27Z</time>
      </trkpt>
      <trkpt lat="45.2181" lon="0.50759">
        <ele>220</ele>
        <time>2016-05-03T12:11:31Z</time>
      </trkpt>
      <trkpt lat="45.21808" lon="0.50765">
        <ele>219</ele>
        <time>2016-05-03T12:11:36Z</time>
      </trkpt>
      <trkpt lat="45.21807" lon="0.50771">
        <ele>219</ele>
        <time>2016-05-03T12:11:40Z</time>
      </trkpt>
      <trkpt lat="45.21807" lon="0.5078">
        <ele>219</ele>
        <time>2016-05-03T12:11:45Z</time>
      </trkpt>
      <trkpt lat="45.21806" lon="0.50788">
        <ele>218</ele>
        <time>2016-05-03T12:11:50Z</time>
      </trkpt>
      <trkpt lat="45.21806" lon="0.50795">
        <ele>217</ele>
        <time>2016-05-03T12:11:54Z</time>
      </trkpt>
      <trkpt lat="45.21806" lon="0.50799">
        <ele>216</ele>
        <time>2016-05-03T12:11:59Z</time>
      </trkpt>
      <trkpt lat="45.21807" lon="0.50809">
        <ele>214</ele>
        <time>2016-05-03T12:12:04Z</time>
      </trkpt>
      <trkpt lat="45.21809" lon="0.50815">
        <ele>213</ele>
        <time>2016-05-03T12:12:09Z</time>
      </trkpt>
      <trkpt lat="45.2181" lon="0.50823">
        <ele>214</ele>
        <time>2016-05-03T12:12:14Z</time>
      </trkpt>
      <trkpt lat="45.21811" lon="0.5083">
        <ele>215</ele>
        <time>2016-05-03T12:12:18Z</time>
      </trkpt>
      <trkpt lat="45.21812" lon="0.50836">
        <ele>214</ele>
        <time>2016-05-03T12:12:23Z</time>
      </trkpt>
      <trkpt lat="45.21812" lon="0.50842">
        <ele>213</ele>
        <time>2016-05-03T12:12:27Z</time>
      </trkpt>
      <trkpt lat="45.21813" lon="0.50847">
        <ele>213</ele>
        <time>2016-05-03T12:12:32Z</time>
      </trkpt>
      <trkpt lat="45.21813" lon="0.50856">
        <ele>212</ele>
        <time>2016-05-03T12:12:37Z</time>
      </trkpt>
      <trkpt lat="45.21816" lon="0.50862">
        <ele>213</ele>
        <time>2016-05-03T12:12:41Z</time>
      </trkpt>
      <trkpt lat="45.21817" lon="0.50869">
        <ele>211</ele>
        <time>2016-05-03T12:12:45Z</time>
      </trkpt>
      <trkpt lat="45.21819" lon="0.50875">
        <ele>212</ele>
        <time>2016-05-03T12:12:50Z</time>
      </trkpt>
      <trkpt lat="45.21821" lon="0.50881">
        <ele>213</ele>
        <time>2016-05-03T12:12:54Z</time>
      </trkpt>
      <trkpt lat="45.21823" lon="0.50886">
        <ele>214</ele>
        <time>2016-05-03T12:12:58Z</time>
      </trkpt>
      <trkpt lat="45.21825" lon="0.50891">
        <ele>215</ele>
        <time>2016-05-03T12:13:02Z</time>
      </trkpt>
      <trkpt lat="45.21827" lon="0.50898">
        <ele>215</ele>
        <time>2016-05-03T12:13:06Z</time>
      </trkpt>
      <trkpt lat="45.21829" lon="0.50904">
        <ele>214</ele>
        <time>2016-05-03T12:13:10Z</time>
      </trkpt>
      <trkpt lat="45.21833" lon="0.50909">
        <ele>215</ele>
        <time>2016-05-03T12:13:15Z</time>
      </trkpt>
      <trkpt lat="45.21836" lon="0.50913">
        <ele>214</ele>
        <time>2016-05-03T12:13:19Z</time>
      </trkpt>
      <trkpt lat="45.2184" lon="0.50916">
        <ele>213</ele>
        <time>2016-05-03T12:13:24Z</time>
      </trkpt>
      <trkpt lat="45.21843" lon="0.50919">
        <ele>211</ele>
        <time>2016-05-03T12:13:29Z</time>
      </trkpt>
      <trkpt lat="45.21847" lon="0.50921">
        <ele>210</ele>
        <time>2016-05-03T12:13:36Z</time>
      </trkpt>
      <trkpt lat="45.21851" lon="0.50923">
        <ele>211</ele>
        <time>2016-05-03T12:13:40Z</time>
      </trkpt>
      <trkpt lat="45.21854" lon="0.50927">
        <ele>213</ele>
        <time>2016-05-03T12:13:47Z</time>
      </trkpt>
      <trkpt lat="45.21858" lon="0.50931">
        <ele>215</ele>
        <time>2016-05-03T12:13:52Z</time>
      </trkpt>
      <trkpt lat="45.21862" lon="0.50934">
        <ele>216</ele>
        <time>2016-05-03T12:13:57Z</time>
      </trkpt>
      <trkpt lat="45.21866" lon="0.50937">
        <ele>214</ele>
        <time>2016-05-03T12:14:03Z</time>
      </trkpt>
      <trkpt lat="45.21866" lon="0.50942">
        <ele>211</ele>
        <time>2016-05-03T12:14:13Z</time>
      </trkpt>
      <trkpt lat="45.21868" lon="0.50949">
        <ele>211</ele>
        <time>2016-05-03T12:14:17Z</time>
      </trkpt>
      <trkpt lat="45.21869" lon="0.50954">
        <ele>212</ele>
        <time>2016-05-03T12:14:23Z</time>
      </trkpt>
      <trkpt lat="45.21871" lon="0.5096">
        <ele>212</ele>
        <time>2016-05-03T12:14:31Z</time>
      </trkpt>
      <trkpt lat="45.2187" lon="0.50966">
        <ele>213</ele>
        <time>2016-05-03T12:14:41Z</time>
      </trkpt>
      <trkpt lat="45.21869" lon="0.50972">
        <ele>214</ele>
        <time>2016-05-03T12:14:47Z</time>
      </trkpt>
      <trkpt lat="45.21869" lon="0.50977">
        <ele>213</ele>
        <time>2016-05-03T12:14:53Z</time>
      </trkpt>
      <trkpt lat="45.2187" lon="0.50983">
        <ele>213</ele>
        <time>2016-05-03T12:14:57Z</time>
      </trkpt>
      <trkpt lat="45.2187" lon="0.50989">
        <ele>212</ele>
        <time>2016-05-03T12:15:02Z</time>
      </trkpt>
      <trkpt lat="45.21869" lon="0.50993">
        <ele>214</ele>
        <time>2016-05-03T12:15:09Z</time>
      </trkpt>
      <trkpt lat="45.21868" lon="0.51">
        <ele>211</ele>
        <time>2016-05-03T12:15:13Z</time>
      </trkpt>
      <trkpt lat="45.21869" lon="0.51007">
        <ele>211</ele>
        <time>2016-05-03T12:15:18Z</time>
      </trkpt>
      <trkpt lat="45.21869" lon="0.51014">
        <ele>212</ele>
        <time>2016-05-03T12:15:26Z</time>
      </trkpt>
      <trkpt lat="45.21866" lon="0.51018">
        <ele>211</ele>
        <time>2016-05-03T12:15:34Z</time>
      </trkpt>
      <trkpt lat="45.21862" lon="0.51021">
        <ele>213</ele>
        <time>2016-05-03T12:15:41Z</time>
      </trkpt>
      <trkpt lat="45.21859" lon="0.51023">
        <ele>214</ele>
        <time>2016-05-03T12:15:46Z</time>
      </trkpt>
      <trkpt lat="45.21855" lon="0.51027">
        <ele>215</ele>
        <time>2016-05-03T12:15:52Z</time>
      </trkpt>
      <trkpt lat="45.21852" lon="0.5103">
        <ele>219</ele>
        <time>2016-05-03T12:16:00Z</time>
      </trkpt>
      <trkpt lat="45.21848" lon="0.51034">
        <ele>219</ele>
        <time>2016-05-03T12:16:05Z</time>
      </trkpt>
      <trkpt lat="45.21845" lon="0.51038">
        <ele>218</ele>
        <time>2016-05-03T12:16:12Z</time>
      </trkpt>
      <trkpt lat="45.21842" lon="0.51041">
        <ele>217</ele>
        <time>2016-05-03T12:16:19Z</time>
      </trkpt>
      <trkpt lat="45.21838" lon="0.51044">
        <ele>217</ele>
        <time>2016-05-03T12:16:25Z</time>
      </trkpt>
      <trkpt lat="45.21833" lon="0.51048">
        <ele>217</ele>
        <time>2016-05-03T12:16:29Z</time>
      </trkpt>
      <trkpt lat="45.21829" lon="0.51051">
        <ele>216</ele>
        <time>2016-05-03T12:16:35Z</time>
      </trkpt>
      <trkpt lat="45.21826" lon="0.51053">
        <ele>216</ele>
        <time>2016-05-03T12:16:45Z</time>
      </trkpt>
      <trkpt lat="45.21822" lon="0.51055">
        <ele>215</ele>
        <time>2016-05-03T12:16:49Z</time>
      </trkpt>
      <trkpt lat="45.21818" lon="0.51056">
        <ele>215</ele>
        <time>2016-05-03T12:16:55Z</time>
      </trkpt>
      <trkpt lat="45.21815" lon="0.51057">
        <ele>215</ele>
        <time>2016-05-03T12:16:59Z</time>
      </trkpt>
      <trkpt lat="45.21811" lon="0.51059">
        <ele>216</ele>
        <time>2016-05-03T12:17:04Z</time>
      </trkpt>
      <trkpt lat="45.21807" lon="0.51062">
        <ele>218</ele>
        <time>2016-05-03T12:17:09Z</time>
      </trkpt>
      <trkpt lat="45.21803" lon="0.51065">
        <ele>218</ele>
        <time>2016-05-03T12:17:13Z</time>
      </trkpt>
      <trkpt lat="45.21799" lon="0.51066">
        <ele>220</ele>
        <time>2016-05-03T12:17:18Z</time>
      </trkpt>
      <trkpt lat="45.21796" lon="0.51068">
        <ele>219</ele>
        <time>2016-05-03T12:17:22Z</time>
      </trkpt>
      <trkpt lat="45.21793" lon="0.51071">
        <ele>219</ele>
        <time>2016-05-03T12:17:27Z</time>
      </trkpt>
      <trkpt lat="45.21788" lon="0.51073">
        <ele>220</ele>
        <time>2016-05-03T12:17:32Z</time>
      </trkpt>
      <trkpt lat="45.21784" lon="0.51076">
        <ele>220</ele>
        <time>2016-05-03T12:17:38Z</time>
      </trkpt>
      <trkpt lat="45.21781" lon="0.5108">
        <ele>224</ele>
        <time>2016-05-03T12:17:44Z</time>
      </trkpt>
      <trkpt lat="45.21778" lon="0.51082">
        <ele>222</ele>
        <time>2016-05-03T12:17:48Z</time>
      </trkpt>
      <trkpt lat="45.21771" lon="0.51087">
        <ele>220</ele>
        <time>2016-05-03T12:17:53Z</time>
      </trkpt>
      <trkpt lat="45.21768" lon="0.51091">
        <ele>222</ele>
        <time>2016-05-03T12:17:58Z</time>
      </trkpt>
      <trkpt lat="45.21765" lon="0.51094">
        <ele>225</ele>
        <time>2016-05-03T12:18:04Z</time>
      </trkpt>
      <trkpt lat="45.21761" lon="0.51098">
        <ele>224</ele>
        <time>2016-05-03T12:18:08Z</time>
      </trkpt>
      <trkpt lat="45.21757" lon="0.511">
        <ele>223</ele>
        <time>2016-05-03T12:18:12Z</time>
      </trkpt>
      <trkpt lat="45.21754" lon="0.51104">
        <ele>224</ele>
        <time>2016-05-03T12:18:19Z</time>
      </trkpt>
      <trkpt lat="45.21751" lon="0.51108">
        <ele>228</ele>
        <time>2016-05-03T12:18:27Z</time>
      </trkpt>
      <trkpt lat="45.21747" lon="0.5111">
        <ele>230</ele>
        <time>2016-05-03T12:18:31Z</time>
      </trkpt>
      <trkpt lat="45.21744" lon="0.51113">
        <ele>233</ele>
        <time>2016-05-03T12:18:35Z</time>
      </trkpt>
      <trkpt lat="45.21741" lon="0.51114">
        <ele>234</ele>
        <time>2016-05-03T12:18:39Z</time>
      </trkpt>
      <trkpt lat="45.21737" lon="0.5112">
        <ele>233</ele>
        <time>2016-05-03T12:18:44Z</time>
      </trkpt>
      <trkpt lat="45.21733" lon="0.51123">
        <ele>235</ele>
        <time>2016-05-03T12:18:49Z</time>
      </trkpt>
      <trkpt lat="45.2173" lon="0.51126">
        <ele>237</ele>
        <time>2016-05-03T12:18:54Z</time>
      </trkpt>
      <trkpt lat="45.21726" lon="0.5113">
        <ele>238</ele>
        <time>2016-05-03T12:18:59Z</time>
      </trkpt>
      <trkpt lat="45.21723" lon="0.51133">
        <ele>237</ele>
        <time>2016-05-03T12:19:04Z</time>
      </trkpt>
      <trkpt lat="45.2172" lon="0.51137">
        <ele>238</ele>
        <time>2016-05-03T12:19:10Z</time>
      </trkpt>
      <trkpt lat="45.21716" lon="0.51141">
        <ele>237</ele>
        <time>2016-05-03T12:19:15Z</time>
      </trkpt>
      <trkpt lat="45.21713" lon="0.51145">
        <ele>240</ele>
        <time>2016-05-03T12:19:22Z</time>
      </trkpt>
      <trkpt lat="45.21709" lon="0.51149">
        <ele>242</ele>
        <time>2016-05-03T12:19:28Z</time>
      </trkpt>
      <trkpt lat="45.21705" lon="0.51151">
        <ele>243</ele>
        <time>2016-05-03T12:19:33Z</time>
      </trkpt>
      <trkpt lat="45.21702" lon="0.51156">
        <ele>242</ele>
        <time>2016-05-03T12:19:38Z</time>
      </trkpt>
      <trkpt lat="45.217" lon="0.51161">
        <ele>242</ele>
        <time>2016-05-03T12:19:42Z</time>
      </trkpt>
      <trkpt lat="45.21697" lon="0.51165">
        <ele>242</ele>
        <time>2016-05-03T12:19:50Z</time>
      </trkpt>
      <trkpt lat="45.21694" lon="0.5117">
        <ele>241</ele>
        <time>2016-05-03T12:19:57Z</time>
      </trkpt>
      <trkpt lat="45.21691" lon="0.51175">
        <ele>240</ele>
        <time>2016-05-03T12:20:01Z</time>
      </trkpt>
      <trkpt lat="45.21687" lon="0.51176">
        <ele>242</ele>
        <time>2016-05-03T12:20:07Z</time>
      </trkpt>
      <trkpt lat="45.21684" lon="0.5118">
        <ele>240</ele>
        <time>2016-05-03T12:20:12Z</time>
      </trkpt>
      <trkpt lat="45.2168" lon="0.51182">
        <ele>240</ele>
        <time>2016-05-03T12:20:17Z</time>
      </trkpt>
      <trkpt lat="45.21676" lon="0.51184">
        <ele>239</ele>
        <time>2016-05-03T12:20:22Z</time>
      </trkpt>
      <trkpt lat="45.21672" lon="0.51184">
        <ele>239</ele>
        <time>2016-05-03T12:20:27Z</time>
      </trkpt>
      <trkpt lat="45.21668" lon="0.51184">
        <ele>240</ele>
        <time>2016-05-03T12:20:31Z</time>
      </trkpt>
      <trkpt lat="45.21662" lon="0.51187">
        <ele>241</ele>
        <time>2016-05-03T12:20:36Z</time>
      </trkpt>
      <trkpt lat="45.21658" lon="0.51189">
        <ele>242</ele>
        <time>2016-05-03T12:20:40Z</time>
      </trkpt>
      <trkpt lat="45.21655" lon="0.51192">
        <ele>242</ele>
        <time>2016-05-03T12:20:45Z</time>
      </trkpt>
      <trkpt lat="45.21651" lon="0.51196">
        <ele>243</ele>
        <time>2016-05-03T12:20:50Z</time>
      </trkpt>
      <trkpt lat="45.21648" lon="0.51202">
        <ele>240</ele>
        <time>2016-05-03T12:20:55Z</time>
      </trkpt>
      <trkpt lat="45.21645" lon="0.51206">
        <ele>238</ele>
        <time>2016-05-03T12:20:59Z</time>
      </trkpt>
      <trkpt lat="45.2164" lon="0.5121">
        <ele>238</ele>
        <time>2016-05-03T12:21:04Z</time>
      </trkpt>
      <trkpt lat="45.21637" lon="0.51211">
        <ele>237</ele>
        <time>2016-05-03T12:21:10Z</time>
      </trkpt>
      <trkpt lat="45.21632" lon="0.51214">
        <ele>237</ele>
        <time>2016-05-03T12:21:14Z</time>
      </trkpt>
      <trkpt lat="45.21626" lon="0.51218">
        <ele>238</ele>
        <time>2016-05-03T12:21:19Z</time>
      </trkpt>
      <trkpt lat="45.21621" lon="0.51224">
        <ele>238</ele>
        <time>2016-05-03T12:21:23Z</time>
      </trkpt>
      <trkpt lat="45.21616" lon="0.5123">
        <ele>239</ele>
        <time>2016-05-03T12:21:27Z</time>
      </trkpt>
      <trkpt lat="45.21613" lon="0.51234">
        <ele>241</ele>
        <time>2016-05-03T12:21:32Z</time>
      </trkpt>
      <trkpt lat="45.21609" lon="0.5124">
        <ele>242</ele>
        <time>2016-05-03T12:21:37Z</time>
      </trkpt>
      <trkpt lat="45.21606" lon="0.51245">
        <ele>241</ele>
        <time>2016-05-03T12:21:41Z</time>
      </trkpt>
      <trkpt lat="45.21603" lon="0.51257">
        <ele>238</ele>
        <time>2016-05-03T12:21:46Z</time>
      </trkpt>
      <trkpt lat="45.216" lon="0.51261">
        <ele>236</ele>
        <time>2016-05-03T12:21:51Z</time>
      </trkpt>
      <trkpt lat="45.21595" lon="0.51267">
        <ele>235</ele>
        <time>2016-05-03T12:21:56Z</time>
      </trkpt>
      <trkpt lat="45.21593" lon="0.51272">
        <ele>235</ele>
        <time>2016-05-03T12:22:01Z</time>
      </trkpt>
      <trkpt lat="45.21591" lon="0.51278">
        <ele>231</ele>
        <time>2016-05-03T12:22:32Z</time>
      </trkpt>
      <trkpt lat="45.2159" lon="0.51284">
        <ele>234</ele>
        <time>2016-05-03T12:23:15Z</time>
      </trkpt>
      <trkpt lat="45.21586" lon="0.51286">
        <ele>235</ele>
        <time>2016-05-03T12:23:30Z</time>
      </trkpt>
      <trkpt lat="45.21583" lon="0.51286">
        <ele>234</ele>
        <time>2016-05-03T12:23:34Z</time>
      </trkpt>
      <trkpt lat="45.21578" lon="0.51287">
        <ele>236</ele>
        <time>2016-05-03T12:23:39Z</time>
      </trkpt>
      <trkpt lat="45.21574" lon="0.51286">
        <ele>235</ele>
        <time>2016-05-03T12:23:44Z</time>
      </trkpt>
      <trkpt lat="45.2157" lon="0.51285">
        <ele>238</ele>
        <time>2016-05-03T12:23:50Z</time>
      </trkpt>
      <trkpt lat="45.21565" lon="0.51286">
        <ele>239</ele>
        <time>2016-05-03T12:23:55Z</time>
      </trkpt>
      <trkpt lat="45.2156" lon="0.51286">
        <ele>239</ele>
        <time>2016-05-03T12:23:59Z</time>
      </trkpt>
      <trkpt lat="45.21554" lon="0.51286">
        <ele>238</ele>
        <time>2016-05-03T12:24:04Z</time>
      </trkpt>
      <trkpt lat="45.21551" lon="0.51282">
        <ele>238</ele>
        <time>2016-05-03T12:24:09Z</time>
      </trkpt>
      <trkpt lat="45.21547" lon="0.5128">
        <ele>238</ele>
        <time>2016-05-03T12:24:13Z</time>
      </trkpt>
      <trkpt lat="45.21541" lon="0.51282">
        <ele>238</ele>
        <time>2016-05-03T12:24:18Z</time>
      </trkpt>
      <trkpt lat="45.21537" lon="0.51285">
        <ele>240</ele>
        <time>2016-05-03T12:24:23Z</time>
      </trkpt>
      <trkpt lat="45.21535" lon="0.51291">
        <ele>239</ele>
        <time>2016-05-03T12:24:27Z</time>
      </trkpt>
      <trkpt lat="45.2153" lon="0.51298">
        <ele>239</ele>
        <time>2016-05-03T12:24:32Z</time>
      </trkpt>
      <trkpt lat="45.21526" lon="0.513">
        <ele>240</ele>
        <time>2016-05-03T12:24:37Z</time>
      </trkpt>
      <trkpt lat="45.21523" lon="0.51304">
        <ele>241</ele>
        <time>2016-05-03T12:24:41Z</time>
      </trkpt>
      <trkpt lat="45.2152" lon="0.5131">
        <ele>240</ele>
        <time>2016-05-03T12:24:45Z</time>
      </trkpt>
      <trkpt lat="45.2152" lon="0.51317">
        <ele>240</ele>
        <time>2016-05-03T12:24:49Z</time>
      </trkpt>
      <trkpt lat="45.21519" lon="0.51323">
        <ele>240</ele>
        <time>2016-05-03T12:24:53Z</time>
      </trkpt>
      <trkpt lat="45.21517" lon="0.51329">
        <ele>240</ele>
        <time>2016-05-03T12:24:57Z</time>
      </trkpt>
      <trkpt lat="45.21515" lon="0.51336">
        <ele>241</ele>
        <time>2016-05-03T12:25:02Z</time>
      </trkpt>
      <trkpt lat="45.21516" lon="0.51342">
        <ele>241</ele>
        <time>2016-05-03T12:25:06Z</time>
      </trkpt>
      <trkpt lat="45.21516" lon="0.51351">
        <ele>240</ele>
        <time>2016-05-03T12:25:11Z</time>
      </trkpt>
      <trkpt lat="45.21516" lon="0.51358">
        <ele>239</ele>
        <time>2016-05-03T12:25:15Z</time>
      </trkpt>
      <trkpt lat="45.21515" lon="0.51364">
        <ele>239</ele>
        <time>2016-05-03T12:25:19Z</time>
      </trkpt>
      <trkpt lat="45.21516" lon="0.51373">
        <ele>237</ele>
        <time>2016-05-03T12:25:24Z</time>
      </trkpt>
      <trkpt lat="45.21517" lon="0.51379">
        <ele>237</ele>
        <time>2016-05-03T12:25:28Z</time>
      </trkpt>
      <trkpt lat="45.21518" lon="0.51385">
        <ele>238</ele>
        <time>2016-05-03T12:25:33Z</time>
      </trkpt>
      <trkpt lat="45.21519" lon="0.51393">
        <ele>238</ele>
        <time>2016-05-03T12:25:37Z</time>
      </trkpt>
      <trkpt lat="45.21519" lon="0.51401">
        <ele>237</ele>
        <time>2016-05-03T12:25:42Z</time>
      </trkpt>
      <trkpt lat="45.2152" lon="0.51408">
        <ele>236</ele>
        <time>2016-05-03T12:25:46Z</time>
      </trkpt>
      <trkpt lat="45.21521" lon="0.51415">
        <ele>236</ele>
        <time>2016-05-03T12:25:50Z</time>
      </trkpt>
      <trkpt lat="45.21522" lon="0.51423">
        <ele>236</ele>
        <time>2016-05-03T12:25:54Z</time>
      </trkpt>
      <trkpt lat="45.21522" lon="0.51437">
        <ele>234</ele>
        <time>2016-05-03T12:25:59Z</time>
      </trkpt>
      <trkpt lat="45.21523" lon="0.51444">
        <ele>234</ele>
        <time>2016-05-03T12:26:04Z</time>
      </trkpt>
      <trkpt lat="45.21524" lon="0.5145">
        <ele>235</ele>
        <time>2016-05-03T12:26:08Z</time>
      </trkpt>
      <trkpt lat="45.21524" lon="0.51457">
        <ele>235</ele>
        <time>2016-05-03T12:26:12Z</time>
      </trkpt>
      <trkpt lat="45.21525" lon="0.51462">
        <ele>235</ele>
        <time>2016-05-03T12:26:16Z</time>
      </trkpt>
      <trkpt lat="45.21527" lon="0.51471">
        <ele>233</ele>
        <time>2016-05-03T12:26:20Z</time>
      </trkpt>
      <trkpt lat="45.21527" lon="0.51478">
        <ele>234</ele>
        <time>2016-05-03T12:26:24Z</time>
      </trkpt>
      <trkpt lat="45.21525" lon="0.51485">
        <ele>235</ele>
        <time>2016-05-03T12:26:29Z</time>
      </trkpt>
      <trkpt lat="45.21525" lon="0.51492">
        <ele>234</ele>
        <time>2016-05-03T12:26:34Z</time>
      </trkpt>
      <trkpt lat="45.21527" lon="0.51501">
        <ele>234</ele>
        <time>2016-05-03T12:26:38Z</time>
      </trkpt>
      <trkpt lat="45.21527" lon="0.51507">
        <ele>231</ele>
        <time>2016-05-03T12:26:42Z</time>
      </trkpt>
      <trkpt lat="45.21528" lon="0.51514">
        <ele>231</ele>
        <time>2016-05-03T12:26:46Z</time>
      </trkpt>
      <trkpt lat="45.21529" lon="0.51523">
        <ele>230</ele>
        <time>2016-05-03T12:26:50Z</time>
      </trkpt>
      <trkpt lat="45.21528" lon="0.51528">
        <ele>231</ele>
        <time>2016-05-03T12:26:54Z</time>
      </trkpt>
      <trkpt lat="45.21527" lon="0.51537">
        <ele>231</ele>
        <time>2016-05-03T12:26:59Z</time>
      </trkpt>
      <trkpt lat="45.21527" lon="0.51543">
        <ele>232</ele>
        <time>2016-05-03T12:27:03Z</time>
      </trkpt>
      <trkpt lat="45.21528" lon="0.51548">
        <ele>233</ele>
        <time>2016-05-03T12:27:08Z</time>
      </trkpt>
      <trkpt lat="45.21529" lon="0.51557">
        <ele>231</ele>
        <time>2016-05-03T12:27:13Z</time>
      </trkpt>
      <trkpt lat="45.2153" lon="0.51565">
        <ele>231</ele>
        <time>2016-05-03T12:27:18Z</time>
      </trkpt>
      <trkpt lat="45.2153" lon="0.5157">
        <ele>233</ele>
        <time>2016-05-03T12:27:22Z</time>
      </trkpt>
      <trkpt lat="45.21531" lon="0.51576">
        <ele>235</ele>
        <time>2016-05-03T12:27:26Z</time>
      </trkpt>
      <trkpt lat="45.21532" lon="0.51583">
        <ele>235</ele>
        <time>2016-05-03T12:27:30Z</time>
      </trkpt>
      <trkpt lat="45.21533" lon="0.51591">
        <ele>236</ele>
        <time>2016-05-03T12:27:35Z</time>
      </trkpt>
      <trkpt lat="45.21532" lon="0.51598">
        <ele>236</ele>
        <time>2016-05-03T12:27:40Z</time>
      </trkpt>
      <trkpt lat="45.21532" lon="0.51605">
        <ele>235</ele>
        <time>2016-05-03T12:27:44Z</time>
      </trkpt>
      <trkpt lat="45.21532" lon="0.51611">
        <ele>236</ele>
        <time>2016-05-03T12:27:48Z</time>
      </trkpt>
      <trkpt lat="45.21532" lon="0.51619">
        <ele>236</ele>
        <time>2016-05-03T12:27:52Z</time>
      </trkpt>
      <trkpt lat="45.21532" lon="0.51626">
        <ele>237</ele>
        <time>2016-05-03T12:27:56Z</time>
      </trkpt>
      <trkpt lat="45.21531" lon="0.51632">
        <ele>237</ele>
        <time>2016-05-03T12:28:00Z</time>
      </trkpt>
      <trkpt lat="45.21531" lon="0.51639">
        <ele>238</ele>
        <time>2016-05-03T12:28:04Z</time>
      </trkpt>
      <trkpt lat="45.21531" lon="0.51649">
        <ele>238</ele>
        <time>2016-05-03T12:28:09Z</time>
      </trkpt>
      <trkpt lat="45.21532" lon="0.51655">
        <ele>238</ele>
        <time>2016-05-03T12:28:13Z</time>
      </trkpt>
      <trkpt lat="45.21532" lon="0.51661">
        <ele>238</ele>
        <time>2016-05-03T12:28:17Z</time>
      </trkpt>
      <trkpt lat="45.21532" lon="0.51667">
        <ele>238</ele>
        <time>2016-05-03T12:28:21Z</time>
      </trkpt>
      <trkpt lat="45.21533" lon="0.51678">
        <ele>237</ele>
        <time>2016-05-03T12:28:26Z</time>
      </trkpt>
      <trkpt lat="45.21533" lon="0.51683">
        <ele>236</ele>
        <time>2016-05-03T12:28:30Z</time>
      </trkpt>
      <trkpt lat="45.21535" lon="0.51693">
        <ele>237</ele>
        <time>2016-05-03T12:28:35Z</time>
      </trkpt>
      <trkpt lat="45.21534" lon="0.51699">
        <ele>237</ele>
        <time>2016-05-03T12:28:39Z</time>
      </trkpt>
      <trkpt lat="45.21536" lon="0.51707">
        <ele>238</ele>
        <time>2016-05-03T12:28:44Z</time>
      </trkpt>
      <trkpt lat="45.21535" lon="0.51714">
        <ele>237</ele>
        <time>2016-05-03T12:28:48Z</time>
      </trkpt>
      <trkpt lat="45.21536" lon="0.51724">
        <ele>236</ele>
        <time>2016-05-03T12:28:53Z</time>
      </trkpt>
      <trkpt lat="45.21536" lon="0.51731">
        <ele>235</ele>
        <time>2016-05-03T12:28:57Z</time>
      </trkpt>
      <trkpt lat="45.21537" lon="0.51741">
        <ele>233</ele>
        <time>2016-05-03T12:29:02Z</time>
      </trkpt>
      <trkpt lat="45.21537" lon="0.5175">
        <ele>232</ele>
        <time>2016-05-03T12:29:07Z</time>
      </trkpt>
      <trkpt lat="45.21537" lon="0.51756">
        <ele>235</ele>
        <time>2016-05-03T12:29:13Z</time>
      </trkpt>
      <trkpt lat="45.21537" lon="0.51767">
        <ele>235</ele>
        <time>2016-05-03T12:29:18Z</time>
      </trkpt>
      <trkpt lat="45.21539" lon="0.51777">
        <ele>233</ele>
        <time>2016-05-03T12:29:23Z</time>
      </trkpt>
      <trkpt lat="45.21539" lon="0.51783">
        <ele>234</ele>
        <time>2016-05-03T12:29:27Z</time>
      </trkpt>
      <trkpt lat="45.2154" lon="0.51789">
        <ele>235</ele>
        <time>2016-05-03T12:29:31Z</time>
      </trkpt>
      <trkpt lat="45.21541" lon="0.51797">
        <ele>234</ele>
        <time>2016-05-03T12:29:35Z</time>
      </trkpt>
      <trkpt lat="45.2154" lon="0.51805">
        <ele>233</ele>
        <time>2016-05-03T12:29:39Z</time>
      </trkpt>
      <trkpt lat="45.2154" lon="0.51813">
        <ele>233</ele>
        <time>2016-05-03T12:29:43Z</time>
      </trkpt>
      <trkpt lat="45.2154" lon="0.51822">
        <ele>231</ele>
        <time>2016-05-03T12:29:47Z</time>
      </trkpt>
      <trkpt lat="45.21541" lon="0.5183">
        <ele>229</ele>
        <time>2016-05-03T12:29:52Z</time>
      </trkpt>
      <trkpt lat="45.21541" lon="0.51839">
        <ele>227</ele>
        <time>2016-05-03T12:29:56Z</time>
      </trkpt>
      <trkpt lat="45.2154" lon="0.51846">
        <ele>225</ele>
        <time>2016-05-03T12:30:01Z</time>
      </trkpt>
      <trkpt lat="45.21538" lon="0.51852">
        <ele>225</ele>
        <time>2016-05-03T12:30:07Z</time>
      </trkpt>
      <trkpt lat="45.21534" lon="0.51849">
        <ele>227</ele>
        <time>2016-05-03T12:30:17Z</time>
      </trkpt>
      <trkpt lat="45.21531" lon="0.51845">
        <ele>228</ele>
        <time>2016-05-03T12:30:25Z</time>
      </trkpt>
      <trkpt lat="45.21528" lon="0.51843">
        <ele>229</ele>
        <time>2016-05-03T12:30:30Z</time>
      </trkpt>
      <trkpt lat="45.21524" lon="0.51841">
        <ele>230</ele>
        <time>2016-05-03T12:30:35Z</time>
      </trkpt>
      <trkpt lat="45.2152" lon="0.51838">
        <ele>233</ele>
        <time>2016-05-03T12:30:41Z</time>
      </trkpt>
      <trkpt lat="45.21516" lon="0.51838">
        <ele>233</ele>
        <time>2016-05-03T12:30:47Z</time>
      </trkpt>
      <trkpt lat="45.21511" lon="0.51838">
        <ele>231</ele>
        <time>2016-05-03T12:30:56Z</time>
      </trkpt>
      <trkpt lat="45.21507" lon="0.51835">
        <ele>232</ele>
        <time>2016-05-03T12:31:01Z</time>
      </trkpt>
      <trkpt lat="45.21503" lon="0.51832">
        <ele>232</ele>
        <time>2016-05-03T12:31:05Z</time>
      </trkpt>
      <trkpt lat="45.21496" lon="0.51831">
        <ele>232</ele>
        <time>2016-05-03T12:31:09Z</time>
      </trkpt>
      <trkpt lat="45.21492" lon="0.51828">
        <ele>234</ele>
        <time>2016-05-03T12:31:14Z</time>
      </trkpt>
      <trkpt lat="45.21488" lon="0.51825">
        <ele>235</ele>
        <time>2016-05-03T12:31:18Z</time>
      </trkpt>
      <trkpt lat="45.2148" lon="0.51822">
        <ele>237</ele>
        <time>2016-05-03T12:31:23Z</time>
      </trkpt>
      <trkpt lat="45.21474" lon="0.51823">
        <ele>236</ele>
        <time>2016-05-03T12:31:28Z</time>
      </trkpt>
      <trkpt lat="45.21468" lon="0.51821">
        <ele>234</ele>
        <time>2016-05-03T12:31:32Z</time>
      </trkpt>
      <trkpt lat="45.21464" lon="0.51818">
        <ele>231</ele>
        <time>2016-05-03T12:31:36Z</time>
      </trkpt>
      <trkpt lat="45.21459" lon="0.51817">
        <ele>222</ele>
        <time>2016-05-03T12:31:41Z</time>
      </trkpt>
      <trkpt lat="45.21457" lon="0.51817">
        <ele>228</ele>
        <time>2016-05-03T12:31:47Z</time>
      </trkpt>
      <trkpt lat="45.21452" lon="0.51819">
        <ele>232</ele>
        <time>2016-05-03T12:31:52Z</time>
      </trkpt>
      <trkpt lat="45.21445" lon="0.5182">
        <ele>228</ele>
        <time>2016-05-03T12:31:56Z</time>
      </trkpt>
      <trkpt lat="45.21439" lon="0.5182">
        <ele>226</ele>
        <time>2016-05-03T12:32:00Z</time>
      </trkpt>
      <trkpt lat="45.21435" lon="0.51821">
        <ele>225</ele>
        <time>2016-05-03T12:32:05Z</time>
      </trkpt>
      <trkpt lat="45.21427" lon="0.51822">
        <ele>223</ele>
        <time>2016-05-03T12:32:10Z</time>
      </trkpt>
      <trkpt lat="45.21423" lon="0.51822">
        <ele>224</ele>
        <time>2016-05-03T12:32:15Z</time>
      </trkpt>
      <trkpt lat="45.21414" lon="0.51822">
        <ele>220</ele>
        <time>2016-05-03T12:32:20Z</time>
      </trkpt>
      <trkpt lat="45.2141" lon="0.51823">
        <ele>219</ele>
        <time>2016-05-03T12:32:24Z</time>
      </trkpt>
      <trkpt lat="45.21406" lon="0.51825">
        <ele>223</ele>
        <time>2016-05-03T12:32:35Z</time>
      </trkpt>
      <trkpt lat="45.21399" lon="0.51825">
        <ele>223</ele>
        <time>2016-05-03T12:32:40Z</time>
      </trkpt>
      <trkpt lat="45.21397" lon="0.51824">
        <ele>223</ele>
        <time>2016-05-03T12:32:44Z</time>
      </trkpt>
      <trkpt lat="45.21387" lon="0.51826">
        <ele>222</ele>
        <time>2016-05-03T12:32:49Z</time>
      </trkpt>
      <trkpt lat="45.21383" lon="0.51827">
        <ele>225</ele>
        <time>2016-05-03T12:32:56Z</time>
      </trkpt>
      <trkpt lat="45.21379" lon="0.51829">
        <ele>225</ele>
        <time>2016-05-03T12:33:05Z</time>
      </trkpt>
      <trkpt lat="45.21375" lon="0.51829">
        <ele>223</ele>
        <time>2016-05-03T12:33:11Z</time>
      </trkpt>
      <trkpt lat="45.21371" lon="0.5183">
        <ele>224</ele>
        <time>2016-05-03T12:33:19Z</time>
      </trkpt>
      <trkpt lat="45.21366" lon="0.51832">
        <ele>226</ele>
        <time>2016-05-03T12:33:24Z</time>
      </trkpt>
      <trkpt lat="45.21363" lon="0.51833">
        <ele>229</ele>
        <time>2016-05-03T12:33:29Z</time>
      </trkpt>
      <trkpt lat="45.21359" lon="0.51833">
        <ele>230</ele>
        <time>2016-05-03T12:33:34Z</time>
      </trkpt>
      <trkpt lat="45.21355" lon="0.51831">
        <ele>231</ele>
        <time>2016-05-03T12:33:39Z</time>
      </trkpt>
      <trkpt lat="45.21351" lon="0.51831">
        <ele>233</ele>
        <time>2016-05-03T12:33:46Z</time>
      </trkpt>
      <trkpt lat="45.21347" lon="0.5183">
        <ele>234</ele>
        <time>2016-05-03T12:33:51Z</time>
      </trkpt>
      <trkpt lat="45.21342" lon="0.51829">
        <ele>235</ele>
        <time>2016-05-03T12:33:56Z</time>
      </trkpt>
      <trkpt lat="45.21338" lon="0.51828">
        <ele>235</ele>
        <time>2016-05-03T12:34:00Z</time>
      </trkpt>
      <trkpt lat="45.21334" lon="0.51827">
        <ele>235</ele>
        <time>2016-05-03T12:34:05Z</time>
      </trkpt>
      <trkpt lat="45.2133" lon="0.51826">
        <ele>234</ele>
        <time>2016-05-03T12:34:10Z</time>
      </trkpt>
      <trkpt lat="45.21325" lon="0.51827">
        <ele>235</ele>
        <time>2016-05-03T12:34:15Z</time>
      </trkpt>
      <trkpt lat="45.21321" lon="0.51826">
        <ele>234</ele>
        <time>2016-05-03T12:34:19Z</time>
      </trkpt>
      <trkpt lat="45.21316" lon="0.51826">
        <ele>232</ele>
        <time>2016-05-03T12:34:23Z</time>
      </trkpt>
      <trkpt lat="45.21312" lon="0.51825">
        <ele>231</ele>
        <time>2016-05-03T12:34:27Z</time>
      </trkpt>
      <trkpt lat="45.21308" lon="0.51824">
        <ele>230</ele>
        <time>2016-05-03T12:34:31Z</time>
      </trkpt>
      <trkpt lat="45.21304" lon="0.51825">
        <ele>228</ele>
        <time>2016-05-03T12:34:36Z</time>
      </trkpt>
      <trkpt lat="45.213" lon="0.51823">
        <ele>228</ele>
        <time>2016-05-03T12:34:43Z</time>
      </trkpt>
      <trkpt lat="45.21295" lon="0.51824">
        <ele>226</ele>
        <time>2016-05-03T12:34:47Z</time>
      </trkpt>
      <trkpt lat="45.2129" lon="0.5182">
        <ele>226</ele>
        <time>2016-05-03T12:34:51Z</time>
      </trkpt>
      <trkpt lat="45.21283" lon="0.51817">
        <ele>228</ele>
        <time>2016-05-03T12:34:56Z</time>
      </trkpt>
      <trkpt lat="45.21278" lon="0.51815">
        <ele>228</ele>
        <time>2016-05-03T12:35:00Z</time>
      </trkpt>
      <trkpt lat="45.21273" lon="0.51816">
        <ele>229</ele>
        <time>2016-05-03T12:35:04Z</time>
      </trkpt>
      <trkpt lat="45.21269" lon="0.51816">
        <ele>231</ele>
        <time>2016-05-03T12:35:09Z</time>
      </trkpt>
      <trkpt lat="45.21262" lon="0.51816">
        <ele>230</ele>
        <time>2016-05-03T12:35:14Z</time>
      </trkpt>
      <trkpt lat="45.21257" lon="0.51815">
        <ele>233</ele>
        <time>2016-05-03T12:35:19Z</time>
      </trkpt>
      <trkpt lat="45.21253" lon="0.51815">
        <ele>231</ele>
        <time>2016-05-03T12:35:24Z</time>
      </trkpt>
      <trkpt lat="45.21248" lon="0.51817">
        <ele>231</ele>
        <time>2016-05-03T12:35:29Z</time>
      </trkpt>
      <trkpt lat="45.21243" lon="0.51817">
        <ele>230</ele>
        <time>2016-05-03T12:35:33Z</time>
      </trkpt>
      <trkpt lat="45.21238" lon="0.51817">
        <ele>228</ele>
        <time>2016-05-03T12:35:37Z</time>
      </trkpt>
      <trkpt lat="45.21232" lon="0.51815">
        <ele>226</ele>
        <time>2016-05-03T12:35:41Z</time>
      </trkpt>
      <trkpt lat="45.21226" lon="0.51811">
        <ele>226</ele>
        <time>2016-05-03T12:35:46Z</time>
      </trkpt>
      <trkpt lat="45.21221" lon="0.51811">
        <ele>226</ele>
        <time>2016-05-03T12:35:50Z</time>
      </trkpt>
      <trkpt lat="45.21213" lon="0.51811">
        <ele>225</ele>
        <time>2016-05-03T12:35:55Z</time>
      </trkpt>
      <trkpt lat="45.21207" lon="0.51811">
        <ele>226</ele>
        <time>2016-05-03T12:36:00Z</time>
      </trkpt>
      <trkpt lat="45.21202" lon="0.51812">
        <ele>227</ele>
        <time>2016-05-03T12:36:04Z</time>
      </trkpt>
      <trkpt lat="45.21198" lon="0.51812">
        <ele>227</ele>
        <time>2016-05-03T12:36:08Z</time>
      </trkpt>
      <trkpt lat="45.21192" lon="0.51813">
        <ele>226</ele>
        <time>2016-05-03T12:36:12Z</time>
      </trkpt>
      <trkpt lat="45.21187" lon="0.51814">
        <ele>223</ele>
        <time>2016-05-03T12:36:16Z</time>
      </trkpt>
      <trkpt lat="45.21184" lon="0.51815">
        <ele>225</ele>
        <time>2016-05-03T12:36:20Z</time>
      </trkpt>
      <trkpt lat="45.21177" lon="0.51817">
        <ele>226</ele>
        <time>2016-05-03T12:36:25Z</time>
      </trkpt>
      <trkpt lat="45.21172" lon="0.5182">
        <ele>226</ele>
        <time>2016-05-03T12:36:29Z</time>
      </trkpt>
      <trkpt lat="45.21164" lon="0.51824">
        <ele>224</ele>
        <time>2016-05-03T12:36:34Z</time>
      </trkpt>
      <trkpt lat="45.2116" lon="0.51825">
        <ele>226</ele>
        <time>2016-05-03T12:36:38Z</time>
      </trkpt>
      <trkpt lat="45.21155" lon="0.5183">
        <ele>226</ele>
        <time>2016-05-03T12:36:42Z</time>
      </trkpt>
      <trkpt lat="45.21151" lon="0.5183">
        <ele>227</ele>
        <time>2016-05-03T12:36:47Z</time>
      </trkpt>
      <trkpt lat="45.21147" lon="0.51833">
        <ele>222</ele>
        <time>2016-05-03T12:37:46Z</time>
      </trkpt>
      <trkpt lat="45.21143" lon="0.51831">
        <ele>221</ele>
        <time>2016-05-03T12:37:54Z</time>
      </trkpt>
      <trkpt lat="45.21139" lon="0.51827">
        <ele>220</ele>
        <time>2016-05-03T12:37:58Z</time>
      </trkpt>
      <trkpt lat="45.21135" lon="0.51826">
        <ele>221</ele>
        <time>2016-05-03T12:38:02Z</time>
      </trkpt>
      <trkpt lat="45.21128" lon="0.51828">
        <ele>222</ele>
        <time>2016-05-03T12:38:07Z</time>
      </trkpt>
      <trkpt lat="45.21125" lon="0.51825">
        <ele>222</ele>
        <time>2016-05-03T12:38:21Z</time>
      </trkpt>
      <trkpt lat="45.21122" lon="0.5182">
        <ele>222</ele>
        <time>2016-05-03T12:38:25Z</time>
      </trkpt>
      <trkpt lat="45.21119" lon="0.51812">
        <ele>223</ele>
        <time>2016-05-03T12:38:30Z</time>
      </trkpt>
      <trkpt lat="45.21117" lon="0.51806">
        <ele>223</ele>
        <time>2016-05-03T12:38:34Z</time>
      </trkpt>
      <trkpt lat="45.21112" lon="0.51797">
        <ele>223</ele>
        <time>2016-05-03T12:38:39Z</time>
      </trkpt>
      <trkpt lat="45.21109" lon="0.5179">
        <ele>225</ele>
        <time>2016-05-03T12:38:43Z</time>
      </trkpt>
      <trkpt lat="45.21104" lon="0.51782">
        <ele>225</ele>
        <time>2016-05-03T12:38:48Z</time>
      </trkpt>
      <trkpt lat="45.21102" lon="0.51775">
        <ele>225</ele>
        <time>2016-05-03T12:38:52Z</time>
      </trkpt>
      <trkpt lat="45.211" lon="0.51769">
        <ele>226</ele>
        <time>2016-05-03T12:38:56Z</time>
      </trkpt>
      <trkpt lat="45.21098" lon="0.51764">
        <ele>226</ele>
        <time>2016-05-03T12:39:00Z</time>
      </trkpt>
      <trkpt lat="45.21095" lon="0.51758">
        <ele>227</ele>
        <time>2016-05-03T12:39:05Z</time>
      </trkpt>
      <trkpt lat="45.21092" lon="0.51752">
        <ele>227</ele>
        <time>2016-05-03T12:39:09Z</time>
      </trkpt>
      <trkpt lat="45.21089" lon="0.51747">
        <ele>227</ele>
        <time>2016-05-03T12:39:13Z</time>
      </trkpt>
      <trkpt lat="45.21085" lon="0.5174">
        <ele>226</ele>
        <time>2016-05-03T12:39:17Z</time>
      </trkpt>
      <trkpt lat="45.21082" lon="0.51734">
        <ele>227</ele>
        <time>2016-05-03T12:39:22Z</time>
      </trkpt>
      <trkpt lat="45.21079" lon="0.51729">
        <ele>226</ele>
        <time>2016-05-03T12:39:26Z</time>
      </trkpt>
      <trkpt lat="45.21074" lon="0.51722">
        <ele>225</ele>
        <time>2016-05-03T12:39:31Z</time>
      </trkpt>
      <trkpt lat="45.21072" lon="0.51715">
        <ele>226</ele>
        <time>2016-05-03T12:39:36Z</time>
      </trkpt>
      <trkpt lat="45.2107" lon="0.51711">
        <ele>227</ele>
        <time>2016-05-03T12:39:40Z</time>
      </trkpt>
      <trkpt lat="45.21066" lon="0.51705">
        <ele>226</ele>
        <time>2016-05-03T12:39:45Z</time>
      </trkpt>
      <trkpt lat="45.21061" lon="0.517">
        <ele>226</ele>
        <time>2016-05-03T12:39:50Z</time>
      </trkpt>
      <trkpt lat="45.21055" lon="0.51696">
        <ele>225</ele>
        <time>2016-05-03T12:39:54Z</time>
      </trkpt>
      <trkpt lat="45.21051" lon="0.51693">
        <ele>224</ele>
        <time>2016-05-03T12:39:58Z</time>
      </trkpt>
      <trkpt lat="45.21046" lon="0.51689">
        <ele>225</ele>
        <time>2016-05-03T12:40:03Z</time>
      </trkpt>
      <trkpt lat="45.21042" lon="0.51685">
        <ele>224</ele>
        <time>2016-05-03T12:40:07Z</time>
      </trkpt>
      <trkpt lat="45.21037" lon="0.51682">
        <ele>222</ele>
        <time>2016-05-03T12:40:12Z</time>
      </trkpt>
      <trkpt lat="45.21032" lon="0.5168">
        <ele>221</ele>
        <time>2016-05-03T12:40:16Z</time>
      </trkpt>
      <trkpt lat="45.21026" lon="0.51675">
        <ele>221</ele>
        <time>2016-05-03T12:40:21Z</time>
      </trkpt>
      <trkpt lat="45.21021" lon="0.51672">
        <ele>219</ele>
        <time>2016-05-03T12:40:25Z</time>
      </trkpt>
      <trkpt lat="45.21019" lon="0.51666">
        <ele>220</ele>
        <time>2016-05-03T12:40:30Z</time>
      </trkpt>
      <trkpt lat="45.21015" lon="0.51663">
        <ele>220</ele>
        <time>2016-05-03T12:40:34Z</time>
      </trkpt>
      <trkpt lat="45.2101" lon="0.51658">
        <ele>220</ele>
        <time>2016-05-03T12:40:39Z</time>
      </trkpt>
      <trkpt lat="45.21006" lon="0.51653">
        <ele>222</ele>
        <time>2016-05-03T12:40:44Z</time>
      </trkpt>
      <trkpt lat="45.21003" lon="0.51648">
        <ele>223</ele>
        <time>2016-05-03T12:40:49Z</time>
      </trkpt>
      <trkpt lat="45.21002" lon="0.51643">
        <ele>225</ele>
        <time>2016-05-03T12:40:54Z</time>
      </trkpt>
      <trkpt lat="45.20998" lon="0.51638">
        <ele>226</ele>
        <time>2016-05-03T12:40:58Z</time>
      </trkpt>
      <trkpt lat="45.20997" lon="0.51632">
        <ele>232</ele>
        <time>2016-05-03T12:41:04Z</time>
      </trkpt>
      <trkpt lat="45.20994" lon="0.51626">
        <ele>234</ele>
        <time>2016-05-03T12:41:09Z</time>
      </trkpt>
      <trkpt lat="45.20991" lon="0.5162">
        <ele>231</ele>
        <time>2016-05-03T12:41:13Z</time>
      </trkpt>
      <trkpt lat="45.20988" lon="0.51615">
        <ele>230</ele>
        <time>2016-05-03T12:41:17Z</time>
      </trkpt>
      <trkpt lat="45.20988" lon="0.51609">
        <ele>234</ele>
        <time>2016-05-03T12:41:22Z</time>
      </trkpt>
      <trkpt lat="45.20986" lon="0.51604">
        <ele>235</ele>
        <time>2016-05-03T12:41:27Z</time>
      </trkpt>
      <trkpt lat="45.20983" lon="0.51597">
        <ele>234</ele>
        <time>2016-05-03T12:41:32Z</time>
      </trkpt>
      <trkpt lat="45.2098" lon="0.51592">
        <ele>232</ele>
        <time>2016-05-03T12:41:36Z</time>
      </trkpt>
      <trkpt lat="45.20976" lon="0.51585">
        <ele>232</ele>
        <time>2016-05-03T12:41:40Z</time>
      </trkpt>
      <trkpt lat="45.20972" lon="0.51577">
        <ele>230</ele>
        <time>2016-05-03T12:41:45Z</time>
      </trkpt>
      <trkpt lat="45.2097" lon="0.51567">
        <ele>228</ele>
        <time>2016-05-03T12:41:50Z</time>
      </trkpt>
      <trkpt lat="45.20968" lon="0.5156">
        <ele>229</ele>
        <time>2016-05-03T12:41:54Z</time>
      </trkpt>
      <trkpt lat="45.2097" lon="0.51552">
        <ele>233</ele>
        <time>2016-05-03T12:41:59Z</time>
      </trkpt>
      <trkpt lat="45.20965" lon="0.51544">
        <ele>230</ele>
        <time>2016-05-03T12:42:04Z</time>
      </trkpt>
      <trkpt lat="45.20964" lon="0.51539">
        <ele>231</ele>
        <time>2016-05-03T12:42:08Z</time>
      </trkpt>
      <trkpt lat="45.2096" lon="0.51533">
        <ele>229</ele>
        <time>2016-05-03T12:42:12Z</time>
      </trkpt>
      <trkpt lat="45.20957" lon="0.51525">
        <ele>227</ele>
        <time>2016-05-03T12:42:17Z</time>
      </trkpt>
      <trkpt lat="45.20954" lon="0.51517">
        <ele>225</ele>
        <time>2016-05-03T12:42:21Z</time>
      </trkpt>
      <trkpt lat="45.20951" lon="0.51509">
        <ele>224</ele>
        <time>2016-05-03T12:42:25Z</time>
      </trkpt>
      <trkpt lat="45.2095" lon="0.515">
        <ele>225</ele>
        <time>2016-05-03T12:42:30Z</time>
      </trkpt>
      <trkpt lat="45.20949" lon="0.51494">
        <ele>225</ele>
        <time>2016-05-03T12:42:34Z</time>
      </trkpt>
      <trkpt lat="45.20945" lon="0.51487">
        <ele>224</ele>
        <time>2016-05-03T12:42:38Z</time>
      </trkpt>
      <trkpt lat="45.20942" lon="0.51481">
        <ele>226</ele>
        <time>2016-05-03T12:42:42Z</time>
      </trkpt>
      <trkpt lat="45.20939" lon="0.51473">
        <ele>228</ele>
        <time>2016-05-03T12:42:46Z</time>
      </trkpt>
      <trkpt lat="45.20932" lon="0.51466">
        <ele>224</ele>
        <time>2016-05-03T12:42:50Z</time>
      </trkpt>
      <trkpt lat="45.20934" lon="0.5146">
        <ele>225</ele>
        <time>2016-05-03T12:42:54Z</time>
      </trkpt>
      <trkpt lat="45.20933" lon="0.51455">
        <ele>227</ele>
        <time>2016-05-03T12:42:58Z</time>
      </trkpt>
      <trkpt lat="45.20931" lon="0.51447">
        <ele>227</ele>
        <time>2016-05-03T12:43:02Z</time>
      </trkpt>
      <trkpt lat="45.20929" lon="0.5144">
        <ele>226</ele>
        <time>2016-05-03T12:43:07Z</time>
      </trkpt>
      <trkpt lat="45.20926" lon="0.51432">
        <ele>226</ele>
        <time>2016-05-03T12:43:11Z</time>
      </trkpt>
      <trkpt lat="45.20923" lon="0.51425">
        <ele>226</ele>
        <time>2016-05-03T12:43:15Z</time>
      </trkpt>
      <trkpt lat="45.20921" lon="0.51418">
        <ele>225</ele>
        <time>2016-05-03T12:43:19Z</time>
      </trkpt>
      <trkpt lat="45.2092" lon="0.51411">
        <ele>225</ele>
        <time>2016-05-03T12:43:24Z</time>
      </trkpt>
      <trkpt lat="45.20918" lon="0.51406">
        <ele>223</ele>
        <time>2016-05-03T12:43:28Z</time>
      </trkpt>
      <trkpt lat="45.20916" lon="0.51397">
        <ele>222</ele>
        <time>2016-05-03T12:43:33Z</time>
      </trkpt>
      <trkpt lat="45.20913" lon="0.51391">
        <ele>220</ele>
        <time>2016-05-03T12:43:38Z</time>
      </trkpt>
      <trkpt lat="45.2091" lon="0.51385">
        <ele>219</ele>
        <time>2016-05-03T12:43:42Z</time>
      </trkpt>
      <trkpt lat="45.20906" lon="0.51378">
        <ele>216</ele>
        <time>2016-05-03T12:43:46Z</time>
      </trkpt>
      <trkpt lat="45.20904" lon="0.51369">
        <ele>214</ele>
        <time>2016-05-03T12:43:51Z</time>
      </trkpt>
      <trkpt lat="45.20899" lon="0.51364">
        <ele>212</ele>
        <time>2016-05-03T12:43:55Z</time>
      </trkpt>
      <trkpt lat="45.20896" lon="0.51358">
        <ele>209</ele>
        <time>2016-05-03T12:43:59Z</time>
      </trkpt>
      <trkpt lat="45.20894" lon="0.51352">
        <ele>208</ele>
        <time>2016-05-03T12:44:03Z</time>
      </trkpt>
      <trkpt lat="45.20892" lon="0.51344">
        <ele>207</ele>
        <time>2016-05-03T12:44:08Z</time>
      </trkpt>
      <trkpt lat="45.20887" lon="0.51339">
        <ele>205</ele>
        <time>2016-05-03T12:44:13Z</time>
      </trkpt>
      <trkpt lat="45.20883" lon="0.51332">
        <ele>204</ele>
        <time>2016-05-03T12:44:17Z</time>
      </trkpt>
      <trkpt lat="45.20879" lon="0.51328">
        <ele>202</ele>
        <time>2016-05-03T12:44:22Z</time>
      </trkpt>
      <trkpt lat="45.20877" lon="0.51322">
        <ele>201</ele>
        <time>2016-05-03T12:44:26Z</time>
      </trkpt>
      <trkpt lat="45.20874" lon="0.51318">
        <ele>201</ele>
        <time>2016-05-03T12:44:31Z</time>
      </trkpt>
      <trkpt lat="45.20871" lon="0.5131">
        <ele>200</ele>
        <time>2016-05-03T12:44:36Z</time>
      </trkpt>
      <trkpt lat="45.20868" lon="0.51305">
        <ele>199</ele>
        <time>2016-05-03T12:44:40Z</time>
      </trkpt>
      <trkpt lat="45.20866" lon="0.51301">
        <ele>199</ele>
        <time>2016-05-03T12:44:44Z</time>
      </trkpt>
      <trkpt lat="45.20864" lon="0.51296">
        <ele>198</ele>
        <time>2016-05-03T12:44:49Z</time>
      </trkpt>
      <trkpt lat="45.20859" lon="0.51291">
        <ele>198</ele>
        <time>2016-05-03T12:44:53Z</time>
      </trkpt>
      <trkpt lat="45.20854" lon="0.51284">
        <ele>198</ele>
        <time>2016-05-03T12:44:58Z</time>
      </trkpt>
      <trkpt lat="45.20852" lon="0.51279">
        <ele>197</ele>
        <time>2016-05-03T12:45:02Z</time>
      </trkpt>
      <trkpt lat="45.20849" lon="0.51274">
        <ele>194</ele>
        <time>2016-05-03T12:45:06Z</time>
      </trkpt>
      <trkpt lat="45.20846" lon="0.51269">
        <ele>194</ele>
        <time>2016-05-03T12:45:11Z</time>
      </trkpt>
      <trkpt lat="45.20845" lon="0.51263">
        <ele>194</ele>
        <time>2016-05-03T12:45:16Z</time>
      </trkpt>
      <trkpt lat="45.20841" lon="0.51256">
        <ele>192</ele>
        <time>2016-05-03T12:45:21Z</time>
      </trkpt>
      <trkpt lat="45.20836" lon="0.51249">
        <ele>189</ele>
        <time>2016-05-03T12:45:26Z</time>
      </trkpt>
      <trkpt lat="45.20832" lon="0.51241">
        <ele>188</ele>
        <time>2016-05-03T12:45:31Z</time>
      </trkpt>
      <trkpt lat="45.2083" lon="0.51235">
        <ele>185</ele>
        <time>2016-05-03T12:45:35Z</time>
      </trkpt>
      <trkpt lat="45.20828" lon="0.5123">
        <ele>184</ele>
        <time>2016-05-03T12:45:39Z</time>
      </trkpt>
      <trkpt lat="45.20826" lon="0.51223">
        <ele>183</ele>
        <time>2016-05-03T12:45:43Z</time>
      </trkpt>
      <trkpt lat="45.20823" lon="0.51217">
        <ele>182</ele>
        <time>2016-05-03T12:45:47Z</time>
      </trkpt>
      <trkpt lat="45.20821" lon="0.5121">
        <ele>183</ele>
        <time>2016-05-03T12:45:52Z</time>
      </trkpt>
      <trkpt lat="45.20819" lon="0.51205">
        <ele>183</ele>
        <time>2016-05-03T12:45:56Z</time>
      </trkpt>
      <trkpt lat="45.20816" lon="0.51199">
        <ele>182</ele>
        <time>2016-05-03T12:46:00Z</time>
      </trkpt>
      <trkpt lat="45.20813" lon="0.51192">
        <ele>180</ele>
        <time>2016-05-03T12:46:05Z</time>
      </trkpt>
      <trkpt lat="45.2081" lon="0.51186">
        <ele>180</ele>
        <time>2016-05-03T12:46:10Z</time>
      </trkpt>
      <trkpt lat="45.20807" lon="0.5118">
        <ele>179</ele>
        <time>2016-05-03T12:46:14Z</time>
      </trkpt>
      <trkpt lat="45.20804" lon="0.51175">
        <ele>178</ele>
        <time>2016-05-03T12:46:18Z</time>
      </trkpt>
      <trkpt lat="45.208" lon="0.51169">
        <ele>176</ele>
        <time>2016-05-03T12:46:23Z</time>
      </trkpt>
      <trkpt lat="45.20798" lon="0.51164">
        <ele>175</ele>
        <time>2016-05-03T12:46:27Z</time>
      </trkpt>
      <trkpt lat="45.20795" lon="0.51158">
        <ele>176</ele>
        <time>2016-05-03T12:46:31Z</time>
      </trkpt>
      <trkpt lat="45.20792" lon="0.51154">
        <ele>176</ele>
        <time>2016-05-03T12:46:35Z</time>
      </trkpt>
      <trkpt lat="45.20789" lon="0.5115">
        <ele>175</ele>
        <time>2016-05-03T12:46:40Z</time>
      </trkpt>
      <trkpt lat="45.20787" lon="0.51143">
        <ele>175</ele>
        <time>2016-05-03T12:46:44Z</time>
      </trkpt>
      <trkpt lat="45.20785" lon="0.5114">
        <ele>175</ele>
        <time>2016-05-03T12:46:48Z</time>
      </trkpt>
      <trkpt lat="45.20781" lon="0.51137">
        <ele>173</ele>
        <time>2016-05-03T12:46:53Z</time>
      </trkpt>
      <trkpt lat="45.20778" lon="0.51131">
        <ele>171</ele>
        <time>2016-05-03T12:46:58Z</time>
      </trkpt>
      <trkpt lat="45.20775" lon="0.51124">
        <ele>170</ele>
        <time>2016-05-03T12:47:03Z</time>
      </trkpt>
      <trkpt lat="45.2077" lon="0.51122">
        <ele>170</ele>
        <time>2016-05-03T12:47:07Z</time>
      </trkpt>
      <trkpt lat="45.20766" lon="0.5112">
        <ele>171</ele>
        <time>2016-05-03T12:47:11Z</time>
      </trkpt>
      <trkpt lat="45.20763" lon="0.51117">
        <ele>172</ele>
        <time>2016-05-03T12:47:16Z</time>
      </trkpt>
      <trkpt lat="45.20757" lon="0.51112">
        <ele>172</ele>
        <time>2016-05-03T12:47:21Z</time>
      </trkpt>
      <trkpt lat="45.20752" lon="0.51106">
        <ele>168</ele>
        <time>2016-05-03T12:47:26Z</time>
      </trkpt>
      <trkpt lat="45.20748" lon="0.51105">
        <ele>166</ele>
        <time>2016-05-03T12:47:30Z</time>
      </trkpt>
      <trkpt lat="45.20742" lon="0.511">
        <ele>163</ele>
        <time>2016-05-03T12:47:34Z</time>
      </trkpt>
      <trkpt lat="45.20735" lon="0.511">
        <ele>161</ele>
        <time>2016-05-03T12:47:39Z</time>
      </trkpt>
      <trkpt lat="45.2073" lon="0.51103">
        <ele>161</ele>
        <time>2016-05-03T12:47:44Z</time>
      </trkpt>
      <trkpt lat="45.20728" lon="0.51105">
        <ele>163</ele>
        <time>2016-05-03T12:47:50Z</time>
      </trkpt>
      <trkpt lat="45.20725" lon="0.51109">
        <ele>166</ele>
        <time>2016-05-03T12:47:54Z</time>
      </trkpt>
      <trkpt lat="45.20721" lon="0.51112">
        <ele>169</ele>
        <time>2016-05-03T12:48:00Z</time>
      </trkpt>
      <trkpt lat="45.20718" lon="0.51116">
        <ele>171</ele>
        <time>2016-05-03T12:48:05Z</time>
      </trkpt>
      <trkpt lat="45.20714" lon="0.5112">
        <ele>174</ele>
        <time>2016-05-03T12:48:10Z</time>
      </trkpt>
      <trkpt lat="45.20712" lon="0.51124">
        <ele>176</ele>
        <time>2016-05-03T12:48:14Z</time>
      </trkpt>
      <trkpt lat="45.20709" lon="0.5113">
        <ele>176</ele>
        <time>2016-05-03T12:48:19Z</time>
      </trkpt>
      <trkpt lat="45.20707" lon="0.51137">
        <ele>179</ele>
        <time>2016-05-03T12:48:24Z</time>
      </trkpt>
      <trkpt lat="45.20706" lon="0.51141">
        <ele>183</ele>
        <time>2016-05-03T12:48:29Z</time>
      </trkpt>
      <trkpt lat="45.20705" lon="0.51147">
        <ele>184</ele>
        <time>2016-05-03T12:48:34Z</time>
      </trkpt>
      <trkpt lat="45.20702" lon="0.51152">
        <ele>187</ele>
        <time>2016-05-03T12:48:39Z</time>
      </trkpt>
      <trkpt lat="45.207" lon="0.51161">
        <ele>188</ele>
        <time>2016-05-03T12:48:44Z</time>
      </trkpt>
      <trkpt lat="45.207" lon="0.51166">
        <ele>190</ele>
        <time>2016-05-03T12:48:48Z</time>
      </trkpt>
      <trkpt lat="45.20699" lon="0.51171">
        <ele>191</ele>
        <time>2016-05-03T12:48:54Z</time>
      </trkpt>
      <trkpt lat="45.20698" lon="0.51177">
        <ele>188</ele>
        <time>2016-05-03T12:49:00Z</time>
      </trkpt>
      <trkpt lat="45.20693" lon="0.51187">
        <ele>186</ele>
        <time>2016-05-03T12:49:05Z</time>
      </trkpt>
      <trkpt lat="45.20693" lon="0.51196">
        <ele>186</ele>
        <time>2016-05-03T12:49:10Z</time>
      </trkpt>
      <trkpt lat="45.20692" lon="0.51201">
        <ele>186</ele>
        <time>2016-05-03T12:49:14Z</time>
      </trkpt>
      <trkpt lat="45.20691" lon="0.51207">
        <ele>183</ele>
        <time>2016-05-03T12:49:18Z</time>
      </trkpt>
      <trkpt lat="45.2069" lon="0.51213">
        <ele>185</ele>
        <time>2016-05-03T12:49:25Z</time>
      </trkpt>
      <trkpt lat="45.20689" lon="0.51221">
        <ele>184</ele>
        <time>2016-05-03T12:49:30Z</time>
      </trkpt>
      <trkpt lat="45.20688" lon="0.51226">
        <ele>185</ele>
        <time>2016-05-03T12:49:35Z</time>
      </trkpt>
      <trkpt lat="45.20686" lon="0.51234">
        <ele>183</ele>
        <time>2016-05-03T12:49:40Z</time>
      </trkpt>
      <trkpt lat="45.20685" lon="0.51239">
        <ele>184</ele>
        <time>2016-05-03T12:49:46Z</time>
      </trkpt>
      <trkpt lat="45.20682" lon="0.51243">
        <ele>183</ele>
        <time>2016-05-03T12:49:51Z</time>
      </trkpt>
      <trkpt lat="45.20681" lon="0.51249">
        <ele>185</ele>
        <time>2016-05-03T12:49:58Z</time>
      </trkpt>
      <trkpt lat="45.20677" lon="0.51254">
        <ele>187</ele>
        <time>2016-05-03T12:50:05Z</time>
      </trkpt>
      <trkpt lat="45.20675" lon="0.51259">
        <ele>186</ele>
        <time>2016-05-03T12:50:10Z</time>
      </trkpt>
      <trkpt lat="45.20674" lon="0.51263">
        <ele>187</ele>
        <time>2016-05-03T12:50:14Z</time>
      </trkpt>
      <trkpt lat="45.20673" lon="0.51268">
        <ele>188</ele>
        <time>2016-05-03T12:50:19Z</time>
      </trkpt>
      <trkpt lat="45.20669" lon="0.51271">
        <ele>189</ele>
        <time>2016-05-03T12:50:27Z</time>
      </trkpt>
      <trkpt lat="45.20666" lon="0.51274">
        <ele>192</ele>
        <time>2016-05-03T12:50:38Z</time>
      </trkpt>
      <trkpt lat="45.20662" lon="0.51275">
        <ele>194</ele>
        <time>2016-05-03T12:50:54Z</time>
      </trkpt>
      <trkpt lat="45.20658" lon="0.51274">
        <ele>192</ele>
        <time>2016-05-03T12:51:01Z</time>
      </trkpt>
      <trkpt lat="45.20654" lon="0.51271">
        <ele>192</ele>
        <time>2016-05-03T12:51:06Z</time>
      </trkpt>
      <trkpt lat="45.2065" lon="0.51268">
        <ele>191</ele>
        <time>2016-05-03T12:51:11Z</time>
      </trkpt>
      <trkpt lat="45.20648" lon="0.51265">
        <ele>193</ele>
        <time>2016-05-03T12:51:17Z</time>
      </trkpt>
      <trkpt lat="45.20645" lon="0.51263">
        <ele>193</ele>
        <time>2016-05-03T12:51:21Z</time>
      </trkpt>
      <trkpt lat="45.20641" lon="0.5126">
        <ele>193</ele>
        <time>2016-05-03T12:51:25Z</time>
      </trkpt>
      <trkpt lat="45.20637" lon="0.51257">
        <ele>193</ele>
        <time>2016-05-03T12:51:31Z</time>
      </trkpt>
      <trkpt lat="45.20633" lon="0.51255">
        <ele>194</ele>
        <time>2016-05-03T12:51:41Z</time>
      </trkpt>
      <trkpt lat="45.20626" lon="0.5125">
        <ele>193</ele>
        <time>2016-05-03T12:51:46Z</time>
      </trkpt>
      <trkpt lat="45.20623" lon="0.51246">
        <ele>194</ele>
        <time>2016-05-03T12:51:50Z</time>
      </trkpt>
      <trkpt lat="45.20615" lon="0.51243">
        <ele>191</ele>
        <time>2016-05-03T12:51:55Z</time>
      </trkpt>
      <trkpt lat="45.20611" lon="0.5124">
        <ele>193</ele>
        <time>2016-05-03T12:52:01Z</time>
      </trkpt>
      <trkpt lat="45.20605" lon="0.51235">
        <ele>194</ele>
        <time>2016-05-03T12:52:06Z</time>
      </trkpt>
      <trkpt lat="45.20601" lon="0.51231">
        <ele>194</ele>
        <time>2016-05-03T12:52:10Z</time>
      </trkpt>
      <trkpt lat="45.20598" lon="0.51228">
        <ele>197</ele>
        <time>2016-05-03T12:52:15Z</time>
      </trkpt>
      <trkpt lat="45.20595" lon="0.51224">
        <ele>200</ele>
        <time>2016-05-03T12:52:20Z</time>
      </trkpt>
      <trkpt lat="45.20592" lon="0.51221">
        <ele>201</ele>
        <time>2016-05-03T12:52:25Z</time>
      </trkpt>
      <trkpt lat="45.20589" lon="0.51216">
        <ele>201</ele>
        <time>2016-05-03T12:52:32Z</time>
      </trkpt>
      <trkpt lat="45.20586" lon="0.51213">
        <ele>201</ele>
        <time>2016-05-03T12:52:37Z</time>
      </trkpt>
      <trkpt lat="45.20583" lon="0.51208">
        <ele>203</ele>
        <time>2016-05-03T12:52:42Z</time>
      </trkpt>
      <trkpt lat="45.20578" lon="0.51204">
        <ele>201</ele>
        <time>2016-05-03T12:52:47Z</time>
      </trkpt>
      <trkpt lat="45.20575" lon="0.51202">
        <ele>203</ele>
        <time>2016-05-03T12:52:52Z</time>
      </trkpt>
      <trkpt lat="45.20568" lon="0.51199">
        <ele>202</ele>
        <time>2016-05-03T12:52:56Z</time>
      </trkpt>
      <trkpt lat="45.20565" lon="0.51197">
        <ele>202</ele>
        <time>2016-05-03T12:53:00Z</time>
      </trkpt>
      <trkpt lat="45.20559" lon="0.51193">
        <ele>200</ele>
        <time>2016-05-03T12:53:05Z</time>
      </trkpt>
      <trkpt lat="45.20554" lon="0.5119">
        <ele>201</ele>
        <time>2016-05-03T12:53:09Z</time>
      </trkpt>
      <trkpt lat="45.2055" lon="0.51188">
        <ele>201</ele>
        <time>2016-05-03T12:53:16Z</time>
      </trkpt>
      <trkpt lat="45.20547" lon="0.51186">
        <ele>200</ele>
        <time>2016-05-03T12:53:21Z</time>
      </trkpt>
      <trkpt lat="45.20542" lon="0.51183">
        <ele>201</ele>
        <time>2016-05-03T12:53:26Z</time>
      </trkpt>
      <trkpt lat="45.20539" lon="0.5118">
        <ele>204</ele>
        <time>2016-05-03T12:53:34Z</time>
      </trkpt>
      <trkpt lat="45.20535" lon="0.51178">
        <ele>205</ele>
        <time>2016-05-03T12:53:38Z</time>
      </trkpt>
      <trkpt lat="45.2053" lon="0.51175">
        <ele>206</ele>
        <time>2016-05-03T12:53:42Z</time>
      </trkpt>
      <trkpt lat="45.20525" lon="0.51174">
        <ele>206</ele>
        <time>2016-05-03T12:53:46Z</time>
      </trkpt>
      <trkpt lat="45.20521" lon="0.51172">
        <ele>206</ele>
        <time>2016-05-03T12:53:51Z</time>
      </trkpt>
      <trkpt lat="45.20517" lon="0.5117">
        <ele>209</ele>
        <time>2016-05-03T12:53:56Z</time>
      </trkpt>
      <trkpt lat="45.20512" lon="0.51168">
        <ele>213</ele>
        <time>2016-05-03T12:54:02Z</time>
      </trkpt>
      <trkpt lat="45.20509" lon="0.51168">
        <ele>213</ele>
        <time>2016-05-03T12:54:06Z</time>
      </trkpt>
      <trkpt lat="45.20503" lon="0.51167">
        <ele>211</ele>
        <time>2016-05-03T12:54:11Z</time>
      </trkpt>
      <trkpt lat="45.20497" lon="0.51164">
        <ele>211</ele>
        <time>2016-05-03T12:54:15Z</time>
      </trkpt>
      <trkpt lat="45.20495" lon="0.51161">
        <ele>211</ele>
        <time>2016-05-03T12:54:20Z</time>
      </trkpt>
      <trkpt lat="45.20491" lon="0.51158">
        <ele>213</ele>
        <time>2016-05-03T12:54:25Z</time>
      </trkpt>
      <trkpt lat="45.20484" lon="0.51152">
        <ele>212</ele>
        <time>2016-05-03T12:54:30Z</time>
      </trkpt>
      <trkpt lat="45.20482" lon="0.51149">
        <ele>214</ele>
        <time>2016-05-03T12:54:34Z</time>
      </trkpt>
      <trkpt lat="45.20478" lon="0.51144">
        <ele>213</ele>
        <time>2016-05-03T12:54:38Z</time>
      </trkpt>
      <trkpt lat="45.20474" lon="0.51142">
        <ele>215</ele>
        <time>2016-05-03T12:54:42Z</time>
      </trkpt>
      <trkpt lat="45.20468" lon="0.51136">
        <ele>215</ele>
        <time>2016-05-03T12:54:47Z</time>
      </trkpt>
      <trkpt lat="45.20465" lon="0.51133">
        <ele>218</ele>
        <time>2016-05-03T12:54:51Z</time>
      </trkpt>
      <trkpt lat="45.20459" lon="0.5113">
        <ele>219</ele>
        <time>2016-05-03T12:54:55Z</time>
      </trkpt>
      <trkpt lat="45.20453" lon="0.51126">
        <ele>217</ele>
        <time>2016-05-03T12:54:59Z</time>
      </trkpt>
      <trkpt lat="45.20447" lon="0.51124">
        <ele>217</ele>
        <time>2016-05-03T12:55:03Z</time>
      </trkpt>
      <trkpt lat="45.20441" lon="0.51122">
        <ele>216</ele>
        <time>2016-05-03T12:55:08Z</time>
      </trkpt>
      <trkpt lat="45.20435" lon="0.5112">
        <ele>217</ele>
        <time>2016-05-03T12:55:13Z</time>
      </trkpt>
      <trkpt lat="45.20428" lon="0.51117">
        <ele>214</ele>
        <time>2016-05-03T12:55:17Z</time>
      </trkpt>
      <trkpt lat="45.20422" lon="0.51114">
        <ele>217</ele>
        <time>2016-05-03T12:55:22Z</time>
      </trkpt>
      <trkpt lat="45.20418" lon="0.51111">
        <ele>219</ele>
        <time>2016-05-03T12:55:26Z</time>
      </trkpt>
      <trkpt lat="45.20413" lon="0.51112">
        <ele>222</ele>
        <time>2016-05-03T12:55:30Z</time>
      </trkpt>
      <trkpt lat="45.20408" lon="0.51107">
        <ele>221</ele>
        <time>2016-05-03T12:55:34Z</time>
      </trkpt>
      <trkpt lat="45.20402" lon="0.51104">
        <ele>222</ele>
        <time>2016-05-03T12:55:38Z</time>
      </trkpt>
      <trkpt lat="45.20397" lon="0.511">
        <ele>221</ele>
        <time>2016-05-03T12:55:43Z</time>
      </trkpt>
      <trkpt lat="45.20393" lon="0.51098">
        <ele>222</ele>
        <time>2016-05-03T12:55:50Z</time>
      </trkpt>
      <trkpt lat="45.20385" lon="0.51095">
        <ele>224</ele>
        <time>2016-05-03T12:55:55Z</time>
      </trkpt>
      <trkpt lat="45.20379" lon="0.51092">
        <ele>224</ele>
        <time>2016-05-03T12:55:59Z</time>
      </trkpt>
      <trkpt lat="45.20375" lon="0.5109">
        <ele>229</ele>
        <time>2016-05-03T12:56:05Z</time>
      </trkpt>
      <trkpt lat="45.20369" lon="0.51088">
        <ele>228</ele>
        <time>2016-05-03T12:56:09Z</time>
      </trkpt>
      <trkpt lat="45.20364" lon="0.51086">
        <ele>229</ele>
        <time>2016-05-03T12:56:13Z</time>
      </trkpt>
      <trkpt lat="45.20361" lon="0.51084">
        <ele>231</ele>
        <time>2016-05-03T12:56:18Z</time>
      </trkpt>
      <trkpt lat="45.20355" lon="0.51081">
        <ele>231</ele>
        <time>2016-05-03T12:56:23Z</time>
      </trkpt>
      <trkpt lat="45.2035" lon="0.51079">
        <ele>231</ele>
        <time>2016-05-03T12:56:28Z</time>
      </trkpt>
      <trkpt lat="45.20346" lon="0.51076">
        <ele>233</ele>
        <time>2016-05-03T12:56:32Z</time>
      </trkpt>
      <trkpt lat="45.20341" lon="0.51071">
        <ele>231</ele>
        <time>2016-05-03T12:56:36Z</time>
      </trkpt>
      <trkpt lat="45.20336" lon="0.51067">
        <ele>230</ele>
        <time>2016-05-03T12:56:41Z</time>
      </trkpt>
      <trkpt lat="45.20329" lon="0.5106">
        <ele>227</ele>
        <time>2016-05-03T12:56:46Z</time>
      </trkpt>
      <trkpt lat="45.20324" lon="0.51053">
        <ele>222</ele>
        <time>2016-05-03T12:56:50Z</time>
      </trkpt>
      <trkpt lat="45.20317" lon="0.51049">
        <ele>222</ele>
        <time>2016-05-03T12:56:55Z</time>
      </trkpt>
      <trkpt lat="45.20312" lon="0.51047">
        <ele>224</ele>
        <time>2016-05-03T12:56:59Z</time>
      </trkpt>
      <trkpt lat="45.20306" lon="0.51046">
        <ele>220</ele>
        <time>2016-05-03T12:57:04Z</time>
      </trkpt>
      <trkpt lat="45.20302" lon="0.51044">
        <ele>223</ele>
        <time>2016-05-03T12:57:10Z</time>
      </trkpt>
      <trkpt lat="45.20294" lon="0.51043">
        <ele>223</ele>
        <time>2016-05-03T12:57:15Z</time>
      </trkpt>
      <trkpt lat="45.20289" lon="0.51042">
        <ele>223</ele>
        <time>2016-05-03T12:57:19Z</time>
      </trkpt>
      <trkpt lat="45.20283" lon="0.51037">
        <ele>223</ele>
        <time>2016-05-03T12:57:24Z</time>
      </trkpt>
      <trkpt lat="45.20278" lon="0.51031">
        <ele>219</ele>
        <time>2016-05-03T12:57:29Z</time>
      </trkpt>
      <trkpt lat="45.20271" lon="0.51032">
        <ele>217</ele>
        <time>2016-05-03T12:57:33Z</time>
      </trkpt>
      <trkpt lat="45.20267" lon="0.51032">
        <ele>217</ele>
        <time>2016-05-03T12:57:40Z</time>
      </trkpt>
      <trkpt lat="45.20262" lon="0.51032">
        <ele>216</ele>
        <time>2016-05-03T12:57:45Z</time>
      </trkpt>
      <trkpt lat="45.20258" lon="0.51031">
        <ele>214</ele>
        <time>2016-05-03T12:57:56Z</time>
      </trkpt>
      <trkpt lat="45.20254" lon="0.51032">
        <ele>212</ele>
        <time>2016-05-03T12:58:04Z</time>
      </trkpt>
      <trkpt lat="45.20255" lon="0.51038">
        <ele>210</ele>
        <time>2016-05-03T12:58:54Z</time>
      </trkpt>
      <trkpt lat="45.20257" lon="0.51032">
        <ele>216</ele>
        <time>2016-05-03T13:02:43Z</time>
      </trkpt>
      <trkpt lat="45.20257" lon="0.51038">
        <ele>214</ele>
        <time>2016-05-03T13:04:59Z</time>
      </trkpt>
      <trkpt lat="45.2025" lon="0.51042">
        <ele>212</ele>
        <time>2016-05-03T13:05:04Z</time>
      </trkpt>
      <trkpt lat="45.20247" lon="0.51047">
        <ele>212</ele>
        <time>2016-05-03T13:05:08Z</time>
      </trkpt>
      <trkpt lat="45.20248" lon="0.51053">
        <ele>211</ele>
        <time>2016-05-03T13:05:24Z</time>
      </trkpt>
      <trkpt lat="45.20249" lon="0.51059">
        <ele>213</ele>
        <time>2016-05-03T13:06:01Z</time>
      </trkpt>
      <trkpt lat="45.20246" lon="0.51064">
        <ele>217</ele>
        <time>2016-05-03T13:06:09Z</time>
      </trkpt>
      <trkpt lat="45.20246" lon="0.5107">
        <ele>217</ele>
        <time>2016-05-03T13:06:13Z</time>
      </trkpt>
      <trkpt lat="45.20244" lon="0.51075">
        <ele>216</ele>
        <time>2016-05-03T13:06:19Z</time>
      </trkpt>
      <trkpt lat="45.20244" lon="0.5108">
        <ele>218</ele>
        <time>2016-05-03T13:06:25Z</time>
      </trkpt>
      <trkpt lat="45.20243" lon="0.51088">
        <ele>215</ele>
        <time>2016-05-03T13:06:29Z</time>
      </trkpt>
      <trkpt lat="45.20242" lon="0.51094">
        <ele>216</ele>
        <time>2016-05-03T13:06:33Z</time>
      </trkpt>
      <trkpt lat="45.20243" lon="0.51103">
        <ele>216</ele>
        <time>2016-05-03T13:06:38Z</time>
      </trkpt>
      <trkpt lat="45.20243" lon="0.51112">
        <ele>215</ele>
        <time>2016-05-03T13:06:43Z</time>
      </trkpt>
      <trkpt lat="45.20243" lon="0.51119">
        <ele>212</ele>
        <time>2016-05-03T13:06:47Z</time>
      </trkpt>
      <trkpt lat="45.20241" lon="0.51128">
        <ele>212</ele>
        <time>2016-05-03T13:06:52Z</time>
      </trkpt>
      <trkpt lat="45.2024" lon="0.51135">
        <ele>209</ele>
        <time>2016-05-03T13:06:56Z</time>
      </trkpt>
      <trkpt lat="45.20238" lon="0.5114">
        <ele>211</ele>
        <time>2016-05-03T13:07:01Z</time>
      </trkpt>
      <trkpt lat="45.2024" lon="0.51145">
        <ele>214</ele>
        <time>2016-05-03T13:07:07Z</time>
      </trkpt>
      <trkpt lat="45.20236" lon="0.5115">
        <ele>213</ele>
        <time>2016-05-03T13:07:12Z</time>
      </trkpt>
      <trkpt lat="45.20231" lon="0.51156">
        <ele>215</ele>
        <time>2016-05-03T13:07:17Z</time>
      </trkpt>
      <trkpt lat="45.20229" lon="0.5116">
        <ele>215</ele>
        <time>2016-05-03T13:07:21Z</time>
      </trkpt>
      <trkpt lat="45.20225" lon="0.51168">
        <ele>214</ele>
        <time>2016-05-03T13:07:26Z</time>
      </trkpt>
      <trkpt lat="45.20222" lon="0.51175">
        <ele>214</ele>
        <time>2016-05-03T13:07:31Z</time>
      </trkpt>
      <trkpt lat="45.2022" lon="0.51183">
        <ele>213</ele>
        <time>2016-05-03T13:07:36Z</time>
      </trkpt>
      <trkpt lat="45.20218" lon="0.51189">
        <ele>215</ele>
        <time>2016-05-03T13:07:40Z</time>
      </trkpt>
      <trkpt lat="45.20215" lon="0.51194">
        <ele>218</ele>
        <time>2016-05-03T13:07:44Z</time>
      </trkpt>
      <trkpt lat="45.20213" lon="0.51204">
        <ele>221</ele>
        <time>2016-05-03T13:07:49Z</time>
      </trkpt>
      <trkpt lat="45.20213" lon="0.5121">
        <ele>223</ele>
        <time>2016-05-03T13:07:54Z</time>
      </trkpt>
      <trkpt lat="45.20212" lon="0.51216">
        <ele>226</ele>
        <time>2016-05-03T13:07:59Z</time>
      </trkpt>
      <trkpt lat="45.20209" lon="0.51223">
        <ele>224</ele>
        <time>2016-05-03T13:08:04Z</time>
      </trkpt>
      <trkpt lat="45.20205" lon="0.51233">
        <ele>223</ele>
        <time>2016-05-03T13:08:08Z</time>
      </trkpt>
      <trkpt lat="45.20204" lon="0.51242">
        <ele>219</ele>
        <time>2016-05-03T13:08:12Z</time>
      </trkpt>
      <trkpt lat="45.20204" lon="0.51255">
        <ele>219</ele>
        <time>2016-05-03T13:08:17Z</time>
      </trkpt>
      <trkpt lat="45.20202" lon="0.5126">
        <ele>221</ele>
        <time>2016-05-03T13:08:21Z</time>
      </trkpt>
      <trkpt lat="45.20201" lon="0.51269">
        <ele>219</ele>
        <time>2016-05-03T13:08:25Z</time>
      </trkpt>
      <trkpt lat="45.20199" lon="0.51277">
        <ele>218</ele>
        <time>2016-05-03T13:08:30Z</time>
      </trkpt>
      <trkpt lat="45.20198" lon="0.51284">
        <ele>215</ele>
        <time>2016-05-03T13:08:34Z</time>
      </trkpt>
      <trkpt lat="45.202" lon="0.51294">
        <ele>214</ele>
        <time>2016-05-03T13:08:38Z</time>
      </trkpt>
      <trkpt lat="45.202" lon="0.513">
        <ele>214</ele>
        <time>2016-05-03T13:08:43Z</time>
      </trkpt>
      <trkpt lat="45.20201" lon="0.51309">
        <ele>214</ele>
        <time>2016-05-03T13:08:48Z</time>
      </trkpt>
      <trkpt lat="45.20203" lon="0.51319">
        <ele>214</ele>
        <time>2016-05-03T13:08:52Z</time>
      </trkpt>
      <trkpt lat="45.20203" lon="0.51325">
        <ele>213</ele>
        <time>2016-05-03T13:08:59Z</time>
      </trkpt>
      <trkpt lat="45.20202" lon="0.51333">
        <ele>213</ele>
        <time>2016-05-03T13:09:04Z</time>
      </trkpt>
      <trkpt lat="45.20204" lon="0.51342">
        <ele>213</ele>
        <time>2016-05-03T13:09:08Z</time>
      </trkpt>
      <trkpt lat="45.20203" lon="0.5135">
        <ele>213</ele>
        <time>2016-05-03T13:09:12Z</time>
      </trkpt>
      <trkpt lat="45.20205" lon="0.51359">
        <ele>213</ele>
        <time>2016-05-03T13:09:16Z</time>
      </trkpt>
      <trkpt lat="45.20206" lon="0.51367">
        <ele>213</ele>
        <time>2016-05-03T13:09:20Z</time>
      </trkpt>
      <trkpt lat="45.20206" lon="0.51371">
        <ele>212</ele>
        <time>2016-05-03T13:09:24Z</time>
      </trkpt>
      <trkpt lat="45.20206" lon="0.5138">
        <ele>212</ele>
        <time>2016-05-03T13:09:28Z</time>
      </trkpt>
      <trkpt lat="45.20209" lon="0.51389">
        <ele>211</ele>
        <time>2016-05-03T13:09:32Z</time>
      </trkpt>
      <trkpt lat="45.20212" lon="0.51397">
        <ele>211</ele>
        <time>2016-05-03T13:09:37Z</time>
      </trkpt>
      <trkpt lat="45.20214" lon="0.51406">
        <ele>211</ele>
        <time>2016-05-03T13:09:42Z</time>
      </trkpt>
      <trkpt lat="45.20214" lon="0.51411">
        <ele>212</ele>
        <time>2016-05-03T13:09:46Z</time>
      </trkpt>
      <trkpt lat="45.20214" lon="0.51417">
        <ele>212</ele>
        <time>2016-05-03T13:09:50Z</time>
      </trkpt>
      <trkpt lat="45.20216" lon="0.51423">
        <ele>213</ele>
        <time>2016-05-03T13:09:54Z</time>
      </trkpt>
      <trkpt lat="45.20216" lon="0.51431">
        <ele>216</ele>
        <time>2016-05-03T13:09:59Z</time>
      </trkpt>
      <trkpt lat="45.20219" lon="0.51437">
        <ele>219</ele>
        <time>2016-05-03T13:10:04Z</time>
      </trkpt>
      <trkpt lat="45.2022" lon="0.51444">
        <ele>220</ele>
        <time>2016-05-03T13:10:08Z</time>
      </trkpt>
      <trkpt lat="45.20221" lon="0.51452">
        <ele>219</ele>
        <time>2016-05-03T13:10:13Z</time>
      </trkpt>
      <trkpt lat="45.20223" lon="0.5146">
        <ele>219</ele>
        <time>2016-05-03T13:10:17Z</time>
      </trkpt>
      <trkpt lat="45.20225" lon="0.51467">
        <ele>222</ele>
        <time>2016-05-03T13:10:22Z</time>
      </trkpt>
      <trkpt lat="45.20227" lon="0.51476">
        <ele>220</ele>
        <time>2016-05-03T13:10:26Z</time>
      </trkpt>
      <trkpt lat="45.20227" lon="0.51482">
        <ele>220</ele>
        <time>2016-05-03T13:10:30Z</time>
      </trkpt>
      <trkpt lat="45.20228" lon="0.5149">
        <ele>221</ele>
        <time>2016-05-03T13:10:35Z</time>
      </trkpt>
      <trkpt lat="45.2023" lon="0.51497">
        <ele>222</ele>
        <time>2016-05-03T13:10:39Z</time>
      </trkpt>
      <trkpt lat="45.20232" lon="0.51508">
        <ele>220</ele>
        <time>2016-05-03T13:10:44Z</time>
      </trkpt>
      <trkpt lat="45.20233" lon="0.51519">
        <ele>219</ele>
        <time>2016-05-03T13:10:49Z</time>
      </trkpt>
      <trkpt lat="45.20233" lon="0.51525">
        <ele>218</ele>
        <time>2016-05-03T13:10:53Z</time>
      </trkpt>
      <trkpt lat="45.20236" lon="0.51531">
        <ele>221</ele>
        <time>2016-05-03T13:10:57Z</time>
      </trkpt>
      <trkpt lat="45.20236" lon="0.51537">
        <ele>221</ele>
        <time>2016-05-03T13:11:02Z</time>
      </trkpt>
      <trkpt lat="45.20239" lon="0.51545">
        <ele>221</ele>
        <time>2016-05-03T13:11:07Z</time>
      </trkpt>
      <trkpt lat="45.20237" lon="0.51552">
        <ele>220</ele>
        <time>2016-05-03T13:11:12Z</time>
      </trkpt>
      <trkpt lat="45.20238" lon="0.5156">
        <ele>220</ele>
        <time>2016-05-03T13:11:17Z</time>
      </trkpt>
      <trkpt lat="45.20241" lon="0.51566">
        <ele>219</ele>
        <time>2016-05-03T13:11:21Z</time>
      </trkpt>
      <trkpt lat="45.20243" lon="0.51576">
        <ele>216</ele>
        <time>2016-05-03T13:11:26Z</time>
      </trkpt>
      <trkpt lat="45.20243" lon="0.51583">
        <ele>212</ele>
        <time>2016-05-03T13:11:30Z</time>
      </trkpt>
      <trkpt lat="45.20243" lon="0.51588">
        <ele>210</ele>
        <time>2016-05-03T13:11:35Z</time>
      </trkpt>
      <trkpt lat="45.20242" lon="0.516">
        <ele>207</ele>
        <time>2016-05-03T13:11:40Z</time>
      </trkpt>
      <trkpt lat="45.20241" lon="0.51608">
        <ele>212</ele>
        <time>2016-05-03T13:11:44Z</time>
      </trkpt>
      <trkpt lat="45.20239" lon="0.51616">
        <ele>216</ele>
        <time>2016-05-03T13:11:48Z</time>
      </trkpt>
      <trkpt lat="45.2024" lon="0.51625">
        <ele>221</ele>
        <time>2016-05-03T13:11:53Z</time>
      </trkpt>
      <trkpt lat="45.20237" lon="0.51632">
        <ele>221</ele>
        <time>2016-05-03T13:11:57Z</time>
      </trkpt>
      <trkpt lat="45.20235" lon="0.51638">
        <ele>221</ele>
        <time>2016-05-03T13:12:01Z</time>
      </trkpt>
      <trkpt lat="45.20235" lon="0.51644">
        <ele>223</ele>
        <time>2016-05-03T13:12:05Z</time>
      </trkpt>
      <trkpt lat="45.2023" lon="0.51651">
        <ele>219</ele>
        <time>2016-05-03T13:12:09Z</time>
      </trkpt>
      <trkpt lat="45.20226" lon="0.51659">
        <ele>218</ele>
        <time>2016-05-03T13:12:14Z</time>
      </trkpt>
      <trkpt lat="45.20225" lon="0.51666">
        <ele>214</ele>
        <time>2016-05-03T13:12:18Z</time>
      </trkpt>
      <trkpt lat="45.20224" lon="0.51672">
        <ele>217</ele>
        <time>2016-05-03T13:12:23Z</time>
      </trkpt>
      <trkpt lat="45.20222" lon="0.51677">
        <ele>217</ele>
        <time>2016-05-03T13:12:27Z</time>
      </trkpt>
      <trkpt lat="45.2022" lon="0.51685">
        <ele>221</ele>
        <time>2016-05-03T13:12:31Z</time>
      </trkpt>
      <trkpt lat="45.20217" lon="0.51694">
        <ele>219</ele>
        <time>2016-05-03T13:12:35Z</time>
      </trkpt>
      <trkpt lat="45.20214" lon="0.51701">
        <ele>223</ele>
        <time>2016-05-03T13:12:40Z</time>
      </trkpt>
      <trkpt lat="45.20215" lon="0.5171">
        <ele>224</ele>
        <time>2016-05-03T13:12:45Z</time>
      </trkpt>
      <trkpt lat="45.20214" lon="0.51715">
        <ele>226</ele>
        <time>2016-05-03T13:12:49Z</time>
      </trkpt>
      <trkpt lat="45.20211" lon="0.51723">
        <ele>227</ele>
        <time>2016-05-03T13:12:54Z</time>
      </trkpt>
      <trkpt lat="45.20211" lon="0.51726">
        <ele>227</ele>
        <time>2016-05-03T13:12:59Z</time>
      </trkpt>
      <trkpt lat="45.20211" lon="0.51738">
        <ele>228</ele>
        <time>2016-05-03T13:13:03Z</time>
      </trkpt>
      <trkpt lat="45.2021" lon="0.5175">
        <ele>225</ele>
        <time>2016-05-03T13:13:08Z</time>
      </trkpt>
      <trkpt lat="45.20211" lon="0.51759">
        <ele>225</ele>
        <time>2016-05-03T13:13:12Z</time>
      </trkpt>
      <trkpt lat="45.20208" lon="0.51765">
        <ele>221</ele>
        <time>2016-05-03T13:13:16Z</time>
      </trkpt>
      <trkpt lat="45.20207" lon="0.51772">
        <ele>223</ele>
        <time>2016-05-03T13:13:21Z</time>
      </trkpt>
      <trkpt lat="45.20205" lon="0.51778">
        <ele>224</ele>
        <time>2016-05-03T13:13:25Z</time>
      </trkpt>
      <trkpt lat="45.20201" lon="0.51785">
        <ele>225</ele>
        <time>2016-05-03T13:13:30Z</time>
      </trkpt>
      <trkpt lat="45.20203" lon="0.51792">
        <ele>225</ele>
        <time>2016-05-03T13:13:34Z</time>
      </trkpt>
      <trkpt lat="45.20199" lon="0.51797">
        <ele>228</ele>
        <time>2016-05-03T13:13:39Z</time>
      </trkpt>
      <trkpt lat="45.20196" lon="0.51801">
        <ele>231</ele>
        <time>2016-05-03T13:13:43Z</time>
      </trkpt>
      <trkpt lat="45.20192" lon="0.51806">
        <ele>229</ele>
        <time>2016-05-03T13:13:48Z</time>
      </trkpt>
      <trkpt lat="45.2019" lon="0.51812">
        <ele>230</ele>
        <time>2016-05-03T13:13:52Z</time>
      </trkpt>
      <trkpt lat="45.20187" lon="0.51818">
        <ele>231</ele>
        <time>2016-05-03T13:13:57Z</time>
      </trkpt>
      <trkpt lat="45.20184" lon="0.51822">
        <ele>232</ele>
        <time>2016-05-03T13:14:01Z</time>
      </trkpt>
      <trkpt lat="45.20177" lon="0.51826">
        <ele>229</ele>
        <time>2016-05-03T13:14:05Z</time>
      </trkpt>
      <trkpt lat="45.20172" lon="0.51829">
        <ele>231</ele>
        <time>2016-05-03T13:14:09Z</time>
      </trkpt>
      <trkpt lat="45.20169" lon="0.51832">
        <ele>231</ele>
        <time>2016-05-03T13:14:14Z</time>
      </trkpt>
      <trkpt lat="45.20165" lon="0.51834">
        <ele>233</ele>
        <time>2016-05-03T13:14:18Z</time>
      </trkpt>
      <trkpt lat="45.20162" lon="0.51844">
        <ele>232</ele>
        <time>2016-05-03T13:14:23Z</time>
      </trkpt>
      <trkpt lat="45.20155" lon="0.51847">
        <ele>232</ele>
        <time>2016-05-03T13:14:28Z</time>
      </trkpt>
      <trkpt lat="45.2015" lon="0.51853">
        <ele>230</ele>
        <time>2016-05-03T13:14:32Z</time>
      </trkpt>
      <trkpt lat="45.20145" lon="0.51857">
        <ele>229</ele>
        <time>2016-05-03T13:14:37Z</time>
      </trkpt>
      <trkpt lat="45.20141" lon="0.51861">
        <ele>230</ele>
        <time>2016-05-03T13:14:41Z</time>
      </trkpt>
      <trkpt lat="45.20136" lon="0.51864">
        <ele>231</ele>
        <time>2016-05-03T13:14:46Z</time>
      </trkpt>
      <trkpt lat="45.20133" lon="0.51867">
        <ele>231</ele>
        <time>2016-05-03T13:14:50Z</time>
      </trkpt>
      <trkpt lat="45.20128" lon="0.51867">
        <ele>229</ele>
        <time>2016-05-03T13:14:54Z</time>
      </trkpt>
      <trkpt lat="45.20123" lon="0.51872">
        <ele>227</ele>
        <time>2016-05-03T13:14:59Z</time>
      </trkpt>
      <trkpt lat="45.20117" lon="0.51875">
        <ele>225</ele>
        <time>2016-05-03T13:15:04Z</time>
      </trkpt>
      <trkpt lat="45.20113" lon="0.51877">
        <ele>225</ele>
        <time>2016-05-03T13:15:09Z</time>
      </trkpt>
      <trkpt lat="45.20107" lon="0.51881">
        <ele>225</ele>
        <time>2016-05-03T13:15:14Z</time>
      </trkpt>
      <trkpt lat="45.20102" lon="0.51885">
        <ele>225</ele>
        <time>2016-05-03T13:15:18Z</time>
      </trkpt>
      <trkpt lat="45.20095" lon="0.51888">
        <ele>219</ele>
        <time>2016-05-03T13:15:23Z</time>
      </trkpt>
      <trkpt lat="45.2009" lon="0.51893">
        <ele>219</ele>
        <time>2016-05-03T13:15:27Z</time>
      </trkpt>
      <trkpt lat="45.20082" lon="0.51901">
        <ele>220</ele>
        <time>2016-05-03T13:15:32Z</time>
      </trkpt>
      <trkpt lat="45.20079" lon="0.51905">
        <ele>222</ele>
        <time>2016-05-03T13:15:36Z</time>
      </trkpt>
      <trkpt lat="45.20074" lon="0.51913">
        <ele>222</ele>
        <time>2016-05-03T13:15:40Z</time>
      </trkpt>
      <trkpt lat="45.20068" lon="0.51918">
        <ele>222</ele>
        <time>2016-05-03T13:15:44Z</time>
      </trkpt>
      <trkpt lat="45.20065" lon="0.51926">
        <ele>223</ele>
        <time>2016-05-03T13:15:49Z</time>
      </trkpt>
      <trkpt lat="45.20062" lon="0.51932">
        <ele>224</ele>
        <time>2016-05-03T13:15:53Z</time>
      </trkpt>
      <trkpt lat="45.2006" lon="0.51942">
        <ele>224</ele>
        <time>2016-05-03T13:15:58Z</time>
      </trkpt>
      <trkpt lat="45.20056" lon="0.51949">
        <ele>225</ele>
        <time>2016-05-03T13:16:03Z</time>
      </trkpt>
      <trkpt lat="45.20052" lon="0.51954">
        <ele>226</ele>
        <time>2016-05-03T13:16:07Z</time>
      </trkpt>
      <trkpt lat="45.20049" lon="0.5196">
        <ele>225</ele>
        <time>2016-05-03T13:16:11Z</time>
      </trkpt>
      <trkpt lat="45.20049" lon="0.51967">
        <ele>225</ele>
        <time>2016-05-03T13:16:15Z</time>
      </trkpt>
      <trkpt lat="45.20045" lon="0.51974">
        <ele>225</ele>
        <time>2016-05-03T13:16:20Z</time>
      </trkpt>
      <trkpt lat="45.20045" lon="0.51981">
        <ele>224</ele>
        <time>2016-05-03T13:16:24Z</time>
      </trkpt>
      <trkpt lat="45.20043" lon="0.51986">
        <ele>224</ele>
        <time>2016-05-03T13:16:28Z</time>
      </trkpt>
      <trkpt lat="45.20036" lon="0.51991">
        <ele>222</ele>
        <time>2016-05-03T13:16:32Z</time>
      </trkpt>
      <trkpt lat="45.20033" lon="0.51996">
        <ele>222</ele>
        <time>2016-05-03T13:16:36Z</time>
      </trkpt>
      <trkpt lat="45.20029" lon="0.52002">
        <ele>224</ele>
        <time>2016-05-03T13:16:41Z</time>
      </trkpt>
      <trkpt lat="45.20027" lon="0.52009">
        <ele>223</ele>
        <time>2016-05-03T13:16:46Z</time>
      </trkpt>
      <trkpt lat="45.20024" lon="0.52012">
        <ele>222</ele>
        <time>2016-05-03T13:16:51Z</time>
      </trkpt>
      <trkpt lat="45.2002" lon="0.52023">
        <ele>219</ele>
        <time>2016-05-03T13:16:56Z</time>
      </trkpt>
      <trkpt lat="45.20017" lon="0.5203">
        <ele>222</ele>
        <time>2016-05-03T13:17:01Z</time>
      </trkpt>
      <trkpt lat="45.20018" lon="0.52038">
        <ele>225</ele>
        <time>2016-05-03T13:17:05Z</time>
      </trkpt>
      <trkpt lat="45.20017" lon="0.52047">
        <ele>227</ele>
        <time>2016-05-03T13:17:10Z</time>
      </trkpt>
      <trkpt lat="45.20016" lon="0.52053">
        <ele>229</ele>
        <time>2016-05-03T13:17:14Z</time>
      </trkpt>
      <trkpt lat="45.20012" lon="0.52063">
        <ele>226</ele>
        <time>2016-05-03T13:17:19Z</time>
      </trkpt>
      <trkpt lat="45.20009" lon="0.52069">
        <ele>227</ele>
        <time>2016-05-03T13:17:24Z</time>
      </trkpt>
      <trkpt lat="45.20007" lon="0.52076">
        <ele>224</ele>
        <time>2016-05-03T13:17:28Z</time>
      </trkpt>
      <trkpt lat="45.20003" lon="0.52082">
        <ele>223</ele>
        <time>2016-05-03T13:17:32Z</time>
      </trkpt>
      <trkpt lat="45.20004" lon="0.52091">
        <ele>225</ele>
        <time>2016-05-03T13:17:36Z</time>
      </trkpt>
      <trkpt lat="45.20002" lon="0.521">
        <ele>226</ele>
        <time>2016-05-03T13:17:41Z</time>
      </trkpt>
      <trkpt lat="45.2" lon="0.52107">
        <ele>225</ele>
        <time>2016-05-03T13:17:45Z</time>
      </trkpt>
      <trkpt lat="45.19998" lon="0.52111">
        <ele>224</ele>
        <time>2016-05-03T13:17:51Z</time>
      </trkpt>
      <trkpt lat="45.19993" lon="0.52116">
        <ele>226</ele>
        <time>2016-05-03T13:17:56Z</time>
      </trkpt>
      <trkpt lat="45.19988" lon="0.5212">
        <ele>225</ele>
        <time>2016-05-03T13:18:01Z</time>
      </trkpt>
      <trkpt lat="45.19984" lon="0.52123">
        <ele>225</ele>
        <time>2016-05-03T13:18:05Z</time>
      </trkpt>
      <trkpt lat="45.19979" lon="0.52124">
        <ele>225</ele>
        <time>2016-05-03T13:18:10Z</time>
      </trkpt>
      <trkpt lat="45.19975" lon="0.52126">
        <ele>222</ele>
        <time>2016-05-03T13:18:17Z</time>
      </trkpt>
      <trkpt lat="45.19973" lon="0.5213">
        <ele>222</ele>
        <time>2016-05-03T13:18:43Z</time>
      </trkpt>
      <trkpt lat="45.19974" lon="0.52136">
        <ele>215</ele>
        <time>2016-05-03T13:19:36Z</time>
      </trkpt>
      <trkpt lat="45.19971" lon="0.52134">
        <ele>222</ele>
        <time>2016-05-03T13:21:10Z</time>
      </trkpt>
      <trkpt lat="45.19967" lon="0.52129">
        <ele>221</ele>
        <time>2016-05-03T13:21:15Z</time>
      </trkpt>
      <trkpt lat="45.19967" lon="0.52124">
        <ele>222</ele>
        <time>2016-05-03T13:21:19Z</time>
      </trkpt>
      <trkpt lat="45.19967" lon="0.52118">
        <ele>222</ele>
        <time>2016-05-03T13:21:24Z</time>
      </trkpt>
      <trkpt lat="45.19966" lon="0.52112">
        <ele>221</ele>
        <time>2016-05-03T13:21:28Z</time>
      </trkpt>
      <trkpt lat="45.19964" lon="0.52108">
        <ele>222</ele>
        <time>2016-05-03T13:21:32Z</time>
      </trkpt>
      <trkpt lat="45.19963" lon="0.52099">
        <ele>221</ele>
        <time>2016-05-03T13:21:37Z</time>
      </trkpt>
      <trkpt lat="45.19962" lon="0.52092">
        <ele>221</ele>
        <time>2016-05-03T13:21:42Z</time>
      </trkpt>
      <trkpt lat="45.19959" lon="0.52087">
        <ele>222</ele>
        <time>2016-05-03T13:21:46Z</time>
      </trkpt>
      <trkpt lat="45.19957" lon="0.52083">
        <ele>225</ele>
        <time>2016-05-03T13:21:50Z</time>
      </trkpt>
      <trkpt lat="45.19956" lon="0.52076">
        <ele>223</ele>
        <time>2016-05-03T13:21:54Z</time>
      </trkpt>
      <trkpt lat="45.19954" lon="0.52072">
        <ele>226</ele>
        <time>2016-05-03T13:21:59Z</time>
      </trkpt>
      <trkpt lat="45.19951" lon="0.52067">
        <ele>228</ele>
        <time>2016-05-03T13:22:03Z</time>
      </trkpt>
      <trkpt lat="45.19949" lon="0.5206">
        <ele>229</ele>
        <time>2016-05-03T13:22:07Z</time>
      </trkpt>
      <trkpt lat="45.19946" lon="0.52054">
        <ele>230</ele>
        <time>2016-05-03T13:22:12Z</time>
      </trkpt>
      <trkpt lat="45.19943" lon="0.52047">
        <ele>229</ele>
        <time>2016-05-03T13:22:16Z</time>
      </trkpt>
      <trkpt lat="45.19941" lon="0.52038">
        <ele>228</ele>
        <time>2016-05-03T13:22:21Z</time>
      </trkpt>
      <trkpt lat="45.19937" lon="0.52032">
        <ele>227</ele>
        <time>2016-05-03T13:22:25Z</time>
      </trkpt>
      <trkpt lat="45.19934" lon="0.52027">
        <ele>228</ele>
        <time>2016-05-03T13:22:29Z</time>
      </trkpt>
      <trkpt lat="45.19932" lon="0.5202">
        <ele>229</ele>
        <time>2016-05-03T13:22:34Z</time>
      </trkpt>
      <trkpt lat="45.19929" lon="0.52012">
        <ele>229</ele>
        <time>2016-05-03T13:22:38Z</time>
      </trkpt>
      <trkpt lat="45.19929" lon="0.52004">
        <ele>228</ele>
        <time>2016-05-03T13:22:43Z</time>
      </trkpt>
      <trkpt lat="45.19927" lon="0.51996">
        <ele>228</ele>
        <time>2016-05-03T13:22:47Z</time>
      </trkpt>
      <trkpt lat="45.19924" lon="0.51989">
        <ele>228</ele>
        <time>2016-05-03T13:22:51Z</time>
      </trkpt>
      <trkpt lat="45.19923" lon="0.51983">
        <ele>229</ele>
        <time>2016-05-03T13:22:55Z</time>
      </trkpt>
      <trkpt lat="45.19923" lon="0.51974">
        <ele>228</ele>
        <time>2016-05-03T13:23:00Z</time>
      </trkpt>
      <trkpt lat="45.1992" lon="0.51966">
        <ele>228</ele>
        <time>2016-05-03T13:23:04Z</time>
      </trkpt>
      <trkpt lat="45.1992" lon="0.51959">
        <ele>228</ele>
        <time>2016-05-03T13:23:09Z</time>
      </trkpt>
      <trkpt lat="45.19918" lon="0.51953">
        <ele>229</ele>
        <time>2016-05-03T13:23:13Z</time>
      </trkpt>
      <trkpt lat="45.19917" lon="0.51946">
        <ele>231</ele>
        <time>2016-05-03T13:23:18Z</time>
      </trkpt>
      <trkpt lat="45.19916" lon="0.51939">
        <ele>232</ele>
        <time>2016-05-03T13:23:22Z</time>
      </trkpt>
      <trkpt lat="45.19917" lon="0.51933">
        <ele>232</ele>
        <time>2016-05-03T13:23:26Z</time>
      </trkpt>
      <trkpt lat="45.19915" lon="0.51922">
        <ele>232</ele>
        <time>2016-05-03T13:23:31Z</time>
      </trkpt>
      <trkpt lat="45.19915" lon="0.51916">
        <ele>234</ele>
        <time>2016-05-03T13:23:35Z</time>
      </trkpt>
      <trkpt lat="45.19913" lon="0.51907">
        <ele>235</ele>
        <time>2016-05-03T13:23:40Z</time>
      </trkpt>
      <trkpt lat="45.19912" lon="0.51897">
        <ele>233</ele>
        <time>2016-05-03T13:23:44Z</time>
      </trkpt>
      <trkpt lat="45.1991" lon="0.51887">
        <ele>232</ele>
        <time>2016-05-03T13:23:49Z</time>
      </trkpt>
      <trkpt lat="45.19909" lon="0.51878">
        <ele>231</ele>
        <time>2016-05-03T13:23:54Z</time>
      </trkpt>
      <trkpt lat="45.19908" lon="0.5187">
        <ele>230</ele>
        <time>2016-05-03T13:23:58Z</time>
      </trkpt>
      <trkpt lat="45.19908" lon="0.51862">
        <ele>231</ele>
        <time>2016-05-03T13:24:02Z</time>
      </trkpt>
      <trkpt lat="45.19908" lon="0.51856">
        <ele>235</ele>
        <time>2016-05-03T13:24:07Z</time>
      </trkpt>
      <trkpt lat="45.19907" lon="0.51848">
        <ele>234</ele>
        <time>2016-05-03T13:24:11Z</time>
      </trkpt>
      <trkpt lat="45.19906" lon="0.51842">
        <ele>233</ele>
        <time>2016-05-03T13:24:15Z</time>
      </trkpt>
      <trkpt lat="45.19906" lon="0.51834">
        <ele>234</ele>
        <time>2016-05-03T13:24:20Z</time>
      </trkpt>
      <trkpt lat="45.19906" lon="0.51827">
        <ele>237</ele>
        <time>2016-05-03T13:24:25Z</time>
      </trkpt>
      <trkpt lat="45.19904" lon="0.51817">
        <ele>235</ele>
        <time>2016-05-03T13:24:30Z</time>
      </trkpt>
      <trkpt lat="45.19902" lon="0.5181">
        <ele>233</ele>
        <time>2016-05-03T13:24:34Z</time>
      </trkpt>
      <trkpt lat="45.19902" lon="0.518">
        <ele>231</ele>
        <time>2016-05-03T13:24:38Z</time>
      </trkpt>
      <trkpt lat="45.19901" lon="0.51792">
        <ele>231</ele>
        <time>2016-05-03T13:24:43Z</time>
      </trkpt>
      <trkpt lat="45.199" lon="0.51783">
        <ele>232</ele>
        <time>2016-05-03T13:24:48Z</time>
      </trkpt>
      <trkpt lat="45.19899" lon="0.51775">
        <ele>231</ele>
        <time>2016-05-03T13:24:52Z</time>
      </trkpt>
      <trkpt lat="45.19896" lon="0.51766">
        <ele>232</ele>
        <time>2016-05-03T13:24:57Z</time>
      </trkpt>
      <trkpt lat="45.19894" lon="0.51761">
        <ele>234</ele>
        <time>2016-05-03T13:25:01Z</time>
      </trkpt>
      <trkpt lat="45.19891" lon="0.5175">
        <ele>233</ele>
        <time>2016-05-03T13:25:06Z</time>
      </trkpt>
      <trkpt lat="45.19888" lon="0.51743">
        <ele>232</ele>
        <time>2016-05-03T13:25:10Z</time>
      </trkpt>
      <trkpt lat="45.19884" lon="0.51735">
        <ele>232</ele>
        <time>2016-05-03T13:25:14Z</time>
      </trkpt>
      <trkpt lat="45.19879" lon="0.51729">
        <ele>232</ele>
        <time>2016-05-03T13:25:18Z</time>
      </trkpt>
      <trkpt lat="45.1987" lon="0.51722">
        <ele>228</ele>
        <time>2016-05-03T13:25:23Z</time>
      </trkpt>
      <trkpt lat="45.19864" lon="0.51713">
        <ele>225</ele>
        <time>2016-05-03T13:25:28Z</time>
      </trkpt>
      <trkpt lat="45.19859" lon="0.51707">
        <ele>224</ele>
        <time>2016-05-03T13:25:33Z</time>
      </trkpt>
      <trkpt lat="45.19857" lon="0.517">
        <ele>225</ele>
        <time>2016-05-03T13:25:38Z</time>
      </trkpt>
      <trkpt lat="45.19852" lon="0.51697">
        <ele>222</ele>
        <time>2016-05-03T13:25:42Z</time>
      </trkpt>
      <trkpt lat="45.19848" lon="0.51694">
        <ele>221</ele>
        <time>2016-05-03T13:25:46Z</time>
      </trkpt>
      <trkpt lat="45.19841" lon="0.51689">
        <ele>218</ele>
        <time>2016-05-03T13:25:51Z</time>
      </trkpt>
      <trkpt lat="45.19837" lon="0.51684">
        <ele>216</ele>
        <time>2016-05-03T13:25:55Z</time>
      </trkpt>
      <trkpt lat="45.19832" lon="0.51681">
        <ele>214</ele>
        <time>2016-05-03T13:25:59Z</time>
      </trkpt>
      <trkpt lat="45.19828" lon="0.51674">
        <ele>215</ele>
        <time>2016-05-03T13:26:04Z</time>
      </trkpt>
      <trkpt lat="45.19824" lon="0.51671">
        <ele>216</ele>
        <time>2016-05-03T13:26:08Z</time>
      </trkpt>
      <trkpt lat="45.1982" lon="0.51667">
        <ele>216</ele>
        <time>2016-05-03T13:26:12Z</time>
      </trkpt>
      <trkpt lat="45.19813" lon="0.51664">
        <ele>214</ele>
        <time>2016-05-03T13:26:17Z</time>
      </trkpt>
      <trkpt lat="45.19808" lon="0.5166">
        <ele>213</ele>
        <time>2016-05-03T13:26:21Z</time>
      </trkpt>
      <trkpt lat="45.19805" lon="0.51656">
        <ele>214</ele>
        <time>2016-05-03T13:26:25Z</time>
      </trkpt>
      <trkpt lat="45.198" lon="0.51653">
        <ele>214</ele>
        <time>2016-05-03T13:26:29Z</time>
      </trkpt>
      <trkpt lat="45.198" lon="0.51647">
        <ele>218</ele>
        <time>2016-05-03T13:26:34Z</time>
      </trkpt>
      <trkpt lat="45.19798" lon="0.51644">
        <ele>219</ele>
        <time>2016-05-03T13:26:38Z</time>
      </trkpt>
      <trkpt lat="45.19795" lon="0.51639">
        <ele>219</ele>
        <time>2016-05-03T13:26:42Z</time>
      </trkpt>
      <trkpt lat="45.1979" lon="0.51636">
        <ele>221</ele>
        <time>2016-05-03T13:26:47Z</time>
      </trkpt>
      <trkpt lat="45.19785" lon="0.51631">
        <ele>217</ele>
        <time>2016-05-03T13:26:51Z</time>
      </trkpt>
      <trkpt lat="45.1978" lon="0.51627">
        <ele>215</ele>
        <time>2016-05-03T13:26:55Z</time>
      </trkpt>
      <trkpt lat="45.19777" lon="0.51622">
        <ele>217</ele>
        <time>2016-05-03T13:26:59Z</time>
      </trkpt>
      <trkpt lat="45.19772" lon="0.51617">
        <ele>220</ele>
        <time>2016-05-03T13:27:03Z</time>
      </trkpt>
      <trkpt lat="45.19767" lon="0.51614">
        <ele>221</ele>
        <time>2016-05-03T13:27:08Z</time>
      </trkpt>
      <trkpt lat="45.19761" lon="0.5161">
        <ele>218</ele>
        <time>2016-05-03T13:27:12Z</time>
      </trkpt>
      <trkpt lat="45.19759" lon="0.51605">
        <ele>221</ele>
        <time>2016-05-03T13:27:16Z</time>
      </trkpt>
      <trkpt lat="45.19756" lon="0.51601">
        <ele>220</ele>
        <time>2016-05-03T13:27:20Z</time>
      </trkpt>
      <trkpt lat="45.19751" lon="0.51596">
        <ele>221</ele>
        <time>2016-05-03T13:27:24Z</time>
      </trkpt>
      <trkpt lat="45.19748" lon="0.51593">
        <ele>223</ele>
        <time>2016-05-03T13:27:30Z</time>
      </trkpt>
      <trkpt lat="45.19745" lon="0.51589">
        <ele>225</ele>
        <time>2016-05-03T13:27:34Z</time>
      </trkpt>
      <trkpt lat="45.19738" lon="0.51583">
        <ele>222</ele>
        <time>2016-05-03T13:27:39Z</time>
      </trkpt>
      <trkpt lat="45.19735" lon="0.5158">
        <ele>223</ele>
        <time>2016-05-03T13:27:43Z</time>
      </trkpt>
      <trkpt lat="45.19729" lon="0.51573">
        <ele>219</ele>
        <time>2016-05-03T13:27:47Z</time>
      </trkpt>
      <trkpt lat="45.19722" lon="0.51569">
        <ele>219</ele>
        <time>2016-05-03T13:27:52Z</time>
      </trkpt>
      <trkpt lat="45.19718" lon="0.51567">
        <ele>216</ele>
        <time>2016-05-03T13:27:56Z</time>
      </trkpt>
      <trkpt lat="45.19713" lon="0.51559">
        <ele>214</ele>
        <time>2016-05-03T13:28:01Z</time>
      </trkpt>
      <trkpt lat="45.19709" lon="0.51555">
        <ele>217</ele>
        <time>2016-05-03T13:28:05Z</time>
      </trkpt>
      <trkpt lat="45.19705" lon="0.51548">
        <ele>216</ele>
        <time>2016-05-03T13:28:10Z</time>
      </trkpt>
      <trkpt lat="45.197" lon="0.51543">
        <ele>216</ele>
        <time>2016-05-03T13:28:15Z</time>
      </trkpt>
      <trkpt lat="45.19698" lon="0.51538">
        <ele>215</ele>
        <time>2016-05-03T13:28:20Z</time>
      </trkpt>
      <trkpt lat="45.19696" lon="0.51532">
        <ele>216</ele>
        <time>2016-05-03T13:28:25Z</time>
      </trkpt>
      <trkpt lat="45.19693" lon="0.51529">
        <ele>216</ele>
        <time>2016-05-03T13:28:29Z</time>
      </trkpt>
      <trkpt lat="45.19689" lon="0.5152">
        <ele>215</ele>
        <time>2016-05-03T13:28:34Z</time>
      </trkpt>
      <trkpt lat="45.19686" lon="0.51514">
        <ele>212</ele>
        <time>2016-05-03T13:28:38Z</time>
      </trkpt>
      <trkpt lat="45.19683" lon="0.51507">
        <ele>211</ele>
        <time>2016-05-03T13:28:42Z</time>
      </trkpt>
      <trkpt lat="45.19677" lon="0.51498">
        <ele>209</ele>
        <time>2016-05-03T13:28:47Z</time>
      </trkpt>
      <trkpt lat="45.19676" lon="0.51492">
        <ele>208</ele>
        <time>2016-05-03T13:28:51Z</time>
      </trkpt>
      <trkpt lat="45.19674" lon="0.51486">
        <ele>207</ele>
        <time>2016-05-03T13:28:56Z</time>
      </trkpt>
      <trkpt lat="45.19672" lon="0.5148">
        <ele>209</ele>
        <time>2016-05-03T13:29:01Z</time>
      </trkpt>
      <trkpt lat="45.19671" lon="0.51473">
        <ele>208</ele>
        <time>2016-05-03T13:29:05Z</time>
      </trkpt>
      <trkpt lat="45.19669" lon="0.51464">
        <ele>210</ele>
        <time>2016-05-03T13:29:10Z</time>
      </trkpt>
      <trkpt lat="45.19669" lon="0.51458">
        <ele>209</ele>
        <time>2016-05-03T13:29:14Z</time>
      </trkpt>
      <trkpt lat="45.19667" lon="0.51452">
        <ele>206</ele>
        <time>2016-05-03T13:29:18Z</time>
      </trkpt>
      <trkpt lat="45.19665" lon="0.51443">
        <ele>206</ele>
        <time>2016-05-03T13:29:23Z</time>
      </trkpt>
      <trkpt lat="45.19664" lon="0.51436">
        <ele>205</ele>
        <time>2016-05-03T13:29:27Z</time>
      </trkpt>
      <trkpt lat="45.19662" lon="0.5143">
        <ele>207</ele>
        <time>2016-05-03T13:29:32Z</time>
      </trkpt>
      <trkpt lat="45.1966" lon="0.51422">
        <ele>206</ele>
        <time>2016-05-03T13:29:36Z</time>
      </trkpt>
      <trkpt lat="45.19659" lon="0.51416">
        <ele>206</ele>
        <time>2016-05-03T13:29:41Z</time>
      </trkpt>
      <trkpt lat="45.19658" lon="0.51409">
        <ele>205</ele>
        <time>2016-05-03T13:29:45Z</time>
      </trkpt>
      <trkpt lat="45.19656" lon="0.51403">
        <ele>206</ele>
        <time>2016-05-03T13:29:49Z</time>
      </trkpt>
      <trkpt lat="45.19654" lon="0.51394">
        <ele>205</ele>
        <time>2016-05-03T13:29:54Z</time>
      </trkpt>
      <trkpt lat="45.19653" lon="0.51386">
        <ele>203</ele>
        <time>2016-05-03T13:29:58Z</time>
      </trkpt>
      <trkpt lat="45.19654" lon="0.5138">
        <ele>200</ele>
        <time>2016-05-03T13:30:02Z</time>
      </trkpt>
      <trkpt lat="45.19655" lon="0.51373">
        <ele>200</ele>
        <time>2016-05-03T13:30:06Z</time>
      </trkpt>
      <trkpt lat="45.19655" lon="0.51364">
        <ele>199</ele>
        <time>2016-05-03T13:30:11Z</time>
      </trkpt>
      <trkpt lat="45.19654" lon="0.51357">
        <ele>199</ele>
        <time>2016-05-03T13:30:15Z</time>
      </trkpt>
      <trkpt lat="45.19655" lon="0.5135">
        <ele>198</ele>
        <time>2016-05-03T13:30:19Z</time>
      </trkpt>
      <trkpt lat="45.19657" lon="0.5134">
        <ele>197</ele>
        <time>2016-05-03T13:30:24Z</time>
      </trkpt>
      <trkpt lat="45.1966" lon="0.51331">
        <ele>196</ele>
        <time>2016-05-03T13:30:29Z</time>
      </trkpt>
      <trkpt lat="45.19661" lon="0.51323">
        <ele>195</ele>
        <time>2016-05-03T13:30:34Z</time>
      </trkpt>
      <trkpt lat="45.19663" lon="0.51317">
        <ele>194</ele>
        <time>2016-05-03T13:30:38Z</time>
      </trkpt>
      <trkpt lat="45.19663" lon="0.5131">
        <ele>195</ele>
        <time>2016-05-03T13:30:42Z</time>
      </trkpt>
      <trkpt lat="45.19665" lon="0.51304">
        <ele>194</ele>
        <time>2016-05-03T13:30:46Z</time>
      </trkpt>
      <trkpt lat="45.19666" lon="0.51296">
        <ele>191</ele>
        <time>2016-05-03T13:30:51Z</time>
      </trkpt>
      <trkpt lat="45.19666" lon="0.5129">
        <ele>191</ele>
        <time>2016-05-03T13:30:55Z</time>
      </trkpt>
      <trkpt lat="45.19668" lon="0.51281">
        <ele>190</ele>
        <time>2016-05-03T13:31:00Z</time>
      </trkpt>
      <trkpt lat="45.1967" lon="0.51276">
        <ele>189</ele>
        <time>2016-05-03T13:31:04Z</time>
      </trkpt>
      <trkpt lat="45.19672" lon="0.51269">
        <ele>189</ele>
        <time>2016-05-03T13:31:09Z</time>
      </trkpt>
      <trkpt lat="45.19674" lon="0.51262">
        <ele>189</ele>
        <time>2016-05-03T13:31:14Z</time>
      </trkpt>
      <trkpt lat="45.19676" lon="0.51257">
        <ele>187</ele>
        <time>2016-05-03T13:31:18Z</time>
      </trkpt>
      <trkpt lat="45.19679" lon="0.51248">
        <ele>185</ele>
        <time>2016-05-03T13:31:23Z</time>
      </trkpt>
      <trkpt lat="45.19682" lon="0.51241">
        <ele>185</ele>
        <time>2016-05-03T13:31:27Z</time>
      </trkpt>
      <trkpt lat="45.19685" lon="0.51234">
        <ele>184</ele>
        <time>2016-05-03T13:31:31Z</time>
      </trkpt>
      <trkpt lat="45.19687" lon="0.51227">
        <ele>184</ele>
        <time>2016-05-03T13:31:36Z</time>
      </trkpt>
      <trkpt lat="45.19691" lon="0.51221">
        <ele>182</ele>
        <time>2016-05-03T13:31:41Z</time>
      </trkpt>
      <trkpt lat="45.19693" lon="0.51214">
        <ele>183</ele>
        <time>2016-05-03T13:31:45Z</time>
      </trkpt>
      <trkpt lat="45.19695" lon="0.51209">
        <ele>183</ele>
        <time>2016-05-03T13:31:49Z</time>
      </trkpt>
      <trkpt lat="45.19697" lon="0.51202">
        <ele>185</ele>
        <time>2016-05-03T13:31:54Z</time>
      </trkpt>
      <trkpt lat="45.19699" lon="0.51194">
        <ele>182</ele>
        <time>2016-05-03T13:31:58Z</time>
      </trkpt>
      <trkpt lat="45.19705" lon="0.51187">
        <ele>180</ele>
        <time>2016-05-03T13:32:03Z</time>
      </trkpt>
      <trkpt lat="45.19707" lon="0.5118">
        <ele>181</ele>
        <time>2016-05-03T13:32:07Z</time>
      </trkpt>
      <trkpt lat="45.19709" lon="0.5117">
        <ele>177</ele>
        <time>2016-05-03T13:32:12Z</time>
      </trkpt>
      <trkpt lat="45.1971" lon="0.51163">
        <ele>179</ele>
        <time>2016-05-03T13:32:17Z</time>
      </trkpt>
      <trkpt lat="45.19711" lon="0.51156">
        <ele>179</ele>
        <time>2016-05-03T13:32:21Z</time>
      </trkpt>
      <trkpt lat="45.19713" lon="0.51148">
        <ele>179</ele>
        <time>2016-05-03T13:32:25Z</time>
      </trkpt>
      <trkpt lat="45.19715" lon="0.51141">
        <ele>181</ele>
        <time>2016-05-03T13:32:29Z</time>
      </trkpt>
      <trkpt lat="45.19716" lon="0.51134">
        <ele>181</ele>
        <time>2016-05-03T13:32:33Z</time>
      </trkpt>
      <trkpt lat="45.1972" lon="0.51127">
        <ele>181</ele>
        <time>2016-05-03T13:32:38Z</time>
      </trkpt>
      <trkpt lat="45.19723" lon="0.5112">
        <ele>180</ele>
        <time>2016-05-03T13:32:42Z</time>
      </trkpt>
      <trkpt lat="45.19726" lon="0.51112">
        <ele>180</ele>
        <time>2016-05-03T13:32:47Z</time>
      </trkpt>
      <trkpt lat="45.19728" lon="0.51106">
        <ele>176</ele>
        <time>2016-05-03T13:32:51Z</time>
      </trkpt>
      <trkpt lat="45.1973" lon="0.51098">
        <ele>174</ele>
        <time>2016-05-03T13:32:56Z</time>
      </trkpt>
      <trkpt lat="45.19734" lon="0.51091">
        <ele>171</ele>
        <time>2016-05-03T13:33:01Z</time>
      </trkpt>
      <trkpt lat="45.19736" lon="0.51085">
        <ele>170</ele>
        <time>2016-05-03T13:33:05Z</time>
      </trkpt>
      <trkpt lat="45.19737" lon="0.51077">
        <ele>170</ele>
        <time>2016-05-03T13:33:09Z</time>
      </trkpt>
      <trkpt lat="45.19736" lon="0.51069">
        <ele>171</ele>
        <time>2016-05-03T13:33:13Z</time>
      </trkpt>
      <trkpt lat="45.19737" lon="0.5106">
        <ele>171</ele>
        <time>2016-05-03T13:33:18Z</time>
      </trkpt>
      <trkpt lat="45.19739" lon="0.51054">
        <ele>171</ele>
        <time>2016-05-03T13:33:22Z</time>
      </trkpt>
      <trkpt lat="45.19742" lon="0.51047">
        <ele>170</ele>
        <time>2016-05-03T13:33:26Z</time>
      </trkpt>
      <trkpt lat="45.19743" lon="0.5104">
        <ele>170</ele>
        <time>2016-05-03T13:33:30Z</time>
      </trkpt>
      <trkpt lat="45.19747" lon="0.51033">
        <ele>169</ele>
        <time>2016-05-03T13:33:35Z</time>
      </trkpt>
      <trkpt lat="45.19749" lon="0.51027">
        <ele>168</ele>
        <time>2016-05-03T13:33:39Z</time>
      </trkpt>
      <trkpt lat="45.19752" lon="0.51019">
        <ele>167</ele>
        <time>2016-05-03T13:33:44Z</time>
      </trkpt>
      <trkpt lat="45.19755" lon="0.51012">
        <ele>167</ele>
        <time>2016-05-03T13:33:48Z</time>
      </trkpt>
      <trkpt lat="45.19758" lon="0.51006">
        <ele>166</ele>
        <time>2016-05-03T13:33:53Z</time>
      </trkpt>
      <trkpt lat="45.1976" lon="0.50998">
        <ele>165</ele>
        <time>2016-05-03T13:33:58Z</time>
      </trkpt>
      <trkpt lat="45.19763" lon="0.50992">
        <ele>164</ele>
        <time>2016-05-03T13:34:02Z</time>
      </trkpt>
      <trkpt lat="45.19765" lon="0.50985">
        <ele>162</ele>
        <time>2016-05-03T13:34:06Z</time>
      </trkpt>
      <trkpt lat="45.19769" lon="0.50978">
        <ele>161</ele>
        <time>2016-05-03T13:34:11Z</time>
      </trkpt>
      <trkpt lat="45.19771" lon="0.50973">
        <ele>160</ele>
        <time>2016-05-03T13:34:15Z</time>
      </trkpt>
      <trkpt lat="45.19775" lon="0.50968">
        <ele>159</ele>
        <time>2016-05-03T13:34:19Z</time>
      </trkpt>
      <trkpt lat="45.19779" lon="0.50963">
        <ele>159</ele>
        <time>2016-05-03T13:34:24Z</time>
      </trkpt>
      <trkpt lat="45.19785" lon="0.50958">
        <ele>159</ele>
        <time>2016-05-03T13:34:29Z</time>
      </trkpt>
      <trkpt lat="45.19789" lon="0.50956">
        <ele>159</ele>
        <time>2016-05-03T13:34:33Z</time>
      </trkpt>
      <trkpt lat="45.19795" lon="0.50952">
        <ele>156</ele>
        <time>2016-05-03T13:34:38Z</time>
      </trkpt>
      <trkpt lat="45.198" lon="0.5095">
        <ele>154</ele>
        <time>2016-05-03T13:34:42Z</time>
      </trkpt>
      <trkpt lat="45.19804" lon="0.50947">
        <ele>153</ele>
        <time>2016-05-03T13:34:46Z</time>
      </trkpt>
      <trkpt lat="45.19811" lon="0.50944">
        <ele>151</ele>
        <time>2016-05-03T13:34:50Z</time>
      </trkpt>
      <trkpt lat="45.19814" lon="0.5094">
        <ele>153</ele>
        <time>2016-05-03T13:34:54Z</time>
      </trkpt>
      <trkpt lat="45.19819" lon="0.50936">
        <ele>151</ele>
        <time>2016-05-03T13:34:58Z</time>
      </trkpt>
      <trkpt lat="45.19823" lon="0.50934">
        <ele>153</ele>
        <time>2016-05-03T13:35:03Z</time>
      </trkpt>
      <trkpt lat="45.19827" lon="0.50931">
        <ele>153</ele>
        <time>2016-05-03T13:35:08Z</time>
      </trkpt>
      <trkpt lat="45.19833" lon="0.50925">
        <ele>152</ele>
        <time>2016-05-03T13:35:13Z</time>
      </trkpt>
      <trkpt lat="45.19837" lon="0.50923">
        <ele>155</ele>
        <time>2016-05-03T13:35:18Z</time>
      </trkpt>
      <trkpt lat="45.1984" lon="0.50917">
        <ele>158</ele>
        <time>2016-05-03T13:35:22Z</time>
      </trkpt>
      <trkpt lat="45.19845" lon="0.5091">
        <ele>155</ele>
        <time>2016-05-03T13:35:27Z</time>
      </trkpt>
      <trkpt lat="45.19848" lon="0.50905">
        <ele>155</ele>
        <time>2016-05-03T13:35:32Z</time>
      </trkpt>
      <trkpt lat="45.19852" lon="0.50895">
        <ele>153</ele>
        <time>2016-05-03T13:35:37Z</time>
      </trkpt>
      <trkpt lat="45.19854" lon="0.50886">
        <ele>152</ele>
        <time>2016-05-03T13:35:41Z</time>
      </trkpt>
      <trkpt lat="45.19856" lon="0.50878">
        <ele>153</ele>
        <time>2016-05-03T13:35:46Z</time>
      </trkpt>
      <trkpt lat="45.19856" lon="0.50871">
        <ele>152</ele>
        <time>2016-05-03T13:35:50Z</time>
      </trkpt>
      <trkpt lat="45.19855" lon="0.50863">
        <ele>152</ele>
        <time>2016-05-03T13:35:54Z</time>
      </trkpt>
      <trkpt lat="45.19853" lon="0.50856">
        <ele>152</ele>
        <time>2016-05-03T13:35:59Z</time>
      </trkpt>
      <trkpt lat="45.19853" lon="0.50849">
        <ele>152</ele>
        <time>2016-05-03T13:36:03Z</time>
      </trkpt>
      <trkpt lat="45.19852" lon="0.50841">
        <ele>150</ele>
        <time>2016-05-03T13:36:07Z</time>
      </trkpt>
      <trkpt lat="45.1985" lon="0.50833">
        <ele>150</ele>
        <time>2016-05-03T13:36:12Z</time>
      </trkpt>
      <trkpt lat="45.19849" lon="0.50828">
        <ele>151</ele>
        <time>2016-05-03T13:36:16Z</time>
      </trkpt>
      <trkpt lat="45.19846" lon="0.50822">
        <ele>151</ele>
        <time>2016-05-03T13:36:20Z</time>
      </trkpt>
      <trkpt lat="45.19844" lon="0.50812">
        <ele>152</ele>
        <time>2016-05-03T13:36:25Z</time>
      </trkpt>
      <trkpt lat="45.19843" lon="0.50806">
        <ele>154</ele>
        <time>2016-05-03T13:36:30Z</time>
      </trkpt>
      <trkpt lat="45.19838" lon="0.50798">
        <ele>156</ele>
        <time>2016-05-03T13:36:34Z</time>
      </trkpt>
      <trkpt lat="45.19838" lon="0.50791">
        <ele>156</ele>
        <time>2016-05-03T13:36:39Z</time>
      </trkpt>
      <trkpt lat="45.19835" lon="0.50783">
        <ele>157</ele>
        <time>2016-05-03T13:36:43Z</time>
      </trkpt>
      <trkpt lat="45.1983" lon="0.50778">
        <ele>156</ele>
        <time>2016-05-03T13:36:47Z</time>
      </trkpt>
      <trkpt lat="45.19829" lon="0.50773">
        <ele>156</ele>
        <time>2016-05-03T13:36:51Z</time>
      </trkpt>
      <trkpt lat="45.19825" lon="0.50769">
        <ele>158</ele>
        <time>2016-05-03T13:36:55Z</time>
      </trkpt>
      <trkpt lat="45.19821" lon="0.50767">
        <ele>159</ele>
        <time>2016-05-03T13:36:59Z</time>
      </trkpt>
      <trkpt lat="45.19817" lon="0.50762">
        <ele>162</ele>
        <time>2016-05-03T13:37:04Z</time>
      </trkpt>
      <trkpt lat="45.1981" lon="0.50758">
        <ele>161</ele>
        <time>2016-05-03T13:37:08Z</time>
      </trkpt>
      <trkpt lat="45.19802" lon="0.5076">
        <ele>160</ele>
        <time>2016-05-03T13:37:12Z</time>
      </trkpt>
      <trkpt lat="45.19801" lon="0.50757">
        <ele>164</ele>
        <time>2016-05-03T13:37:17Z</time>
      </trkpt>
      <trkpt lat="45.19796" lon="0.50751">
        <ele>167</ele>
        <time>2016-05-03T13:37:22Z</time>
      </trkpt>
      <trkpt lat="45.19793" lon="0.50748">
        <ele>167</ele>
        <time>2016-05-03T13:37:26Z</time>
      </trkpt>
      <trkpt lat="45.19783" lon="0.5075">
        <ele>166</ele>
        <time>2016-05-03T13:37:31Z</time>
      </trkpt>
      <trkpt lat="45.19778" lon="0.50752">
        <ele>168</ele>
        <time>2016-05-03T13:37:36Z</time>
      </trkpt>
      <trkpt lat="45.19773" lon="0.50752">
        <ele>168</ele>
        <time>2016-05-03T13:37:40Z</time>
      </trkpt>
      <trkpt lat="45.19769" lon="0.50756">
        <ele>169</ele>
        <time>2016-05-03T13:37:45Z</time>
      </trkpt>
      <trkpt lat="45.19765" lon="0.50756">
        <ele>173</ele>
        <time>2016-05-03T13:37:49Z</time>
      </trkpt>
      <trkpt lat="45.19759" lon="0.5076">
        <ele>173</ele>
        <time>2016-05-03T13:37:53Z</time>
      </trkpt>
      <trkpt lat="45.19755" lon="0.50761">
        <ele>175</ele>
        <time>2016-05-03T13:37:57Z</time>
      </trkpt>
      <trkpt lat="45.1975" lon="0.50763">
        <ele>176</ele>
        <time>2016-05-03T13:38:02Z</time>
      </trkpt>
      <trkpt lat="45.19743" lon="0.50765">
        <ele>173</ele>
        <time>2016-05-03T13:38:06Z</time>
      </trkpt>
      <trkpt lat="45.19738" lon="0.50766">
        <ele>173</ele>
        <time>2016-05-03T13:38:11Z</time>
      </trkpt>
      <trkpt lat="45.19734" lon="0.50765">
        <ele>174</ele>
        <time>2016-05-03T13:38:15Z</time>
      </trkpt>
      <trkpt lat="45.19726" lon="0.50766">
        <ele>176</ele>
        <time>2016-05-03T13:38:20Z</time>
      </trkpt>
      <trkpt lat="45.19719" lon="0.50767">
        <ele>177</ele>
        <time>2016-05-03T13:38:24Z</time>
      </trkpt>
      <trkpt lat="45.19714" lon="0.5077">
        <ele>176</ele>
        <time>2016-05-03T13:38:28Z</time>
      </trkpt>
      <trkpt lat="45.19705" lon="0.50771">
        <ele>175</ele>
        <time>2016-05-03T13:38:33Z</time>
      </trkpt>
      <trkpt lat="45.197" lon="0.50773">
        <ele>175</ele>
        <time>2016-05-03T13:38:37Z</time>
      </trkpt>
      <trkpt lat="45.19694" lon="0.50775">
        <ele>176</ele>
        <time>2016-05-03T13:38:41Z</time>
      </trkpt>
      <trkpt lat="45.19686" lon="0.50779">
        <ele>178</ele>
        <time>2016-05-03T13:38:46Z</time>
      </trkpt>
      <trkpt lat="45.1968" lon="0.50781">
        <ele>178</ele>
        <time>2016-05-03T13:38:50Z</time>
      </trkpt>
      <trkpt lat="45.19674" lon="0.50784">
        <ele>178</ele>
        <time>2016-05-03T13:38:54Z</time>
      </trkpt>
      <trkpt lat="45.19668" lon="0.50788">
        <ele>179</ele>
        <time>2016-05-03T13:38:59Z</time>
      </trkpt>
      <trkpt lat="45.19663" lon="0.50792">
        <ele>180</ele>
        <time>2016-05-03T13:39:03Z</time>
      </trkpt>
      <trkpt lat="45.19659" lon="0.50796">
        <ele>181</ele>
        <time>2016-05-03T13:39:07Z</time>
      </trkpt>
      <trkpt lat="45.19655" lon="0.50802">
        <ele>180</ele>
        <time>2016-05-03T13:39:11Z</time>
      </trkpt>
      <trkpt lat="45.19648" lon="0.50806">
        <ele>179</ele>
        <time>2016-05-03T13:39:15Z</time>
      </trkpt>
      <trkpt lat="45.1964" lon="0.50812">
        <ele>179</ele>
        <time>2016-05-03T13:39:20Z</time>
      </trkpt>
      <trkpt lat="45.19635" lon="0.50817">
        <ele>181</ele>
        <time>2016-05-03T13:39:24Z</time>
      </trkpt>
      <trkpt lat="45.19629" lon="0.50819">
        <ele>182</ele>
        <time>2016-05-03T13:39:28Z</time>
      </trkpt>
      <trkpt lat="45.19623" lon="0.50818">
        <ele>182</ele>
        <time>2016-05-03T13:39:32Z</time>
      </trkpt>
      <trkpt lat="45.19617" lon="0.50819">
        <ele>184</ele>
        <time>2016-05-03T13:39:36Z</time>
      </trkpt>
      <trkpt lat="45.19609" lon="0.5082">
        <ele>182</ele>
        <time>2016-05-03T13:39:40Z</time>
      </trkpt>
      <trkpt lat="45.19602" lon="0.50821">
        <ele>179</ele>
        <time>2016-05-03T13:39:45Z</time>
      </trkpt>
      <trkpt lat="45.19597" lon="0.5082">
        <ele>180</ele>
        <time>2016-05-03T13:39:49Z</time>
      </trkpt>
      <trkpt lat="45.1959" lon="0.50821">
        <ele>181</ele>
        <time>2016-05-03T13:39:53Z</time>
      </trkpt>
      <trkpt lat="45.19584" lon="0.50825">
        <ele>181</ele>
        <time>2016-05-03T13:39:58Z</time>
      </trkpt>
      <trkpt lat="45.19578" lon="0.50826">
        <ele>182</ele>
        <time>2016-05-03T13:40:02Z</time>
      </trkpt>
      <trkpt lat="45.19571" lon="0.50828">
        <ele>182</ele>
        <time>2016-05-03T13:40:06Z</time>
      </trkpt>
      <trkpt lat="45.19564" lon="0.50832">
        <ele>182</ele>
        <time>2016-05-03T13:40:11Z</time>
      </trkpt>
      <trkpt lat="45.1956" lon="0.50837">
        <ele>181</ele>
        <time>2016-05-03T13:40:16Z</time>
      </trkpt>
      <trkpt lat="45.19563" lon="0.50831">
        <ele>178</ele>
        <time>2016-05-03T13:40:24Z</time>
      </trkpt>
      <trkpt lat="45.19568" lon="0.5083">
        <ele>177</ele>
        <time>2016-05-03T13:40:28Z</time>
      </trkpt>
      <trkpt lat="45.19573" lon="0.50827">
        <ele>175</ele>
        <time>2016-05-03T13:40:32Z</time>
      </trkpt>
      <trkpt lat="45.19577" lon="0.50825">
        <ele>173</ele>
        <time>2016-05-03T13:40:41Z</time>
      </trkpt>
      <trkpt lat="45.19576" lon="0.5082">
        <ele>173</ele>
        <time>2016-05-03T13:40:46Z</time>
      </trkpt>
      <trkpt lat="45.19571" lon="0.50815">
        <ele>175</ele>
        <time>2016-05-03T13:40:51Z</time>
      </trkpt>
      <trkpt lat="45.19568" lon="0.50811">
        <ele>177</ele>
        <time>2016-05-03T13:40:58Z</time>
      </trkpt>
      <trkpt lat="45.19564" lon="0.50805">
        <ele>177</ele>
        <time>2016-05-03T13:41:03Z</time>
      </trkpt>
      <trkpt lat="45.19561" lon="0.50801">
        <ele>177</ele>
        <time>2016-05-03T13:41:09Z</time>
      </trkpt>
      <trkpt lat="45.19558" lon="0.50793">
        <ele>176</ele>
        <time>2016-05-03T13:41:13Z</time>
      </trkpt>
      <trkpt lat="45.19553" lon="0.50793">
        <ele>178</ele>
        <time>2016-05-03T13:41:17Z</time>
      </trkpt>
      <trkpt lat="45.19549" lon="0.50789">
        <ele>177</ele>
        <time>2016-05-03T13:41:21Z</time>
      </trkpt>
      <trkpt lat="45.19545" lon="0.50787">
        <ele>176</ele>
        <time>2016-05-03T13:41:27Z</time>
      </trkpt>
      <trkpt lat="45.1954" lon="0.50785">
        <ele>179</ele>
        <time>2016-05-03T13:41:32Z</time>
      </trkpt>
      <trkpt lat="45.19536" lon="0.50781">
        <ele>177</ele>
        <time>2016-05-03T13:41:37Z</time>
      </trkpt>
      <trkpt lat="45.19531" lon="0.50779">
        <ele>176</ele>
        <time>2016-05-03T13:41:41Z</time>
      </trkpt>
      <trkpt lat="45.19527" lon="0.50777">
        <ele>180</ele>
        <time>2016-05-03T13:41:47Z</time>
      </trkpt>
      <trkpt lat="45.19522" lon="0.50778">
        <ele>180</ele>
        <time>2016-05-03T13:41:52Z</time>
      </trkpt>
      <trkpt lat="45.19517" lon="0.50778">
        <ele>180</ele>
        <time>2016-05-03T13:41:57Z</time>
      </trkpt>
      <trkpt lat="45.19512" lon="0.50778">
        <ele>184</ele>
        <time>2016-05-03T13:42:05Z</time>
      </trkpt>
      <trkpt lat="45.19508" lon="0.50778">
        <ele>186</ele>
        <time>2016-05-03T13:42:09Z</time>
      </trkpt>
      <trkpt lat="45.19502" lon="0.50776">
        <ele>185</ele>
        <time>2016-05-03T13:42:13Z</time>
      </trkpt>
      <trkpt lat="45.19495" lon="0.50775">
        <ele>184</ele>
        <time>2016-05-03T13:42:18Z</time>
      </trkpt>
      <trkpt lat="45.19491" lon="0.50775">
        <ele>187</ele>
        <time>2016-05-03T13:42:24Z</time>
      </trkpt>
      <trkpt lat="45.19485" lon="0.50773">
        <ele>186</ele>
        <time>2016-05-03T13:42:29Z</time>
      </trkpt>
      <trkpt lat="45.1948" lon="0.50774">
        <ele>186</ele>
        <time>2016-05-03T13:42:33Z</time>
      </trkpt>
      <trkpt lat="45.19475" lon="0.50773">
        <ele>191</ele>
        <time>2016-05-03T13:42:38Z</time>
      </trkpt>
      <trkpt lat="45.19469" lon="0.50774">
        <ele>191</ele>
        <time>2016-05-03T13:42:42Z</time>
      </trkpt>
      <trkpt lat="45.19461" lon="0.50773">
        <ele>193</ele>
        <time>2016-05-03T13:42:47Z</time>
      </trkpt>
      <trkpt lat="45.19457" lon="0.50773">
        <ele>194</ele>
        <time>2016-05-03T13:42:51Z</time>
      </trkpt>
      <trkpt lat="45.19451" lon="0.50775">
        <ele>194</ele>
        <time>2016-05-03T13:42:55Z</time>
      </trkpt>
      <trkpt lat="45.19445" lon="0.50776">
        <ele>194</ele>
        <time>2016-05-03T13:43:00Z</time>
      </trkpt>
      <trkpt lat="45.19441" lon="0.50778">
        <ele>195</ele>
        <time>2016-05-03T13:43:04Z</time>
      </trkpt>
      <trkpt lat="45.19433" lon="0.5078">
        <ele>193</ele>
        <time>2016-05-03T13:43:08Z</time>
      </trkpt>
      <trkpt lat="45.1943" lon="0.50783">
        <ele>194</ele>
        <time>2016-05-03T13:43:14Z</time>
      </trkpt>
      <trkpt lat="45.19426" lon="0.50785">
        <ele>194</ele>
        <time>2016-05-03T13:43:18Z</time>
      </trkpt>
      <trkpt lat="45.19422" lon="0.50786">
        <ele>195</ele>
        <time>2016-05-03T13:43:23Z</time>
      </trkpt>
      <trkpt lat="45.19418" lon="0.50788">
        <ele>195</ele>
        <time>2016-05-03T13:43:30Z</time>
      </trkpt>
      <trkpt lat="45.19411" lon="0.5079">
        <ele>195</ele>
        <time>2016-05-03T13:43:35Z</time>
      </trkpt>
      <trkpt lat="45.19407" lon="0.50792">
        <ele>196</ele>
        <time>2016-05-03T13:43:39Z</time>
      </trkpt>
      <trkpt lat="45.19397" lon="0.50796">
        <ele>193</ele>
        <time>2016-05-03T13:43:44Z</time>
      </trkpt>
      <trkpt lat="45.19392" lon="0.50798">
        <ele>194</ele>
        <time>2016-05-03T13:43:49Z</time>
      </trkpt>
      <trkpt lat="45.19389" lon="0.50799">
        <ele>194</ele>
        <time>2016-05-03T13:43:58Z</time>
      </trkpt>
      <trkpt lat="45.1938" lon="0.50802">
        <ele>195</ele>
        <time>2016-05-03T13:44:03Z</time>
      </trkpt>
      <trkpt lat="45.19375" lon="0.50803">
        <ele>200</ele>
        <time>2016-05-03T13:44:07Z</time>
      </trkpt>
      <trkpt lat="45.1937" lon="0.50804">
        <ele>201</ele>
        <time>2016-05-03T13:44:11Z</time>
      </trkpt>
      <trkpt lat="45.19367" lon="0.50805">
        <ele>202</ele>
        <time>2016-05-03T13:44:22Z</time>
      </trkpt>
      <trkpt lat="45.19358" lon="0.50808">
        <ele>199</ele>
        <time>2016-05-03T13:44:27Z</time>
      </trkpt>
      <trkpt lat="45.19351" lon="0.50807">
        <ele>199</ele>
        <time>2016-05-03T13:44:32Z</time>
      </trkpt>
      <trkpt lat="45.19347" lon="0.50808">
        <ele>200</ele>
        <time>2016-05-03T13:44:37Z</time>
      </trkpt>
      <trkpt lat="45.19341" lon="0.50809">
        <ele>199</ele>
        <time>2016-05-03T13:44:42Z</time>
      </trkpt>
      <trkpt lat="45.19335" lon="0.50809">
        <ele>198</ele>
        <time>2016-05-03T13:44:46Z</time>
      </trkpt>
      <trkpt lat="45.19329" lon="0.50807">
        <ele>200</ele>
        <time>2016-05-03T13:44:50Z</time>
      </trkpt>
      <trkpt lat="45.19325" lon="0.50807">
        <ele>200</ele>
        <time>2016-05-03T13:44:55Z</time>
      </trkpt>
      <trkpt lat="45.19321" lon="0.50808">
        <ele>200</ele>
        <time>2016-05-03T13:45:00Z</time>
      </trkpt>
      <trkpt lat="45.19314" lon="0.50808">
        <ele>196</ele>
        <time>2016-05-03T13:45:04Z</time>
      </trkpt>
      <trkpt lat="45.1931" lon="0.50807">
        <ele>196</ele>
        <time>2016-05-03T13:45:08Z</time>
      </trkpt>
      <trkpt lat="45.19304" lon="0.50808">
        <ele>196</ele>
        <time>2016-05-03T13:45:13Z</time>
      </trkpt>
      <trkpt lat="45.193" lon="0.50809">
        <ele>195</ele>
        <time>2016-05-03T13:45:18Z</time>
      </trkpt>
      <trkpt lat="45.19293" lon="0.50809">
        <ele>195</ele>
        <time>2016-05-03T13:45:23Z</time>
      </trkpt>
      <trkpt lat="45.19288" lon="0.50808">
        <ele>197</ele>
        <time>2016-05-03T13:45:28Z</time>
      </trkpt>
      <trkpt lat="45.19283" lon="0.50806">
        <ele>199</ele>
        <time>2016-05-03T13:45:33Z</time>
      </trkpt>
      <trkpt lat="45.19279" lon="0.50803">
        <ele>199</ele>
        <time>2016-05-03T13:45:37Z</time>
      </trkpt>
      <trkpt lat="45.19273" lon="0.508">
        <ele>198</ele>
        <time>2016-05-03T13:45:42Z</time>
      </trkpt>
      <trkpt lat="45.19268" lon="0.508">
        <ele>196</ele>
        <time>2016-05-03T13:45:46Z</time>
      </trkpt>
      <trkpt lat="45.19263" lon="0.50797">
        <ele>197</ele>
        <time>2016-05-03T13:45:51Z</time>
      </trkpt>
      <trkpt lat="45.19259" lon="0.50795">
        <ele>198</ele>
        <time>2016-05-03T13:45:55Z</time>
      </trkpt>
      <trkpt lat="45.19254" lon="0.50793">
        <ele>196</ele>
        <time>2016-05-03T13:45:59Z</time>
      </trkpt>
      <trkpt lat="45.19251" lon="0.50791">
        <ele>197</ele>
        <time>2016-05-03T13:46:04Z</time>
      </trkpt>
      <trkpt lat="45.19246" lon="0.50791">
        <ele>195</ele>
        <time>2016-05-03T13:46:09Z</time>
      </trkpt>
      <trkpt lat="45.1924" lon="0.50791">
        <ele>196</ele>
        <time>2016-05-03T13:46:13Z</time>
      </trkpt>
      <trkpt lat="45.19234" lon="0.50788">
        <ele>197</ele>
        <time>2016-05-03T13:46:17Z</time>
      </trkpt>
      <trkpt lat="45.1923" lon="0.50785">
        <ele>198</ele>
        <time>2016-05-03T13:46:23Z</time>
      </trkpt>
      <trkpt lat="45.19223" lon="0.50783">
        <ele>194</ele>
        <time>2016-05-03T13:46:27Z</time>
      </trkpt>
      <trkpt lat="45.1922" lon="0.50776">
        <ele>195</ele>
        <time>2016-05-03T13:46:31Z</time>
      </trkpt>
      <trkpt lat="45.19217" lon="0.50775">
        <ele>196</ele>
        <time>2016-05-03T13:46:35Z</time>
      </trkpt>
      <trkpt lat="45.19214" lon="0.50769">
        <ele>198</ele>
        <time>2016-05-03T13:46:40Z</time>
      </trkpt>
      <trkpt lat="45.1921" lon="0.50767">
        <ele>198</ele>
        <time>2016-05-03T13:46:44Z</time>
      </trkpt>
      <trkpt lat="45.19206" lon="0.50764">
        <ele>197</ele>
        <time>2016-05-03T13:46:50Z</time>
      </trkpt>
      <trkpt lat="45.19197" lon="0.50761">
        <ele>199</ele>
        <time>2016-05-03T13:46:55Z</time>
      </trkpt>
      <trkpt lat="45.19187" lon="0.5076">
        <ele>197</ele>
        <time>2016-05-03T13:47:00Z</time>
      </trkpt>
      <trkpt lat="45.19181" lon="0.50759">
        <ele>197</ele>
        <time>2016-05-03T13:47:04Z</time>
      </trkpt>
      <trkpt lat="45.19175" lon="0.50756">
        <ele>199</ele>
        <time>2016-05-03T13:47:09Z</time>
      </trkpt>
      <trkpt lat="45.19172" lon="0.50754">
        <ele>199</ele>
        <time>2016-05-03T13:47:14Z</time>
      </trkpt>
      <trkpt lat="45.19167" lon="0.50752">
        <ele>199</ele>
        <time>2016-05-03T13:47:18Z</time>
      </trkpt>
      <trkpt lat="45.19163" lon="0.50751">
        <ele>199</ele>
        <time>2016-05-03T13:47:23Z</time>
      </trkpt>
      <trkpt lat="45.19159" lon="0.50747">
        <ele>199</ele>
        <time>2016-05-03T13:47:27Z</time>
      </trkpt>
      <trkpt lat="45.19156" lon="0.50742">
        <ele>199</ele>
        <time>2016-05-03T13:47:32Z</time>
      </trkpt>
      <trkpt lat="45.19153" lon="0.50739">
        <ele>199</ele>
        <time>2016-05-03T13:47:37Z</time>
      </trkpt>
      <trkpt lat="45.19149" lon="0.50735">
        <ele>201</ele>
        <time>2016-05-03T13:47:42Z</time>
      </trkpt>
      <trkpt lat="45.19144" lon="0.50733">
        <ele>201</ele>
        <time>2016-05-03T13:47:46Z</time>
      </trkpt>
      <trkpt lat="45.19138" lon="0.50729">
        <ele>200</ele>
        <time>2016-05-03T13:47:51Z</time>
      </trkpt>
      <trkpt lat="45.19132" lon="0.50726">
        <ele>200</ele>
        <time>2016-05-03T13:47:56Z</time>
      </trkpt>
      <trkpt lat="45.19127" lon="0.50724">
        <ele>200</ele>
        <time>2016-05-03T13:48:00Z</time>
      </trkpt>
      <trkpt lat="45.19123" lon="0.5072">
        <ele>201</ele>
        <time>2016-05-03T13:48:05Z</time>
      </trkpt>
      <trkpt lat="45.19118" lon="0.50717">
        <ele>200</ele>
        <time>2016-05-03T13:48:09Z</time>
      </trkpt>
      <trkpt lat="45.19114" lon="0.50716">
        <ele>197</ele>
        <time>2016-05-03T13:48:13Z</time>
      </trkpt>
      <trkpt lat="45.1911" lon="0.50714">
        <ele>195</ele>
        <time>2016-05-03T13:48:18Z</time>
      </trkpt>
      <trkpt lat="45.19104" lon="0.5071">
        <ele>195</ele>
        <time>2016-05-03T13:48:23Z</time>
      </trkpt>
      <trkpt lat="45.191" lon="0.50705">
        <ele>197</ele>
        <time>2016-05-03T13:48:28Z</time>
      </trkpt>
      <trkpt lat="45.19097" lon="0.50703">
        <ele>196</ele>
        <time>2016-05-03T13:48:36Z</time>
      </trkpt>
      <trkpt lat="45.19093" lon="0.50701">
        <ele>197</ele>
        <time>2016-05-03T13:48:40Z</time>
      </trkpt>
      <trkpt lat="45.19088" lon="0.50698">
        <ele>202</ele>
        <time>2016-05-03T13:48:44Z</time>
      </trkpt>
      <trkpt lat="45.19084" lon="0.50696">
        <ele>203</ele>
        <time>2016-05-03T13:48:49Z</time>
      </trkpt>
      <trkpt lat="45.19078" lon="0.50694">
        <ele>202</ele>
        <time>2016-05-03T13:48:54Z</time>
      </trkpt>
      <trkpt lat="45.19073" lon="0.50691">
        <ele>202</ele>
        <time>2016-05-03T13:48:58Z</time>
      </trkpt>
      <trkpt lat="45.19069" lon="0.5069">
        <ele>202</ele>
        <time>2016-05-03T13:49:03Z</time>
      </trkpt>
      <trkpt lat="45.19065" lon="0.50688">
        <ele>201</ele>
        <time>2016-05-03T13:49:07Z</time>
      </trkpt>
      <trkpt lat="45.19061" lon="0.50684">
        <ele>202</ele>
        <time>2016-05-03T13:49:12Z</time>
      </trkpt>
      <trkpt lat="45.19057" lon="0.5068">
        <ele>203</ele>
        <time>2016-05-03T13:49:16Z</time>
      </trkpt>
      <trkpt lat="45.19054" lon="0.50678">
        <ele>202</ele>
        <time>2016-05-03T13:49:21Z</time>
      </trkpt>
      <trkpt lat="45.19046" lon="0.50675">
        <ele>200</ele>
        <time>2016-05-03T13:49:26Z</time>
      </trkpt>
      <trkpt lat="45.19043" lon="0.50671">
        <ele>200</ele>
        <time>2016-05-03T13:49:30Z</time>
      </trkpt>
      <trkpt lat="45.19039" lon="0.50667">
        <ele>199</ele>
        <time>2016-05-03T13:49:35Z</time>
      </trkpt>
      <trkpt lat="45.19036" lon="0.50664">
        <ele>200</ele>
        <time>2016-05-03T13:49:40Z</time>
      </trkpt>
      <trkpt lat="45.19032" lon="0.50662">
        <ele>198</ele>
        <time>2016-05-03T13:49:45Z</time>
      </trkpt>
      <trkpt lat="45.19029" lon="0.50657">
        <ele>198</ele>
        <time>2016-05-03T13:49:49Z</time>
      </trkpt>
      <trkpt lat="45.19027" lon="0.50653">
        <ele>199</ele>
        <time>2016-05-03T13:49:54Z</time>
      </trkpt>
      <trkpt lat="45.19024" lon="0.50649">
        <ele>199</ele>
        <time>2016-05-03T13:49:58Z</time>
      </trkpt>
      <trkpt lat="45.19021" lon="0.50645">
        <ele>200</ele>
        <time>2016-05-03T13:50:03Z</time>
      </trkpt>
      <trkpt lat="45.19016" lon="0.50641">
        <ele>200</ele>
        <time>2016-05-03T13:50:07Z</time>
      </trkpt>
      <trkpt lat="45.19011" lon="0.50636">
        <ele>200</ele>
        <time>2016-05-03T13:50:12Z</time>
      </trkpt>
      <trkpt lat="45.19008" lon="0.50632">
        <ele>202</ele>
        <time>2016-05-03T13:50:16Z</time>
      </trkpt>
      <trkpt lat="45.19001" lon="0.50627">
        <ele>202</ele>
        <time>2016-05-03T13:50:21Z</time>
      </trkpt>
      <trkpt lat="45.18996" lon="0.50621">
        <ele>203</ele>
        <time>2016-05-03T13:50:25Z</time>
      </trkpt>
      <trkpt lat="45.18995" lon="0.50616">
        <ele>204</ele>
        <time>2016-05-03T13:50:29Z</time>
      </trkpt>
      <trkpt lat="45.18987" lon="0.50613">
        <ele>205</ele>
        <time>2016-05-03T13:50:34Z</time>
      </trkpt>
      <trkpt lat="45.18983" lon="0.5061">
        <ele>205</ele>
        <time>2016-05-03T13:50:38Z</time>
      </trkpt>
      <trkpt lat="45.1898" lon="0.50605">
        <ele>205</ele>
        <time>2016-05-03T13:50:43Z</time>
      </trkpt>
      <trkpt lat="45.18978" lon="0.506">
        <ele>203</ele>
        <time>2016-05-03T13:50:48Z</time>
      </trkpt>
      <trkpt lat="45.18974" lon="0.50596">
        <ele>203</ele>
        <time>2016-05-03T13:50:53Z</time>
      </trkpt>
      <trkpt lat="45.1897" lon="0.50593">
        <ele>203</ele>
        <time>2016-05-03T13:50:57Z</time>
      </trkpt>
      <trkpt lat="45.18967" lon="0.50589">
        <ele>204</ele>
        <time>2016-05-03T13:51:03Z</time>
      </trkpt>
      <trkpt lat="45.18964" lon="0.50583">
        <ele>206</ele>
        <time>2016-05-03T13:51:08Z</time>
      </trkpt>
      <trkpt lat="45.18962" lon="0.50579">
        <ele>207</ele>
        <time>2016-05-03T13:51:12Z</time>
      </trkpt>
      <trkpt lat="45.18958" lon="0.50575">
        <ele>207</ele>
        <time>2016-05-03T13:51:17Z</time>
      </trkpt>
      <trkpt lat="45.18954" lon="0.50571">
        <ele>206</ele>
        <time>2016-05-03T13:51:21Z</time>
      </trkpt>
      <trkpt lat="45.18951" lon="0.50568">
        <ele>206</ele>
        <time>2016-05-03T13:51:25Z</time>
      </trkpt>
      <trkpt lat="45.18946" lon="0.50565">
        <ele>209</ele>
        <time>2016-05-03T13:51:29Z</time>
      </trkpt>
      <trkpt lat="45.18942" lon="0.50561">
        <ele>208</ele>
        <time>2016-05-03T13:51:33Z</time>
      </trkpt>
      <trkpt lat="45.18939" lon="0.50554">
        <ele>205</ele>
        <time>2016-05-03T13:51:38Z</time>
      </trkpt>
      <trkpt lat="45.18938" lon="0.50549">
        <ele>207</ele>
        <time>2016-05-03T13:51:42Z</time>
      </trkpt>
      <trkpt lat="45.18932" lon="0.50544">
        <ele>208</ele>
        <time>2016-05-03T13:51:47Z</time>
      </trkpt>
      <trkpt lat="45.18931" lon="0.50538">
        <ele>206</ele>
        <time>2016-05-03T13:51:51Z</time>
      </trkpt>
      <trkpt lat="45.18928" lon="0.50534">
        <ele>206</ele>
        <time>2016-05-03T13:51:55Z</time>
      </trkpt>
      <trkpt lat="45.18925" lon="0.50529">
        <ele>207</ele>
        <time>2016-05-03T13:51:59Z</time>
      </trkpt>
      <trkpt lat="45.18923" lon="0.50527">
        <ele>208</ele>
        <time>2016-05-03T13:52:03Z</time>
      </trkpt>
      <trkpt lat="45.18919" lon="0.5052">
        <ele>210</ele>
        <time>2016-05-03T13:52:08Z</time>
      </trkpt>
      <trkpt lat="45.18915" lon="0.50515">
        <ele>208</ele>
        <time>2016-05-03T13:52:12Z</time>
      </trkpt>
      <trkpt lat="45.18914" lon="0.50508">
        <ele>208</ele>
        <time>2016-05-03T13:52:16Z</time>
      </trkpt>
      <trkpt lat="45.18912" lon="0.50503">
        <ele>208</ele>
        <time>2016-05-03T13:52:21Z</time>
      </trkpt>
      <trkpt lat="45.18911" lon="0.50498">
        <ele>207</ele>
        <time>2016-05-03T13:52:27Z</time>
      </trkpt>
      <trkpt lat="45.18908" lon="0.50493">
        <ele>208</ele>
        <time>2016-05-03T13:52:31Z</time>
      </trkpt>
      <trkpt lat="45.18907" lon="0.50487">
        <ele>209</ele>
        <time>2016-05-03T13:52:35Z</time>
      </trkpt>
      <trkpt lat="45.18904" lon="0.50478">
        <ele>205</ele>
        <time>2016-05-03T13:52:40Z</time>
      </trkpt>
      <trkpt lat="45.18903" lon="0.50472">
        <ele>205</ele>
        <time>2016-05-03T13:52:44Z</time>
      </trkpt>
      <trkpt lat="45.18903" lon="0.50462">
        <ele>204</ele>
        <time>2016-05-03T13:52:49Z</time>
      </trkpt>
      <trkpt lat="45.18903" lon="0.50457">
        <ele>207</ele>
        <time>2016-05-03T13:52:53Z</time>
      </trkpt>
      <trkpt lat="45.18904" lon="0.50451">
        <ele>209</ele>
        <time>2016-05-03T13:52:57Z</time>
      </trkpt>
      <trkpt lat="45.18903" lon="0.50442">
        <ele>209</ele>
        <time>2016-05-03T13:53:02Z</time>
      </trkpt>
      <trkpt lat="45.18903" lon="0.50433">
        <ele>209</ele>
        <time>2016-05-03T13:53:06Z</time>
      </trkpt>
      <trkpt lat="45.18901" lon="0.50428">
        <ele>210</ele>
        <time>2016-05-03T13:53:10Z</time>
      </trkpt>
      <trkpt lat="45.18897" lon="0.5042">
        <ele>210</ele>
        <time>2016-05-03T13:53:15Z</time>
      </trkpt>
      <trkpt lat="45.18897" lon="0.50414">
        <ele>208</ele>
        <time>2016-05-03T13:53:19Z</time>
      </trkpt>
      <trkpt lat="45.18897" lon="0.50408">
        <ele>208</ele>
        <time>2016-05-03T13:53:23Z</time>
      </trkpt>
      <trkpt lat="45.18895" lon="0.50401">
        <ele>210</ele>
        <time>2016-05-03T13:53:27Z</time>
      </trkpt>
      <trkpt lat="45.18894" lon="0.50395">
        <ele>213</ele>
        <time>2016-05-03T13:53:32Z</time>
      </trkpt>
      <trkpt lat="45.18893" lon="0.50387">
        <ele>213</ele>
        <time>2016-05-03T13:53:37Z</time>
      </trkpt>
      <trkpt lat="45.1889" lon="0.50383">
        <ele>212</ele>
        <time>2016-05-03T13:53:41Z</time>
      </trkpt>
      <trkpt lat="45.18887" lon="0.50375">
        <ele>209</ele>
        <time>2016-05-03T13:53:45Z</time>
      </trkpt>
      <trkpt lat="45.18885" lon="0.5037">
        <ele>200</ele>
        <time>2016-05-03T13:53:50Z</time>
      </trkpt>
      <trkpt lat="45.18883" lon="0.50365">
        <ele>205</ele>
        <time>2016-05-03T13:53:55Z</time>
      </trkpt>
      <trkpt lat="45.18881" lon="0.5036">
        <ele>206</ele>
        <time>2016-05-03T13:53:59Z</time>
      </trkpt>
      <trkpt lat="45.18877" lon="0.50353">
        <ele>208</ele>
        <time>2016-05-03T13:54:04Z</time>
      </trkpt>
      <trkpt lat="45.18879" lon="0.50347">
        <ele>211</ele>
        <time>2016-05-03T13:54:08Z</time>
      </trkpt>
      <trkpt lat="45.18878" lon="0.50341">
        <ele>211</ele>
        <time>2016-05-03T13:54:13Z</time>
      </trkpt>
      <trkpt lat="45.18877" lon="0.50334">
        <ele>208</ele>
        <time>2016-05-03T13:54:17Z</time>
      </trkpt>
      <trkpt lat="45.18873" lon="0.5033">
        <ele>208</ele>
        <time>2016-05-03T13:54:21Z</time>
      </trkpt>
      <trkpt lat="45.18871" lon="0.50325">
        <ele>211</ele>
        <time>2016-05-03T13:54:25Z</time>
      </trkpt>
      <trkpt lat="45.18865" lon="0.50318">
        <ele>209</ele>
        <time>2016-05-03T13:54:30Z</time>
      </trkpt>
      <trkpt lat="45.18862" lon="0.50314">
        <ele>209</ele>
        <time>2016-05-03T13:54:35Z</time>
      </trkpt>
      <trkpt lat="45.18861" lon="0.50308">
        <ele>208</ele>
        <time>2016-05-03T13:54:39Z</time>
      </trkpt>
      <trkpt lat="45.18858" lon="0.50299">
        <ele>205</ele>
        <time>2016-05-03T13:54:44Z</time>
      </trkpt>
      <trkpt lat="45.18853" lon="0.50294">
        <ele>206</ele>
        <time>2016-05-03T13:54:49Z</time>
      </trkpt>
      <trkpt lat="45.18849" lon="0.50293">
        <ele>208</ele>
        <time>2016-05-03T13:54:53Z</time>
      </trkpt>
      <trkpt lat="45.18845" lon="0.50291">
        <ele>207</ele>
        <time>2016-05-03T13:54:58Z</time>
      </trkpt>
      <trkpt lat="45.18838" lon="0.50288">
        <ele>209</ele>
        <time>2016-05-03T13:55:03Z</time>
      </trkpt>
      <trkpt lat="45.18833" lon="0.50285">
        <ele>212</ele>
        <time>2016-05-03T13:55:08Z</time>
      </trkpt>
      <trkpt lat="45.18829" lon="0.50285">
        <ele>214</ele>
        <time>2016-05-03T13:55:13Z</time>
      </trkpt>
      <trkpt lat="45.18825" lon="0.50282">
        <ele>214</ele>
        <time>2016-05-03T13:55:18Z</time>
      </trkpt>
      <trkpt lat="45.1882" lon="0.50281">
        <ele>216</ele>
        <time>2016-05-03T13:55:23Z</time>
      </trkpt>
      <trkpt lat="45.18812" lon="0.50281">
        <ele>216</ele>
        <time>2016-05-03T13:55:27Z</time>
      </trkpt>
      <trkpt lat="45.18808" lon="0.50282">
        <ele>218</ele>
        <time>2016-05-03T13:55:31Z</time>
      </trkpt>
      <trkpt lat="45.18803" lon="0.50282">
        <ele>219</ele>
        <time>2016-05-03T13:55:35Z</time>
      </trkpt>
      <trkpt lat="45.18798" lon="0.50284">
        <ele>216</ele>
        <time>2016-05-03T13:55:39Z</time>
      </trkpt>
      <trkpt lat="45.18794" lon="0.50286">
        <ele>214</ele>
        <time>2016-05-03T13:55:46Z</time>
      </trkpt>
      <trkpt lat="45.18792" lon="0.50282">
        <ele>211</ele>
        <time>2016-05-03T13:55:52Z</time>
      </trkpt>
      <trkpt lat="45.18791" lon="0.50276">
        <ele>211</ele>
        <time>2016-05-03T13:55:57Z</time>
      </trkpt>
      <trkpt lat="45.18789" lon="0.50271">
        <ele>208</ele>
        <time>2016-05-03T13:56:05Z</time>
      </trkpt>
      <trkpt lat="45.18788" lon="0.50265">
        <ele>209</ele>
        <time>2016-05-03T13:56:11Z</time>
      </trkpt>
      <trkpt lat="45.18787" lon="0.5026">
        <ele>208</ele>
        <time>2016-05-03T13:56:16Z</time>
      </trkpt>
      <trkpt lat="45.18784" lon="0.5026">
        <ele>206</ele>
        <time>2016-05-03T13:56:30Z</time>
      </trkpt>
      <trkpt lat="45.1878" lon="0.50259">
        <ele>205</ele>
        <time>2016-05-03T13:56:41Z</time>
      </trkpt>
      <trkpt lat="45.18783" lon="0.50255">
        <ele>203</ele>
        <time>2016-05-03T13:58:37Z</time>
      </trkpt>
      <trkpt lat="45.18784" lon="0.50249">
        <ele>208</ele>
        <time>2016-05-03T13:59:53Z</time>
      </trkpt>
      <trkpt lat="45.1878" lon="0.50249">
        <ele>206</ele>
        <time>2016-05-03T14:01:17Z</time>
      </trkpt>
      <trkpt lat="45.18782" lon="0.50244">
        <ele>210</ele>
        <time>2016-05-03T14:01:45Z</time>
      </trkpt>
      <trkpt lat="45.18785" lon="0.50239">
        <ele>208</ele>
        <time>2016-05-03T14:01:56Z</time>
      </trkpt>
      <trkpt lat="45.18788" lon="0.50234">
        <ele>207</ele>
        <time>2016-05-03T14:02:01Z</time>
      </trkpt>
      <trkpt lat="45.18791" lon="0.50229">
        <ele>207</ele>
        <time>2016-05-03T14:02:06Z</time>
      </trkpt>
      <trkpt lat="45.18793" lon="0.50222">
        <ele>204</ele>
        <time>2016-05-03T14:02:11Z</time>
      </trkpt>
      <trkpt lat="45.18798" lon="0.50216">
        <ele>206</ele>
        <time>2016-05-03T14:02:15Z</time>
      </trkpt>
      <trkpt lat="45.18801" lon="0.5021">
        <ele>204</ele>
        <time>2016-05-03T14:02:20Z</time>
      </trkpt>
      <trkpt lat="45.18804" lon="0.50207">
        <ele>207</ele>
        <time>2016-05-03T14:02:24Z</time>
      </trkpt>
      <trkpt lat="45.18809" lon="0.50204">
        <ele>210</ele>
        <time>2016-05-03T14:02:29Z</time>
      </trkpt>
      <trkpt lat="45.18812" lon="0.502">
        <ele>211</ele>
        <time>2016-05-03T14:02:33Z</time>
      </trkpt>
      <trkpt lat="45.18816" lon="0.50199">
        <ele>211</ele>
        <time>2016-05-03T14:02:38Z</time>
      </trkpt>
      <trkpt lat="45.1882" lon="0.50196">
        <ele>219</ele>
        <time>2016-05-03T14:02:45Z</time>
      </trkpt>
      <trkpt lat="45.18823" lon="0.50188">
        <ele>218</ele>
        <time>2016-05-03T14:02:49Z</time>
      </trkpt>
      <trkpt lat="45.18827" lon="0.50182">
        <ele>218</ele>
        <time>2016-05-03T14:02:53Z</time>
      </trkpt>
      <trkpt lat="45.18833" lon="0.50178">
        <ele>214</ele>
        <time>2016-05-03T14:02:57Z</time>
      </trkpt>
      <trkpt lat="45.18838" lon="0.50174">
        <ele>211</ele>
        <time>2016-05-03T14:03:01Z</time>
      </trkpt>
      <trkpt lat="45.18842" lon="0.5017">
        <ele>212</ele>
        <time>2016-05-03T14:03:05Z</time>
      </trkpt>
      <trkpt lat="45.18846" lon="0.50164">
        <ele>210</ele>
        <time>2016-05-03T14:03:09Z</time>
      </trkpt>
      <trkpt lat="45.1885" lon="0.50157">
        <ele>209</ele>
        <time>2016-05-03T14:03:14Z</time>
      </trkpt>
      <trkpt lat="45.18854" lon="0.50153">
        <ele>211</ele>
        <time>2016-05-03T14:03:19Z</time>
      </trkpt>
      <trkpt lat="45.18856" lon="0.50148">
        <ele>215</ele>
        <time>2016-05-03T14:03:23Z</time>
      </trkpt>
      <trkpt lat="45.18859" lon="0.50145">
        <ele>216</ele>
        <time>2016-05-03T14:03:28Z</time>
      </trkpt>
      <trkpt lat="45.18861" lon="0.50137">
        <ele>218</ele>
        <time>2016-05-03T14:03:33Z</time>
      </trkpt>
      <trkpt lat="45.18865" lon="0.50134">
        <ele>218</ele>
        <time>2016-05-03T14:03:37Z</time>
      </trkpt>
      <trkpt lat="45.18869" lon="0.50132">
        <ele>218</ele>
        <time>2016-05-03T14:03:41Z</time>
      </trkpt>
      <trkpt lat="45.18869" lon="0.50126">
        <ele>217</ele>
        <time>2016-05-03T14:03:45Z</time>
      </trkpt>
      <trkpt lat="45.18875" lon="0.50117">
        <ele>214</ele>
        <time>2016-05-03T14:03:50Z</time>
      </trkpt>
      <trkpt lat="45.1888" lon="0.50111">
        <ele>210</ele>
        <time>2016-05-03T14:03:55Z</time>
      </trkpt>
      <trkpt lat="45.18884" lon="0.50105">
        <ele>209</ele>
        <time>2016-05-03T14:03:59Z</time>
      </trkpt>
      <trkpt lat="45.18888" lon="0.50097">
        <ele>206</ele>
        <time>2016-05-03T14:04:04Z</time>
      </trkpt>
      <trkpt lat="45.18893" lon="0.50091">
        <ele>206</ele>
        <time>2016-05-03T14:04:09Z</time>
      </trkpt>
      <trkpt lat="45.18894" lon="0.50085">
        <ele>205</ele>
        <time>2016-05-03T14:04:13Z</time>
      </trkpt>
      <trkpt lat="45.18898" lon="0.50081">
        <ele>206</ele>
        <time>2016-05-03T14:04:18Z</time>
      </trkpt>
      <trkpt lat="45.18901" lon="0.50074">
        <ele>207</ele>
        <time>2016-05-03T14:04:22Z</time>
      </trkpt>
      <trkpt lat="45.18906" lon="0.50067">
        <ele>204</ele>
        <time>2016-05-03T14:04:27Z</time>
      </trkpt>
      <trkpt lat="45.18908" lon="0.5006">
        <ele>206</ele>
        <time>2016-05-03T14:04:31Z</time>
      </trkpt>
      <trkpt lat="45.18912" lon="0.50054">
        <ele>206</ele>
        <time>2016-05-03T14:04:36Z</time>
      </trkpt>
      <trkpt lat="45.18916" lon="0.50047">
        <ele>202</ele>
        <time>2016-05-03T14:04:40Z</time>
      </trkpt>
      <trkpt lat="45.18917" lon="0.50039">
        <ele>203</ele>
        <time>2016-05-03T14:04:45Z</time>
      </trkpt>
      <trkpt lat="45.18918" lon="0.50033">
        <ele>206</ele>
        <time>2016-05-03T14:04:49Z</time>
      </trkpt>
      <trkpt lat="45.18923" lon="0.50027">
        <ele>207</ele>
        <time>2016-05-03T14:04:54Z</time>
      </trkpt>
      <trkpt lat="45.18925" lon="0.50019">
        <ele>207</ele>
        <time>2016-05-03T14:04:58Z</time>
      </trkpt>
      <trkpt lat="45.1893" lon="0.5001">
        <ele>209</ele>
        <time>2016-05-03T14:05:03Z</time>
      </trkpt>
      <trkpt lat="45.18936" lon="0.50002">
        <ele>207</ele>
        <time>2016-05-03T14:05:07Z</time>
      </trkpt>
      <trkpt lat="45.18941" lon="0.49994">
        <ele>207</ele>
        <time>2016-05-03T14:05:11Z</time>
      </trkpt>
      <trkpt lat="45.18946" lon="0.49986">
        <ele>207</ele>
        <time>2016-05-03T14:05:16Z</time>
      </trkpt>
      <trkpt lat="45.1895" lon="0.49978">
        <ele>209</ele>
        <time>2016-05-03T14:05:21Z</time>
      </trkpt>
      <trkpt lat="45.18954" lon="0.49975">
        <ele>209</ele>
        <time>2016-05-03T14:05:25Z</time>
      </trkpt>
      <trkpt lat="45.18959" lon="0.49972">
        <ele>209</ele>
        <time>2016-05-03T14:05:29Z</time>
      </trkpt>
      <trkpt lat="45.18964" lon="0.4997">
        <ele>211</ele>
        <time>2016-05-03T14:05:33Z</time>
      </trkpt>
      <trkpt lat="45.18969" lon="0.49965">
        <ele>214</ele>
        <time>2016-05-03T14:05:38Z</time>
      </trkpt>
      <trkpt lat="45.18973" lon="0.49962">
        <ele>215</ele>
        <time>2016-05-03T14:05:42Z</time>
      </trkpt>
      <trkpt lat="45.18976" lon="0.49956">
        <ele>217</ele>
        <time>2016-05-03T14:05:46Z</time>
      </trkpt>
      <trkpt lat="45.18979" lon="0.49953">
        <ele>221</ele>
        <time>2016-05-03T14:05:50Z</time>
      </trkpt>
      <trkpt lat="45.18984" lon="0.49949">
        <ele>216</ele>
        <time>2016-05-03T14:05:54Z</time>
      </trkpt>
      <trkpt lat="45.18988" lon="0.49944">
        <ele>217</ele>
        <time>2016-05-03T14:05:58Z</time>
      </trkpt>
      <trkpt lat="45.18995" lon="0.4994">
        <ele>217</ele>
        <time>2016-05-03T14:06:03Z</time>
      </trkpt>
      <trkpt lat="45.18997" lon="0.49936">
        <ele>218</ele>
        <time>2016-05-03T14:06:07Z</time>
      </trkpt>
      <trkpt lat="45.19" lon="0.49929">
        <ele>222</ele>
        <time>2016-05-03T14:06:11Z</time>
      </trkpt>
      <trkpt lat="45.19006" lon="0.49922">
        <ele>219</ele>
        <time>2016-05-03T14:06:15Z</time>
      </trkpt>
      <trkpt lat="45.19015" lon="0.49918">
        <ele>219</ele>
        <time>2016-05-03T14:06:20Z</time>
      </trkpt>
      <trkpt lat="45.1902" lon="0.49915">
        <ele>223</ele>
        <time>2016-05-03T14:06:24Z</time>
      </trkpt>
      <trkpt lat="45.19026" lon="0.4991">
        <ele>221</ele>
        <time>2016-05-03T14:06:29Z</time>
      </trkpt>
      <trkpt lat="45.19029" lon="0.49904">
        <ele>223</ele>
        <time>2016-05-03T14:06:34Z</time>
      </trkpt>
      <trkpt lat="45.19033" lon="0.49897">
        <ele>222</ele>
        <time>2016-05-03T14:06:38Z</time>
      </trkpt>
      <trkpt lat="45.19039" lon="0.49887">
        <ele>216</ele>
        <time>2016-05-03T14:06:43Z</time>
      </trkpt>
      <trkpt lat="45.19045" lon="0.4988">
        <ele>217</ele>
        <time>2016-05-03T14:06:47Z</time>
      </trkpt>
      <trkpt lat="45.19049" lon="0.49874">
        <ele>215</ele>
        <time>2016-05-03T14:06:52Z</time>
      </trkpt>
      <trkpt lat="45.19054" lon="0.49871">
        <ele>214</ele>
        <time>2016-05-03T14:06:56Z</time>
      </trkpt>
      <trkpt lat="45.19057" lon="0.49866">
        <ele>216</ele>
        <time>2016-05-03T14:07:01Z</time>
      </trkpt>
      <trkpt lat="45.19063" lon="0.49856">
        <ele>214</ele>
        <time>2016-05-03T14:07:06Z</time>
      </trkpt>
      <trkpt lat="45.19068" lon="0.49853">
        <ele>214</ele>
        <time>2016-05-03T14:07:10Z</time>
      </trkpt>
      <trkpt lat="45.19072" lon="0.49851">
        <ele>215</ele>
        <time>2016-05-03T14:07:14Z</time>
      </trkpt>
      <trkpt lat="45.19078" lon="0.49846">
        <ele>216</ele>
        <time>2016-05-03T14:07:19Z</time>
      </trkpt>
      <trkpt lat="45.19084" lon="0.49844">
        <ele>213</ele>
        <time>2016-05-03T14:07:23Z</time>
      </trkpt>
      <trkpt lat="45.19091" lon="0.49846">
        <ele>210</ele>
        <time>2016-05-03T14:07:28Z</time>
      </trkpt>
      <trkpt lat="45.19095" lon="0.49849">
        <ele>208</ele>
        <time>2016-05-03T14:07:32Z</time>
      </trkpt>
      <trkpt lat="45.191" lon="0.49853">
        <ele>209</ele>
        <time>2016-05-03T14:07:37Z</time>
      </trkpt>
      <trkpt lat="45.19104" lon="0.49856">
        <ele>208</ele>
        <time>2016-05-03T14:07:41Z</time>
      </trkpt>
      <trkpt lat="45.19107" lon="0.49861">
        <ele>208</ele>
        <time>2016-05-03T14:07:45Z</time>
      </trkpt>
      <trkpt lat="45.19111" lon="0.49865">
        <ele>207</ele>
        <time>2016-05-03T14:07:49Z</time>
      </trkpt>
      <trkpt lat="45.19118" lon="0.49867">
        <ele>206</ele>
        <time>2016-05-03T14:07:54Z</time>
      </trkpt>
      <trkpt lat="45.19121" lon="0.49872">
        <ele>207</ele>
        <time>2016-05-03T14:07:58Z</time>
      </trkpt>
      <trkpt lat="45.19123" lon="0.49878">
        <ele>204</ele>
        <time>2016-05-03T14:08:02Z</time>
      </trkpt>
      <trkpt lat="45.19128" lon="0.49885">
        <ele>203</ele>
        <time>2016-05-03T14:08:07Z</time>
      </trkpt>
      <trkpt lat="45.19131" lon="0.49888">
        <ele>205</ele>
        <time>2016-05-03T14:08:12Z</time>
      </trkpt>
      <trkpt lat="45.19136" lon="0.49893">
        <ele>205</ele>
        <time>2016-05-03T14:08:17Z</time>
      </trkpt>
      <trkpt lat="45.19139" lon="0.49898">
        <ele>205</ele>
        <time>2016-05-03T14:08:21Z</time>
      </trkpt>
      <trkpt lat="45.19143" lon="0.49901">
        <ele>204</ele>
        <time>2016-05-03T14:08:25Z</time>
      </trkpt>
      <trkpt lat="45.19147" lon="0.49906">
        <ele>204</ele>
        <time>2016-05-03T14:08:30Z</time>
      </trkpt>
      <trkpt lat="45.19151" lon="0.4991">
        <ele>204</ele>
        <time>2016-05-03T14:08:34Z</time>
      </trkpt>
      <trkpt lat="45.19155" lon="0.49915">
        <ele>203</ele>
        <time>2016-05-03T14:08:39Z</time>
      </trkpt>
      <trkpt lat="45.19159" lon="0.49919">
        <ele>203</ele>
        <time>2016-05-03T14:08:43Z</time>
      </trkpt>
      <trkpt lat="45.19165" lon="0.49924">
        <ele>204</ele>
        <time>2016-05-03T14:08:48Z</time>
      </trkpt>
      <trkpt lat="45.19169" lon="0.49928">
        <ele>202</ele>
        <time>2016-05-03T14:08:52Z</time>
      </trkpt>
      <trkpt lat="45.19175" lon="0.49932">
        <ele>202</ele>
        <time>2016-05-03T14:08:56Z</time>
      </trkpt>
      <trkpt lat="45.1918" lon="0.49935">
        <ele>199</ele>
        <time>2016-05-03T14:09:01Z</time>
      </trkpt>
      <trkpt lat="45.19185" lon="0.49938">
        <ele>200</ele>
        <time>2016-05-03T14:09:05Z</time>
      </trkpt>
      <trkpt lat="45.19188" lon="0.49941">
        <ele>199</ele>
        <time>2016-05-03T14:09:09Z</time>
      </trkpt>
      <trkpt lat="45.19195" lon="0.49943">
        <ele>199</ele>
        <time>2016-05-03T14:09:13Z</time>
      </trkpt>
      <trkpt lat="45.19201" lon="0.49943">
        <ele>201</ele>
        <time>2016-05-03T14:09:18Z</time>
      </trkpt>
      <trkpt lat="45.19205" lon="0.49945">
        <ele>202</ele>
        <time>2016-05-03T14:09:22Z</time>
      </trkpt>
      <trkpt lat="45.1921" lon="0.49945">
        <ele>204</ele>
        <time>2016-05-03T14:09:26Z</time>
      </trkpt>
      <trkpt lat="45.19214" lon="0.49946">
        <ele>206</ele>
        <time>2016-05-03T14:09:30Z</time>
      </trkpt>
      <trkpt lat="45.19221" lon="0.4995">
        <ele>207</ele>
        <time>2016-05-03T14:09:34Z</time>
      </trkpt>
      <trkpt lat="45.19225" lon="0.49952">
        <ele>207</ele>
        <time>2016-05-03T14:09:38Z</time>
      </trkpt>
      <trkpt lat="45.1923" lon="0.49954">
        <ele>207</ele>
        <time>2016-05-03T14:09:43Z</time>
      </trkpt>
      <trkpt lat="45.19235" lon="0.49956">
        <ele>207</ele>
        <time>2016-05-03T14:09:47Z</time>
      </trkpt>
      <trkpt lat="45.1924" lon="0.49956">
        <ele>211</ele>
        <time>2016-05-03T14:09:52Z</time>
      </trkpt>
      <trkpt lat="45.19244" lon="0.49958">
        <ele>213</ele>
        <time>2016-05-03T14:09:56Z</time>
      </trkpt>
      <trkpt lat="45.19247" lon="0.49961">
        <ele>214</ele>
        <time>2016-05-03T14:10:00Z</time>
      </trkpt>
      <trkpt lat="45.19253" lon="0.49964">
        <ele>214</ele>
        <time>2016-05-03T14:10:05Z</time>
      </trkpt>
      <trkpt lat="45.19261" lon="0.49966">
        <ele>211</ele>
        <time>2016-05-03T14:10:10Z</time>
      </trkpt>
      <trkpt lat="45.19267" lon="0.49968">
        <ele>209</ele>
        <time>2016-05-03T14:10:14Z</time>
      </trkpt>
      <trkpt lat="45.19275" lon="0.49967">
        <ele>207</ele>
        <time>2016-05-03T14:10:19Z</time>
      </trkpt>
      <trkpt lat="45.19281" lon="0.4997">
        <ele>205</ele>
        <time>2016-05-03T14:10:23Z</time>
      </trkpt>
      <trkpt lat="45.19287" lon="0.49969">
        <ele>206</ele>
        <time>2016-05-03T14:10:28Z</time>
      </trkpt>
      <trkpt lat="45.19292" lon="0.4997">
        <ele>206</ele>
        <time>2016-05-03T14:10:32Z</time>
      </trkpt>
      <trkpt lat="45.19296" lon="0.4997">
        <ele>206</ele>
        <time>2016-05-03T14:10:37Z</time>
      </trkpt>
      <trkpt lat="45.193" lon="0.49971">
        <ele>206</ele>
        <time>2016-05-03T14:10:41Z</time>
      </trkpt>
      <trkpt lat="45.19306" lon="0.49973">
        <ele>207</ele>
        <time>2016-05-03T14:10:46Z</time>
      </trkpt>
      <trkpt lat="45.19311" lon="0.49973">
        <ele>211</ele>
        <time>2016-05-03T14:10:50Z</time>
      </trkpt>
      <trkpt lat="45.19316" lon="0.49976">
        <ele>211</ele>
        <time>2016-05-03T14:10:55Z</time>
      </trkpt>
      <trkpt lat="45.19321" lon="0.49977">
        <ele>211</ele>
        <time>2016-05-03T14:10:59Z</time>
      </trkpt>
      <trkpt lat="45.19328" lon="0.49981">
        <ele>210</ele>
        <time>2016-05-03T14:11:04Z</time>
      </trkpt>
      <trkpt lat="45.19332" lon="0.49979">
        <ele>207</ele>
        <time>2016-05-03T14:11:08Z</time>
      </trkpt>
      <trkpt lat="45.19338" lon="0.49981">
        <ele>203</ele>
        <time>2016-05-03T14:11:12Z</time>
      </trkpt>
      <trkpt lat="45.19343" lon="0.49984">
        <ele>203</ele>
        <time>2016-05-03T14:11:16Z</time>
      </trkpt>
      <trkpt lat="45.19348" lon="0.49984">
        <ele>203</ele>
        <time>2016-05-03T14:11:21Z</time>
      </trkpt>
      <trkpt lat="45.19355" lon="0.49983">
        <ele>202</ele>
        <time>2016-05-03T14:11:26Z</time>
      </trkpt>
      <trkpt lat="45.1936" lon="0.49981">
        <ele>195</ele>
        <time>2016-05-03T14:11:30Z</time>
      </trkpt>
      <trkpt lat="45.19365" lon="0.49979">
        <ele>195</ele>
        <time>2016-05-03T14:11:34Z</time>
      </trkpt>
      <trkpt lat="45.1937" lon="0.49973">
        <ele>195</ele>
        <time>2016-05-03T14:11:39Z</time>
      </trkpt>
      <trkpt lat="45.19374" lon="0.49969">
        <ele>194</ele>
        <time>2016-05-03T14:11:43Z</time>
      </trkpt>
      <trkpt lat="45.1938" lon="0.49966">
        <ele>195</ele>
        <time>2016-05-03T14:11:48Z</time>
      </trkpt>
      <trkpt lat="45.19383" lon="0.49963">
        <ele>192</ele>
        <time>2016-05-03T14:11:53Z</time>
      </trkpt>
      <trkpt lat="45.1939" lon="0.49961">
        <ele>186</ele>
        <time>2016-05-03T14:11:57Z</time>
      </trkpt>
      <trkpt lat="45.19396" lon="0.49959">
        <ele>185</ele>
        <time>2016-05-03T14:12:01Z</time>
      </trkpt>
      <trkpt lat="45.19401" lon="0.49954">
        <ele>184</ele>
        <time>2016-05-03T14:12:05Z</time>
      </trkpt>
      <trkpt lat="45.19405" lon="0.49951">
        <ele>181</ele>
        <time>2016-05-03T14:12:09Z</time>
      </trkpt>
      <trkpt lat="45.19409" lon="0.4995">
        <ele>181</ele>
        <time>2016-05-03T14:12:13Z</time>
      </trkpt>
      <trkpt lat="45.19414" lon="0.49948">
        <ele>181</ele>
        <time>2016-05-03T14:12:17Z</time>
      </trkpt>
      <trkpt lat="45.19419" lon="0.49949">
        <ele>182</ele>
        <time>2016-05-03T14:12:21Z</time>
      </trkpt>
      <trkpt lat="45.19425" lon="0.49946">
        <ele>185</ele>
        <time>2016-05-03T14:12:26Z</time>
      </trkpt>
      <trkpt lat="45.19428" lon="0.49941">
        <ele>189</ele>
        <time>2016-05-03T14:12:30Z</time>
      </trkpt>
      <trkpt lat="45.19435" lon="0.49939">
        <ele>189</ele>
        <time>2016-05-03T14:12:35Z</time>
      </trkpt>
      <trkpt lat="45.19441" lon="0.49938">
        <ele>191</ele>
        <time>2016-05-03T14:12:39Z</time>
      </trkpt>
      <trkpt lat="45.19448" lon="0.49939">
        <ele>192</ele>
        <time>2016-05-03T14:12:43Z</time>
      </trkpt>
      <trkpt lat="45.19454" lon="0.49938">
        <ele>190</ele>
        <time>2016-05-03T14:12:48Z</time>
      </trkpt>
      <trkpt lat="45.19459" lon="0.49935">
        <ele>191</ele>
        <time>2016-05-03T14:12:53Z</time>
      </trkpt>
      <trkpt lat="45.19464" lon="0.49935">
        <ele>192</ele>
        <time>2016-05-03T14:12:57Z</time>
      </trkpt>
      <trkpt lat="45.19469" lon="0.49934">
        <ele>190</ele>
        <time>2016-05-03T14:13:01Z</time>
      </trkpt>
      <trkpt lat="45.19473" lon="0.49935">
        <ele>192</ele>
        <time>2016-05-03T14:13:06Z</time>
      </trkpt>
      <trkpt lat="45.19478" lon="0.49939">
        <ele>192</ele>
        <time>2016-05-03T14:13:10Z</time>
      </trkpt>
      <trkpt lat="45.19481" lon="0.49939">
        <ele>195</ele>
        <time>2016-05-03T14:13:14Z</time>
      </trkpt>
      <trkpt lat="45.19485" lon="0.49939">
        <ele>197</ele>
        <time>2016-05-03T14:13:18Z</time>
      </trkpt>
      <trkpt lat="45.19489" lon="0.49938">
        <ele>200</ele>
        <time>2016-05-03T14:13:29Z</time>
      </trkpt>
      <trkpt lat="45.19499" lon="0.49934">
        <ele>195</ele>
        <time>2016-05-03T14:13:34Z</time>
      </trkpt>
      <trkpt lat="45.19504" lon="0.49933">
        <ele>200</ele>
        <time>2016-05-03T14:13:38Z</time>
      </trkpt>
      <trkpt lat="45.19506" lon="0.49932">
        <ele>199</ele>
        <time>2016-05-03T14:13:43Z</time>
      </trkpt>
      <trkpt lat="45.19514" lon="0.49927">
        <ele>200</ele>
        <time>2016-05-03T14:13:48Z</time>
      </trkpt>
      <trkpt lat="45.19523" lon="0.49929">
        <ele>203</ele>
        <time>2016-05-03T14:13:52Z</time>
      </trkpt>
      <trkpt lat="45.1953" lon="0.49928">
        <ele>203</ele>
        <time>2016-05-03T14:13:56Z</time>
      </trkpt>
      <trkpt lat="45.19537" lon="0.49925">
        <ele>202</ele>
        <time>2016-05-03T14:14:01Z</time>
      </trkpt>
      <trkpt lat="45.19543" lon="0.49924">
        <ele>203</ele>
        <time>2016-05-03T14:14:05Z</time>
      </trkpt>
      <trkpt lat="45.19548" lon="0.49924">
        <ele>202</ele>
        <time>2016-05-03T14:14:09Z</time>
      </trkpt>
      <trkpt lat="45.19552" lon="0.49923">
        <ele>204</ele>
        <time>2016-05-03T14:14:13Z</time>
      </trkpt>
      <trkpt lat="45.19556" lon="0.49921">
        <ele>209</ele>
        <time>2016-05-03T14:14:18Z</time>
      </trkpt>
      <trkpt lat="45.19562" lon="0.49921">
        <ele>207</ele>
        <time>2016-05-03T14:14:23Z</time>
      </trkpt>
      <trkpt lat="45.19569" lon="0.49918">
        <ele>212</ele>
        <time>2016-05-03T14:14:28Z</time>
      </trkpt>
      <trkpt lat="45.19574" lon="0.49918">
        <ele>211</ele>
        <time>2016-05-03T14:14:32Z</time>
      </trkpt>
      <trkpt lat="45.1958" lon="0.49914">
        <ele>209</ele>
        <time>2016-05-03T14:14:37Z</time>
      </trkpt>
      <trkpt lat="45.19585" lon="0.49913">
        <ele>210</ele>
        <time>2016-05-03T14:14:41Z</time>
      </trkpt>
      <trkpt lat="45.19592" lon="0.49909">
        <ele>210</ele>
        <time>2016-05-03T14:14:45Z</time>
      </trkpt>
      <trkpt lat="45.19598" lon="0.49909">
        <ele>210</ele>
        <time>2016-05-03T14:14:50Z</time>
      </trkpt>
      <trkpt lat="45.19602" lon="0.49906">
        <ele>210</ele>
        <time>2016-05-03T14:14:55Z</time>
      </trkpt>
      <trkpt lat="45.19606" lon="0.49902">
        <ele>211</ele>
        <time>2016-05-03T14:14:59Z</time>
      </trkpt>
      <trkpt lat="45.19612" lon="0.49901">
        <ele>214</ele>
        <time>2016-05-03T14:15:04Z</time>
      </trkpt>
      <trkpt lat="45.19617" lon="0.49901">
        <ele>215</ele>
        <time>2016-05-03T14:15:08Z</time>
      </trkpt>
      <trkpt lat="45.19623" lon="0.49897">
        <ele>215</ele>
        <time>2016-05-03T14:15:13Z</time>
      </trkpt>
      <trkpt lat="45.19628" lon="0.49893">
        <ele>215</ele>
        <time>2016-05-03T14:15:17Z</time>
      </trkpt>
      <trkpt lat="45.19634" lon="0.49891">
        <ele>210</ele>
        <time>2016-05-03T14:15:21Z</time>
      </trkpt>
      <trkpt lat="45.1964" lon="0.49888">
        <ele>208</ele>
        <time>2016-05-03T14:15:25Z</time>
      </trkpt>
      <trkpt lat="45.19646" lon="0.49885">
        <ele>208</ele>
        <time>2016-05-03T14:15:30Z</time>
      </trkpt>
      <trkpt lat="45.19652" lon="0.49884">
        <ele>208</ele>
        <time>2016-05-03T14:15:35Z</time>
      </trkpt>
      <trkpt lat="45.19656" lon="0.49881">
        <ele>206</ele>
        <time>2016-05-03T14:15:39Z</time>
      </trkpt>
      <trkpt lat="45.19663" lon="0.49879">
        <ele>203</ele>
        <time>2016-05-03T14:15:44Z</time>
      </trkpt>
      <trkpt lat="45.19667" lon="0.49877">
        <ele>202</ele>
        <time>2016-05-03T14:15:48Z</time>
      </trkpt>
      <trkpt lat="45.19673" lon="0.49875">
        <ele>203</ele>
        <time>2016-05-03T14:15:52Z</time>
      </trkpt>
      <trkpt lat="45.19679" lon="0.49874">
        <ele>206</ele>
        <time>2016-05-03T14:15:57Z</time>
      </trkpt>
      <trkpt lat="45.19683" lon="0.49868">
        <ele>206</ele>
        <time>2016-05-03T14:16:01Z</time>
      </trkpt>
      <trkpt lat="45.19687" lon="0.49865">
        <ele>205</ele>
        <time>2016-05-03T14:16:05Z</time>
      </trkpt>
      <trkpt lat="45.19692" lon="0.49864">
        <ele>203</ele>
        <time>2016-05-03T14:16:10Z</time>
      </trkpt>
      <trkpt lat="45.19698" lon="0.49863">
        <ele>202</ele>
        <time>2016-05-03T14:16:14Z</time>
      </trkpt>
      <trkpt lat="45.19701" lon="0.4986">
        <ele>202</ele>
        <time>2016-05-03T14:16:18Z</time>
      </trkpt>
      <trkpt lat="45.19705" lon="0.49857">
        <ele>202</ele>
        <time>2016-05-03T14:16:22Z</time>
      </trkpt>
      <trkpt lat="45.19708" lon="0.49854">
        <ele>200</ele>
        <time>2016-05-03T14:16:27Z</time>
      </trkpt>
      <trkpt lat="45.19712" lon="0.49851">
        <ele>200</ele>
        <time>2016-05-03T14:16:31Z</time>
      </trkpt>
      <trkpt lat="45.19717" lon="0.4985">
        <ele>204</ele>
        <time>2016-05-03T14:16:36Z</time>
      </trkpt>
      <trkpt lat="45.19721" lon="0.49846">
        <ele>205</ele>
        <time>2016-05-03T14:16:40Z</time>
      </trkpt>
      <trkpt lat="45.19726" lon="0.49841">
        <ele>203</ele>
        <time>2016-05-03T14:16:44Z</time>
      </trkpt>
      <trkpt lat="45.19732" lon="0.49838">
        <ele>204</ele>
        <time>2016-05-03T14:16:49Z</time>
      </trkpt>
      <trkpt lat="45.19738" lon="0.49836">
        <ele>203</ele>
        <time>2016-05-03T14:16:54Z</time>
      </trkpt>
      <trkpt lat="45.19743" lon="0.49834">
        <ele>199</ele>
        <time>2016-05-03T14:16:58Z</time>
      </trkpt>
      <trkpt lat="45.19748" lon="0.49833">
        <ele>200</ele>
        <time>2016-05-03T14:17:02Z</time>
      </trkpt>
      <trkpt lat="45.19751" lon="0.49833">
        <ele>201</ele>
        <time>2016-05-03T14:17:07Z</time>
      </trkpt>
      <trkpt lat="45.19756" lon="0.49835">
        <ele>204</ele>
        <time>2016-05-03T14:17:12Z</time>
      </trkpt>
      <trkpt lat="45.19762" lon="0.49836">
        <ele>207</ele>
        <time>2016-05-03T14:17:17Z</time>
      </trkpt>
      <trkpt lat="45.19768" lon="0.49839">
        <ele>201</ele>
        <time>2016-05-03T14:17:21Z</time>
      </trkpt>
      <trkpt lat="45.19777" lon="0.49841">
        <ele>195</ele>
        <time>2016-05-03T14:17:26Z</time>
      </trkpt>
      <trkpt lat="45.19782" lon="0.49843">
        <ele>195</ele>
        <time>2016-05-03T14:17:30Z</time>
      </trkpt>
      <trkpt lat="45.19788" lon="0.49846">
        <ele>194</ele>
        <time>2016-05-03T14:17:35Z</time>
      </trkpt>
      <trkpt lat="45.19795" lon="0.49846">
        <ele>193</ele>
        <time>2016-05-03T14:17:39Z</time>
      </trkpt>
      <trkpt lat="45.19801" lon="0.49847">
        <ele>191</ele>
        <time>2016-05-03T14:17:44Z</time>
      </trkpt>
      <trkpt lat="45.19805" lon="0.49845">
        <ele>190</ele>
        <time>2016-05-03T14:17:57Z</time>
      </trkpt>
      <trkpt lat="45.19808" lon="0.49844">
        <ele>190</ele>
        <time>2016-05-03T14:18:03Z</time>
      </trkpt>
      <trkpt lat="45.19816" lon="0.49845">
        <ele>188</ele>
        <time>2016-05-03T14:18:07Z</time>
      </trkpt>
      <trkpt lat="45.19824" lon="0.49842">
        <ele>186</ele>
        <time>2016-05-03T14:18:12Z</time>
      </trkpt>
      <trkpt lat="45.19834" lon="0.49839">
        <ele>183</ele>
        <time>2016-05-03T14:18:17Z</time>
      </trkpt>
      <trkpt lat="45.1984" lon="0.49838">
        <ele>184</ele>
        <time>2016-05-03T14:18:21Z</time>
      </trkpt>
      <trkpt lat="45.19847" lon="0.49834">
        <ele>184</ele>
        <time>2016-05-03T14:18:26Z</time>
      </trkpt>
      <trkpt lat="45.19852" lon="0.49833">
        <ele>185</ele>
        <time>2016-05-03T14:18:31Z</time>
      </trkpt>
      <trkpt lat="45.19857" lon="0.49834">
        <ele>188</ele>
        <time>2016-05-03T14:18:35Z</time>
      </trkpt>
      <trkpt lat="45.19862" lon="0.49835">
        <ele>193</ele>
        <time>2016-05-03T14:18:40Z</time>
      </trkpt>
      <trkpt lat="45.19868" lon="0.49832">
        <ele>191</ele>
        <time>2016-05-03T14:18:45Z</time>
      </trkpt>
      <trkpt lat="45.19872" lon="0.49833">
        <ele>190</ele>
        <time>2016-05-03T14:18:50Z</time>
      </trkpt>
      <trkpt lat="45.19878" lon="0.49832">
        <ele>191</ele>
        <time>2016-05-03T14:18:54Z</time>
      </trkpt>
      <trkpt lat="45.19887" lon="0.49831">
        <ele>189</ele>
        <time>2016-05-03T14:18:59Z</time>
      </trkpt>
      <trkpt lat="45.19892" lon="0.49829">
        <ele>184</ele>
        <time>2016-05-03T14:19:03Z</time>
      </trkpt>
      <trkpt lat="45.19897" lon="0.49829">
        <ele>182</ele>
        <time>2016-05-03T14:19:07Z</time>
      </trkpt>
      <trkpt lat="45.19903" lon="0.49828">
        <ele>181</ele>
        <time>2016-05-03T14:19:12Z</time>
      </trkpt>
      <trkpt lat="45.19907" lon="0.49825">
        <ele>181</ele>
        <time>2016-05-03T14:19:17Z</time>
      </trkpt>
      <trkpt lat="45.19911" lon="0.49821">
        <ele>182</ele>
        <time>2016-05-03T14:19:21Z</time>
      </trkpt>
      <trkpt lat="45.19915" lon="0.49816">
        <ele>183</ele>
        <time>2016-05-03T14:19:26Z</time>
      </trkpt>
      <trkpt lat="45.19918" lon="0.49814">
        <ele>184</ele>
        <time>2016-05-03T14:19:31Z</time>
      </trkpt>
      <trkpt lat="45.19924" lon="0.4981">
        <ele>185</ele>
        <time>2016-05-03T14:19:36Z</time>
      </trkpt>
      <trkpt lat="45.19927" lon="0.49805">
        <ele>183</ele>
        <time>2016-05-03T14:19:40Z</time>
      </trkpt>
      <trkpt lat="45.1993" lon="0.49803">
        <ele>186</ele>
        <time>2016-05-03T14:19:44Z</time>
      </trkpt>
      <trkpt lat="45.19934" lon="0.49801">
        <ele>186</ele>
        <time>2016-05-03T14:19:49Z</time>
      </trkpt>
      <trkpt lat="45.19938" lon="0.49797">
        <ele>183</ele>
        <time>2016-05-03T14:19:57Z</time>
      </trkpt>
      <trkpt lat="45.19946" lon="0.49792">
        <ele>181</ele>
        <time>2016-05-03T14:20:02Z</time>
      </trkpt>
      <trkpt lat="45.1995" lon="0.49787">
        <ele>182</ele>
        <time>2016-05-03T14:20:06Z</time>
      </trkpt>
      <trkpt lat="45.19957" lon="0.49782">
        <ele>185</ele>
        <time>2016-05-03T14:20:11Z</time>
      </trkpt>
      <trkpt lat="45.19962" lon="0.49776">
        <ele>186</ele>
        <time>2016-05-03T14:20:15Z</time>
      </trkpt>
      <trkpt lat="45.19965" lon="0.49773">
        <ele>186</ele>
        <time>2016-05-03T14:20:19Z</time>
      </trkpt>
      <trkpt lat="45.1997" lon="0.4977">
        <ele>186</ele>
        <time>2016-05-03T14:20:24Z</time>
      </trkpt>
      <trkpt lat="45.19976" lon="0.49769">
        <ele>183</ele>
        <time>2016-05-03T14:20:28Z</time>
      </trkpt>
      <trkpt lat="45.1998" lon="0.49769">
        <ele>184</ele>
        <time>2016-05-03T14:20:33Z</time>
      </trkpt>
      <trkpt lat="45.19986" lon="0.49766">
        <ele>184</ele>
        <time>2016-05-03T14:20:37Z</time>
      </trkpt>
      <trkpt lat="45.1999" lon="0.49763">
        <ele>186</ele>
        <time>2016-05-03T14:20:42Z</time>
      </trkpt>
      <trkpt lat="45.19994" lon="0.49763">
        <ele>185</ele>
        <time>2016-05-03T14:20:46Z</time>
      </trkpt>
      <trkpt lat="45.20001" lon="0.49759">
        <ele>183</ele>
        <time>2016-05-03T14:20:51Z</time>
      </trkpt>
      <trkpt lat="45.20005" lon="0.49756">
        <ele>181</ele>
        <time>2016-05-03T14:20:56Z</time>
      </trkpt>
      <trkpt lat="45.20008" lon="0.49756">
        <ele>181</ele>
        <time>2016-05-03T14:21:00Z</time>
      </trkpt>
      <trkpt lat="45.20015" lon="0.49756">
        <ele>178</ele>
        <time>2016-05-03T14:21:04Z</time>
      </trkpt>
      <trkpt lat="45.20019" lon="0.49758">
        <ele>179</ele>
        <time>2016-05-03T14:21:09Z</time>
      </trkpt>
      <trkpt lat="45.20024" lon="0.49758">
        <ele>179</ele>
        <time>2016-05-03T14:21:13Z</time>
      </trkpt>
      <trkpt lat="45.2003" lon="0.49756">
        <ele>176</ele>
        <time>2016-05-03T14:21:18Z</time>
      </trkpt>
      <trkpt lat="45.20038" lon="0.49757">
        <ele>173</ele>
        <time>2016-05-03T14:21:23Z</time>
      </trkpt>
      <trkpt lat="45.20042" lon="0.49754">
        <ele>172</ele>
        <time>2016-05-03T14:21:27Z</time>
      </trkpt>
      <trkpt lat="45.20046" lon="0.49754">
        <ele>169</ele>
        <time>2016-05-03T14:21:37Z</time>
      </trkpt>
      <trkpt lat="45.20048" lon="0.4975">
        <ele>169</ele>
        <time>2016-05-03T14:21:42Z</time>
      </trkpt>
      <trkpt lat="45.20052" lon="0.4975">
        <ele>170</ele>
        <time>2016-05-03T14:21:46Z</time>
      </trkpt>
      <trkpt lat="45.20059" lon="0.49749">
        <ele>164</ele>
        <time>2016-05-03T14:21:51Z</time>
      </trkpt>
      <trkpt lat="45.20064" lon="0.49748">
        <ele>164</ele>
        <time>2016-05-03T14:21:59Z</time>
      </trkpt>
      <trkpt lat="45.2007" lon="0.49747">
        <ele>163</ele>
        <time>2016-05-03T14:22:04Z</time>
      </trkpt>
      <trkpt lat="45.20075" lon="0.49748">
        <ele>162</ele>
        <time>2016-05-03T14:22:08Z</time>
      </trkpt>
      <trkpt lat="45.20079" lon="0.49747">
        <ele>162</ele>
        <time>2016-05-03T14:22:12Z</time>
      </trkpt>
      <trkpt lat="45.20088" lon="0.49748">
        <ele>162</ele>
        <time>2016-05-03T14:22:17Z</time>
      </trkpt>
      <trkpt lat="45.20093" lon="0.49746">
        <ele>161</ele>
        <time>2016-05-03T14:22:21Z</time>
      </trkpt>
      <trkpt lat="45.201" lon="0.49749">
        <ele>161</ele>
        <time>2016-05-03T14:22:25Z</time>
      </trkpt>
      <trkpt lat="45.20105" lon="0.49748">
        <ele>160</ele>
        <time>2016-05-03T14:22:29Z</time>
      </trkpt>
      <trkpt lat="45.2011" lon="0.49752">
        <ele>159</ele>
        <time>2016-05-03T14:22:34Z</time>
      </trkpt>
      <trkpt lat="45.20114" lon="0.49754">
        <ele>159</ele>
        <time>2016-05-03T14:22:40Z</time>
      </trkpt>
      <trkpt lat="45.2012" lon="0.49759">
        <ele>157</ele>
        <time>2016-05-03T14:22:44Z</time>
      </trkpt>
      <trkpt lat="45.20126" lon="0.49762">
        <ele>156</ele>
        <time>2016-05-03T14:22:49Z</time>
      </trkpt>
      <trkpt lat="45.2013" lon="0.49764">
        <ele>154</ele>
        <time>2016-05-03T14:22:53Z</time>
      </trkpt>
      <trkpt lat="45.20136" lon="0.49764">
        <ele>155</ele>
        <time>2016-05-03T14:22:57Z</time>
      </trkpt>
      <trkpt lat="45.2014" lon="0.49765">
        <ele>155</ele>
        <time>2016-05-03T14:23:03Z</time>
      </trkpt>
      <trkpt lat="45.20144" lon="0.4977">
        <ele>151</ele>
        <time>2016-05-03T14:23:08Z</time>
      </trkpt>
      <trkpt lat="45.20147" lon="0.49771">
        <ele>151</ele>
        <time>2016-05-03T14:23:13Z</time>
      </trkpt>
      <trkpt lat="45.20155" lon="0.49776">
        <ele>150</ele>
        <time>2016-05-03T14:23:17Z</time>
      </trkpt>
      <trkpt lat="45.20162" lon="0.49778">
        <ele>152</ele>
        <time>2016-05-03T14:23:22Z</time>
      </trkpt>
      <trkpt lat="45.20166" lon="0.49779">
        <ele>155</ele>
        <time>2016-05-03T14:23:26Z</time>
      </trkpt>
      <trkpt lat="45.20171" lon="0.49781">
        <ele>152</ele>
        <time>2016-05-03T14:23:30Z</time>
      </trkpt>
      <trkpt lat="45.20175" lon="0.49781">
        <ele>151</ele>
        <time>2016-05-03T14:23:34Z</time>
      </trkpt>
      <trkpt lat="45.20183" lon="0.49786">
        <ele>147</ele>
        <time>2016-05-03T14:23:38Z</time>
      </trkpt>
      <trkpt lat="45.2019" lon="0.49785">
        <ele>145</ele>
        <time>2016-05-03T14:23:42Z</time>
      </trkpt>
      <trkpt lat="45.20197" lon="0.49783">
        <ele>143</ele>
        <time>2016-05-03T14:23:47Z</time>
      </trkpt>
      <trkpt lat="45.20201" lon="0.49781">
        <ele>144</ele>
        <time>2016-05-03T14:23:53Z</time>
      </trkpt>
      <trkpt lat="45.20205" lon="0.49782">
        <ele>144</ele>
        <time>2016-05-03T14:23:57Z</time>
      </trkpt>
      <trkpt lat="45.2021" lon="0.49783">
        <ele>143</ele>
        <time>2016-05-03T14:24:01Z</time>
      </trkpt>
      <trkpt lat="45.20216" lon="0.49782">
        <ele>144</ele>
        <time>2016-05-03T14:24:05Z</time>
      </trkpt>
      <trkpt lat="45.2022" lon="0.49779">
        <ele>144</ele>
        <time>2016-05-03T14:24:09Z</time>
      </trkpt>
      <trkpt lat="45.20226" lon="0.49768">
        <ele>142</ele>
        <time>2016-05-03T14:24:14Z</time>
      </trkpt>
      <trkpt lat="45.20229" lon="0.4976">
        <ele>138</ele>
        <time>2016-05-03T14:24:18Z</time>
      </trkpt>
      <trkpt lat="45.2023" lon="0.49754">
        <ele>139</ele>
        <time>2016-05-03T14:24:24Z</time>
      </trkpt>
      <trkpt lat="45.20229" lon="0.4976">
        <ele>138</ele>
        <time>2016-05-03T14:25:07Z</time>
      </trkpt>
      <trkpt lat="45.20234" lon="0.4976">
        <ele>138</ele>
        <time>2016-05-03T14:26:01Z</time>
      </trkpt>
      <trkpt lat="45.20238" lon="0.49762">
        <ele>137</ele>
        <time>2016-05-03T14:26:51Z</time>
      </trkpt>
      <trkpt lat="45.20241" lon="0.49766">
        <ele>138</ele>
        <time>2016-05-03T14:27:28Z</time>
      </trkpt>
      <trkpt lat="45.20244" lon="0.4977">
        <ele>141</ele>
        <time>2016-05-03T14:27:33Z</time>
      </trkpt>
      <trkpt lat="45.20248" lon="0.49773">
        <ele>146</ele>
        <time>2016-05-03T14:27:51Z</time>
      </trkpt>
      <trkpt lat="45.20252" lon="0.49776">
        <ele>152</ele>
        <time>2016-05-03T14:27:59Z</time>
      </trkpt>
      <trkpt lat="45.20257" lon="0.49779">
        <ele>153</ele>
        <time>2016-05-03T14:28:03Z</time>
      </trkpt>
      <trkpt lat="45.20261" lon="0.49779">
        <ele>156</ele>
        <time>2016-05-03T14:28:07Z</time>
      </trkpt>
      <trkpt lat="45.20266" lon="0.49778">
        <ele>159</ele>
        <time>2016-05-03T14:28:12Z</time>
      </trkpt>
      <trkpt lat="45.20272" lon="0.49768">
        <ele>151</ele>
        <time>2016-05-03T14:28:17Z</time>
      </trkpt>
      <trkpt lat="45.20275" lon="0.49763">
        <ele>147</ele>
        <time>2016-05-03T14:28:21Z</time>
      </trkpt>
      <trkpt lat="45.20278" lon="0.4976">
        <ele>150</ele>
        <time>2016-05-03T14:28:25Z</time>
      </trkpt>
      <trkpt lat="45.20283" lon="0.49756">
        <ele>149</ele>
        <time>2016-05-03T14:28:29Z</time>
      </trkpt>
      <trkpt lat="45.20287" lon="0.49753">
        <ele>148</ele>
        <time>2016-05-03T14:28:33Z</time>
      </trkpt>
      <trkpt lat="45.20292" lon="0.4975">
        <ele>149</ele>
        <time>2016-05-03T14:28:37Z</time>
      </trkpt>
      <trkpt lat="45.20299" lon="0.49749">
        <ele>145</ele>
        <time>2016-05-03T14:28:41Z</time>
      </trkpt>
      <trkpt lat="45.20303" lon="0.49744">
        <ele>142</ele>
        <time>2016-05-03T14:28:45Z</time>
      </trkpt>
      <trkpt lat="45.20305" lon="0.49739">
        <ele>140</ele>
        <time>2016-05-03T14:28:49Z</time>
      </trkpt>
      <trkpt lat="45.20304" lon="0.49722">
        <ele>134</ele>
        <time>2016-05-03T14:28:54Z</time>
      </trkpt>
      <trkpt lat="45.20305" lon="0.49715">
        <ele>137</ele>
        <time>2016-05-03T14:28:58Z</time>
      </trkpt>
      <trkpt lat="45.20304" lon="0.49709">
        <ele>136</ele>
        <time>2016-05-03T14:29:02Z</time>
      </trkpt>
      <trkpt lat="45.20305" lon="0.49703">
        <ele>137</ele>
        <time>2016-05-03T14:29:06Z</time>
      </trkpt>
      <trkpt lat="45.20306" lon="0.49695">
        <ele>139</ele>
        <time>2016-05-03T14:29:11Z</time>
      </trkpt>
      <trkpt lat="45.20305" lon="0.4969">
        <ele>143</ele>
        <time>2016-05-03T14:29:15Z</time>
      </trkpt>
      <trkpt lat="45.20303" lon="0.49684">
        <ele>145</ele>
        <time>2016-05-03T14:29:19Z</time>
      </trkpt>
      <trkpt lat="45.20304" lon="0.49674">
        <ele>147</ele>
        <time>2016-05-03T14:29:24Z</time>
      </trkpt>
      <trkpt lat="45.20302" lon="0.49668">
        <ele>149</ele>
        <time>2016-05-03T14:29:29Z</time>
      </trkpt>
      <trkpt lat="45.20303" lon="0.49662">
        <ele>150</ele>
        <time>2016-05-03T14:29:33Z</time>
      </trkpt>
      <trkpt lat="45.20304" lon="0.49656">
        <ele>151</ele>
        <time>2016-05-03T14:29:38Z</time>
      </trkpt>
      <trkpt lat="45.20306" lon="0.4965">
        <ele>147</ele>
        <time>2016-05-03T14:29:42Z</time>
      </trkpt>
      <trkpt lat="45.20308" lon="0.49644">
        <ele>149</ele>
        <time>2016-05-03T14:29:46Z</time>
      </trkpt>
      <trkpt lat="45.20313" lon="0.49636">
        <ele>144</ele>
        <time>2016-05-03T14:29:51Z</time>
      </trkpt>
      <trkpt lat="45.20311" lon="0.4963">
        <ele>150</ele>
        <time>2016-05-03T14:29:56Z</time>
      </trkpt>
      <trkpt lat="45.2031" lon="0.49625">
        <ele>151</ele>
        <time>2016-05-03T14:30:00Z</time>
      </trkpt>
      <trkpt lat="45.2031" lon="0.49618">
        <ele>151</ele>
        <time>2016-05-03T14:30:05Z</time>
      </trkpt>
      <trkpt lat="45.20312" lon="0.49611">
        <ele>150</ele>
        <time>2016-05-03T14:30:09Z</time>
      </trkpt>
      <trkpt lat="45.20315" lon="0.49605">
        <ele>148</ele>
        <time>2016-05-03T14:30:13Z</time>
      </trkpt>
      <trkpt lat="45.20317" lon="0.49602">
        <ele>154</ele>
        <time>2016-05-03T14:30:19Z</time>
      </trkpt>
      <trkpt lat="45.2032" lon="0.49591">
        <ele>149</ele>
        <time>2016-05-03T14:30:24Z</time>
      </trkpt>
      <trkpt lat="45.20324" lon="0.49587">
        <ele>149</ele>
        <time>2016-05-03T14:30:29Z</time>
      </trkpt>
      <trkpt lat="45.20327" lon="0.49585">
        <ele>152</ele>
        <time>2016-05-03T14:30:34Z</time>
      </trkpt>
      <trkpt lat="45.2033" lon="0.49582">
        <ele>155</ele>
        <time>2016-05-03T14:30:39Z</time>
      </trkpt>
      <trkpt lat="45.20334" lon="0.4958">
        <ele>159</ele>
        <time>2016-05-03T14:30:45Z</time>
      </trkpt>
      <trkpt lat="45.20339" lon="0.49576">
        <ele>157</ele>
        <time>2016-05-03T14:30:50Z</time>
      </trkpt>
      <trkpt lat="45.20342" lon="0.49572">
        <ele>160</ele>
        <time>2016-05-03T14:30:57Z</time>
      </trkpt>
      <trkpt lat="45.20347" lon="0.49569">
        <ele>164</ele>
        <time>2016-05-03T14:31:01Z</time>
      </trkpt>
      <trkpt lat="45.20352" lon="0.49565">
        <ele>165</ele>
        <time>2016-05-03T14:31:06Z</time>
      </trkpt>
      <trkpt lat="45.20355" lon="0.4956">
        <ele>166</ele>
        <time>2016-05-03T14:31:10Z</time>
      </trkpt>
      <trkpt lat="45.20359" lon="0.49558">
        <ele>169</ele>
        <time>2016-05-03T14:31:15Z</time>
      </trkpt>
      <trkpt lat="45.20365" lon="0.49553">
        <ele>171</ele>
        <time>2016-05-03T14:31:20Z</time>
      </trkpt>
      <trkpt lat="45.20369" lon="0.49546">
        <ele>172</ele>
        <time>2016-05-03T14:31:24Z</time>
      </trkpt>
      <trkpt lat="45.20377" lon="0.49535">
        <ele>168</ele>
        <time>2016-05-03T14:31:29Z</time>
      </trkpt>
      <trkpt lat="45.20381" lon="0.49526">
        <ele>172</ele>
        <time>2016-05-03T14:31:34Z</time>
      </trkpt>
      <trkpt lat="45.20385" lon="0.49525">
        <ele>176</ele>
        <time>2016-05-03T14:31:40Z</time>
      </trkpt>
      <trkpt lat="45.20388" lon="0.49519">
        <ele>177</ele>
        <time>2016-05-03T14:31:44Z</time>
      </trkpt>
      <trkpt lat="45.20391" lon="0.49515">
        <ele>181</ele>
        <time>2016-05-03T14:31:49Z</time>
      </trkpt>
      <trkpt lat="45.20393" lon="0.49501">
        <ele>180</ele>
        <time>2016-05-03T14:31:54Z</time>
      </trkpt>
      <trkpt lat="45.20396" lon="0.49498">
        <ele>181</ele>
        <time>2016-05-03T14:32:00Z</time>
      </trkpt>
      <trkpt lat="45.20401" lon="0.49482">
        <ele>176</ele>
        <time>2016-05-03T14:32:04Z</time>
      </trkpt>
      <trkpt lat="45.20406" lon="0.49471">
        <ele>170</ele>
        <time>2016-05-03T14:32:08Z</time>
      </trkpt>
      <trkpt lat="45.20408" lon="0.49468">
        <ele>172</ele>
        <time>2016-05-03T14:32:12Z</time>
      </trkpt>
      <trkpt lat="45.20412" lon="0.49464">
        <ele>174</ele>
        <time>2016-05-03T14:32:16Z</time>
      </trkpt>
      <trkpt lat="45.20414" lon="0.49458">
        <ele>179</ele>
        <time>2016-05-03T14:32:21Z</time>
      </trkpt>
      <trkpt lat="45.20417" lon="0.49453">
        <ele>182</ele>
        <time>2016-05-03T14:32:25Z</time>
      </trkpt>
      <trkpt lat="45.20421" lon="0.49445">
        <ele>185</ele>
        <time>2016-05-03T14:32:30Z</time>
      </trkpt>
      <trkpt lat="45.20424" lon="0.49442">
        <ele>188</ele>
        <time>2016-05-03T14:32:35Z</time>
      </trkpt>
      <trkpt lat="45.20427" lon="0.49441">
        <ele>193</ele>
        <time>2016-05-03T14:32:39Z</time>
      </trkpt>
      <trkpt lat="45.20435" lon="0.49427">
        <ele>186</ele>
        <time>2016-05-03T14:32:44Z</time>
      </trkpt>
      <trkpt lat="45.20439" lon="0.49416">
        <ele>181</ele>
        <time>2016-05-03T14:32:48Z</time>
      </trkpt>
      <trkpt lat="45.20444" lon="0.49416">
        <ele>183</ele>
        <time>2016-05-03T14:32:52Z</time>
      </trkpt>
      <trkpt lat="45.20448" lon="0.49416">
        <ele>186</ele>
        <time>2016-05-03T14:32:57Z</time>
      </trkpt>
      <trkpt lat="45.20451" lon="0.49412">
        <ele>185</ele>
        <time>2016-05-03T14:33:01Z</time>
      </trkpt>
      <trkpt lat="45.20458" lon="0.49412">
        <ele>187</ele>
        <time>2016-05-03T14:33:06Z</time>
      </trkpt>
      <trkpt lat="45.20462" lon="0.4941">
        <ele>190</ele>
        <time>2016-05-03T14:33:10Z</time>
      </trkpt>
      <trkpt lat="45.20467" lon="0.49413">
        <ele>196</ele>
        <time>2016-05-03T14:33:15Z</time>
      </trkpt>
      <trkpt lat="45.20474" lon="0.49411">
        <ele>194</ele>
        <time>2016-05-03T14:33:20Z</time>
      </trkpt>
      <trkpt lat="45.2048" lon="0.49405">
        <ele>189</ele>
        <time>2016-05-03T14:33:24Z</time>
      </trkpt>
      <trkpt lat="45.20486" lon="0.49403">
        <ele>189</ele>
        <time>2016-05-03T14:33:28Z</time>
      </trkpt>
      <trkpt lat="45.20493" lon="0.494">
        <ele>189</ele>
        <time>2016-05-03T14:33:33Z</time>
      </trkpt>
      <trkpt lat="45.20498" lon="0.494">
        <ele>190</ele>
        <time>2016-05-03T14:33:37Z</time>
      </trkpt>
      <trkpt lat="45.20506" lon="0.49399">
        <ele>192</ele>
        <time>2016-05-03T14:33:42Z</time>
      </trkpt>
      <trkpt lat="45.20511" lon="0.49397">
        <ele>191</ele>
        <time>2016-05-03T14:33:47Z</time>
      </trkpt>
      <trkpt lat="45.20515" lon="0.49398">
        <ele>192</ele>
        <time>2016-05-03T14:33:54Z</time>
      </trkpt>
      <trkpt lat="45.2052" lon="0.494">
        <ele>191</ele>
        <time>2016-05-03T14:33:58Z</time>
      </trkpt>
      <trkpt lat="45.20527" lon="0.49402">
        <ele>191</ele>
        <time>2016-05-03T14:34:03Z</time>
      </trkpt>
      <trkpt lat="45.2053" lon="0.49403">
        <ele>192</ele>
        <time>2016-05-03T14:34:07Z</time>
      </trkpt>
      <trkpt lat="45.20534" lon="0.49407">
        <ele>191</ele>
        <time>2016-05-03T14:34:11Z</time>
      </trkpt>
      <trkpt lat="45.2054" lon="0.49408">
        <ele>192</ele>
        <time>2016-05-03T14:34:15Z</time>
      </trkpt>
      <trkpt lat="45.20545" lon="0.49412">
        <ele>192</ele>
        <time>2016-05-03T14:34:20Z</time>
      </trkpt>
      <trkpt lat="45.20552" lon="0.49417">
        <ele>189</ele>
        <time>2016-05-03T14:34:25Z</time>
      </trkpt>
      <trkpt lat="45.20554" lon="0.49422">
        <ele>187</ele>
        <time>2016-05-03T14:34:31Z</time>
      </trkpt>
      <trkpt lat="45.20561" lon="0.49425">
        <ele>188</ele>
        <time>2016-05-03T14:34:35Z</time>
      </trkpt>
      <trkpt lat="45.20564" lon="0.49431">
        <ele>190</ele>
        <time>2016-05-03T14:34:40Z</time>
      </trkpt>
      <trkpt lat="45.20567" lon="0.4944">
        <ele>193</ele>
        <time>2016-05-03T14:34:44Z</time>
      </trkpt>
      <trkpt lat="45.2057" lon="0.49447">
        <ele>196</ele>
        <time>2016-05-03T14:34:49Z</time>
      </trkpt>
      <trkpt lat="45.20573" lon="0.49452">
        <ele>192</ele>
        <time>2016-05-03T14:34:53Z</time>
      </trkpt>
      <trkpt lat="45.20578" lon="0.4946">
        <ele>193</ele>
        <time>2016-05-03T14:34:58Z</time>
      </trkpt>
      <trkpt lat="45.20582" lon="0.49465">
        <ele>194</ele>
        <time>2016-05-03T14:35:02Z</time>
      </trkpt>
      <trkpt lat="45.20587" lon="0.49473">
        <ele>199</ele>
        <time>2016-05-03T14:35:06Z</time>
      </trkpt>
      <trkpt lat="45.20595" lon="0.49481">
        <ele>200</ele>
        <time>2016-05-03T14:35:10Z</time>
      </trkpt>
      <trkpt lat="45.20601" lon="0.49487">
        <ele>201</ele>
        <time>2016-05-03T14:35:14Z</time>
      </trkpt>
      <trkpt lat="45.20608" lon="0.49487">
        <ele>202</ele>
        <time>2016-05-03T14:35:18Z</time>
      </trkpt>
      <trkpt lat="45.20613" lon="0.49491">
        <ele>205</ele>
        <time>2016-05-03T14:35:22Z</time>
      </trkpt>
      <trkpt lat="45.2062" lon="0.49495">
        <ele>211</ele>
        <time>2016-05-03T14:35:27Z</time>
      </trkpt>
      <trkpt lat="45.20629" lon="0.49499">
        <ele>213</ele>
        <time>2016-05-03T14:35:32Z</time>
      </trkpt>
      <trkpt lat="45.20634" lon="0.49504">
        <ele>213</ele>
        <time>2016-05-03T14:35:36Z</time>
      </trkpt>
      <trkpt lat="45.20641" lon="0.49503">
        <ele>207</ele>
        <time>2016-05-03T14:35:41Z</time>
      </trkpt>
      <trkpt lat="45.20646" lon="0.4951">
        <ele>205</ele>
        <time>2016-05-03T14:35:45Z</time>
      </trkpt>
      <trkpt lat="45.20653" lon="0.49511">
        <ele>202</ele>
        <time>2016-05-03T14:35:49Z</time>
      </trkpt>
      <trkpt lat="45.20659" lon="0.49513">
        <ele>200</ele>
        <time>2016-05-03T14:35:53Z</time>
      </trkpt>
      <trkpt lat="45.20664" lon="0.49514">
        <ele>197</ele>
        <time>2016-05-03T14:35:57Z</time>
      </trkpt>
      <trkpt lat="45.20668" lon="0.49516">
        <ele>198</ele>
        <time>2016-05-03T14:36:05Z</time>
      </trkpt>
      <trkpt lat="45.20675" lon="0.49524">
        <ele>197</ele>
        <time>2016-05-03T14:36:09Z</time>
      </trkpt>
      <trkpt lat="45.20685" lon="0.49529">
        <ele>198</ele>
        <time>2016-05-03T14:36:13Z</time>
      </trkpt>
      <trkpt lat="45.20693" lon="0.49528">
        <ele>197</ele>
        <time>2016-05-03T14:36:18Z</time>
      </trkpt>
      <trkpt lat="45.20702" lon="0.49533">
        <ele>198</ele>
        <time>2016-05-03T14:36:22Z</time>
      </trkpt>
      <trkpt lat="45.20712" lon="0.49537">
        <ele>197</ele>
        <time>2016-05-03T14:36:27Z</time>
      </trkpt>
      <trkpt lat="45.20718" lon="0.49538">
        <ele>196</ele>
        <time>2016-05-03T14:36:31Z</time>
      </trkpt>
      <trkpt lat="45.20725" lon="0.49538">
        <ele>197</ele>
        <time>2016-05-03T14:36:35Z</time>
      </trkpt>
      <trkpt lat="45.20735" lon="0.49539">
        <ele>195</ele>
        <time>2016-05-03T14:36:39Z</time>
      </trkpt>
      <trkpt lat="45.20742" lon="0.49545">
        <ele>192</ele>
        <time>2016-05-03T14:36:43Z</time>
      </trkpt>
      <trkpt lat="45.20752" lon="0.49548">
        <ele>192</ele>
        <time>2016-05-03T14:36:48Z</time>
      </trkpt>
      <trkpt lat="45.20759" lon="0.4955">
        <ele>195</ele>
        <time>2016-05-03T14:36:53Z</time>
      </trkpt>
      <trkpt lat="45.20768" lon="0.4955">
        <ele>188</ele>
        <time>2016-05-03T14:36:58Z</time>
      </trkpt>
      <trkpt lat="45.20775" lon="0.49553">
        <ele>187</ele>
        <time>2016-05-03T14:37:02Z</time>
      </trkpt>
      <trkpt lat="45.20781" lon="0.49555">
        <ele>185</ele>
        <time>2016-05-03T14:37:06Z</time>
      </trkpt>
      <trkpt lat="45.20785" lon="0.49559">
        <ele>187</ele>
        <time>2016-05-03T14:37:10Z</time>
      </trkpt>
      <trkpt lat="45.20792" lon="0.49562">
        <ele>187</ele>
        <time>2016-05-03T14:37:15Z</time>
      </trkpt>
      <trkpt lat="45.20799" lon="0.49563">
        <ele>185</ele>
        <time>2016-05-03T14:37:19Z</time>
      </trkpt>
      <trkpt lat="45.20804" lon="0.49564">
        <ele>183</ele>
        <time>2016-05-03T14:37:23Z</time>
      </trkpt>
      <trkpt lat="45.20809" lon="0.49566">
        <ele>182</ele>
        <time>2016-05-03T14:37:27Z</time>
      </trkpt>
      <trkpt lat="45.20817" lon="0.49568">
        <ele>184</ele>
        <time>2016-05-03T14:37:32Z</time>
      </trkpt>
      <trkpt lat="45.20821" lon="0.49566">
        <ele>183</ele>
        <time>2016-05-03T14:37:37Z</time>
      </trkpt>
      <trkpt lat="45.20829" lon="0.4957">
        <ele>182</ele>
        <time>2016-05-03T14:37:41Z</time>
      </trkpt>
      <trkpt lat="45.20833" lon="0.49577">
        <ele>182</ele>
        <time>2016-05-03T14:37:46Z</time>
      </trkpt>
      <trkpt lat="45.20835" lon="0.49584">
        <ele>182</ele>
        <time>2016-05-03T14:37:50Z</time>
      </trkpt>
      <trkpt lat="45.20836" lon="0.4959">
        <ele>182</ele>
        <time>2016-05-03T14:37:54Z</time>
      </trkpt>
      <trkpt lat="45.20836" lon="0.49596">
        <ele>183</ele>
        <time>2016-05-03T14:37:58Z</time>
      </trkpt>
      <trkpt lat="45.20836" lon="0.49602">
        <ele>182</ele>
        <time>2016-05-03T14:38:02Z</time>
      </trkpt>
      <trkpt lat="45.20834" lon="0.49606">
        <ele>180</ele>
        <time>2016-05-03T14:38:07Z</time>
      </trkpt>
      <trkpt lat="45.20834" lon="0.49614">
        <ele>182</ele>
        <time>2016-05-03T14:38:12Z</time>
      </trkpt>
      <trkpt lat="45.20834" lon="0.49623">
        <ele>182</ele>
        <time>2016-05-03T14:38:17Z</time>
      </trkpt>
      <trkpt lat="45.2083" lon="0.49627">
        <ele>184</ele>
        <time>2016-05-03T14:38:21Z</time>
      </trkpt>
      <trkpt lat="45.20827" lon="0.49632">
        <ele>185</ele>
        <time>2016-05-03T14:38:26Z</time>
      </trkpt>
      <trkpt lat="45.20829" lon="0.49639">
        <ele>186</ele>
        <time>2016-05-03T14:38:30Z</time>
      </trkpt>
      <trkpt lat="45.20826" lon="0.49647">
        <ele>189</ele>
        <time>2016-05-03T14:38:35Z</time>
      </trkpt>
      <trkpt lat="45.20834" lon="0.49657">
        <ele>193</ele>
        <time>2016-05-03T14:38:40Z</time>
      </trkpt>
      <trkpt lat="45.20838" lon="0.49664">
        <ele>196</ele>
        <time>2016-05-03T14:38:44Z</time>
      </trkpt>
      <trkpt lat="45.20842" lon="0.49671">
        <ele>198</ele>
        <time>2016-05-03T14:38:49Z</time>
      </trkpt>
      <trkpt lat="45.20843" lon="0.49676">
        <ele>199</ele>
        <time>2016-05-03T14:38:53Z</time>
      </trkpt>
      <trkpt lat="45.20845" lon="0.49684">
        <ele>198</ele>
        <time>2016-05-03T14:38:57Z</time>
      </trkpt>
      <trkpt lat="45.2085" lon="0.4969">
        <ele>201</ele>
        <time>2016-05-03T14:39:02Z</time>
      </trkpt>
      <trkpt lat="45.20856" lon="0.49695">
        <ele>200</ele>
        <time>2016-05-03T14:39:06Z</time>
      </trkpt>
      <trkpt lat="45.20861" lon="0.49701">
        <ele>201</ele>
        <time>2016-05-03T14:39:10Z</time>
      </trkpt>
      <trkpt lat="45.20862" lon="0.49707">
        <ele>202</ele>
        <time>2016-05-03T14:39:15Z</time>
      </trkpt>
      <trkpt lat="45.20864" lon="0.49712">
        <ele>200</ele>
        <time>2016-05-03T14:39:21Z</time>
      </trkpt>
      <trkpt lat="45.20866" lon="0.49716">
        <ele>200</ele>
        <time>2016-05-03T14:39:28Z</time>
      </trkpt>
      <trkpt lat="45.20877" lon="0.4972">
        <ele>201</ele>
        <time>2016-05-03T14:39:32Z</time>
      </trkpt>
      <trkpt lat="45.2088" lon="0.49729">
        <ele>203</ele>
        <time>2016-05-03T14:39:36Z</time>
      </trkpt>
      <trkpt lat="45.20887" lon="0.49736">
        <ele>201</ele>
        <time>2016-05-03T14:39:40Z</time>
      </trkpt>
      <trkpt lat="45.20896" lon="0.49738">
        <ele>202</ele>
        <time>2016-05-03T14:39:44Z</time>
      </trkpt>
      <trkpt lat="45.20904" lon="0.49751">
        <ele>208</ele>
        <time>2016-05-03T14:39:49Z</time>
      </trkpt>
      <trkpt lat="45.20911" lon="0.49758">
        <ele>212</ele>
        <time>2016-05-03T14:39:53Z</time>
      </trkpt>
      <trkpt lat="45.20918" lon="0.49766">
        <ele>215</ele>
        <time>2016-05-03T14:39:57Z</time>
      </trkpt>
      <trkpt lat="45.20927" lon="0.49766">
        <ele>212</ele>
        <time>2016-05-03T14:40:01Z</time>
      </trkpt>
      <trkpt lat="45.20932" lon="0.49771">
        <ele>215</ele>
        <time>2016-05-03T14:40:05Z</time>
      </trkpt>
      <trkpt lat="45.20938" lon="0.49774">
        <ele>211</ele>
        <time>2016-05-03T14:40:10Z</time>
      </trkpt>
      <trkpt lat="45.20947" lon="0.49776">
        <ele>212</ele>
        <time>2016-05-03T14:40:15Z</time>
      </trkpt>
      <trkpt lat="45.20956" lon="0.49771">
        <ele>206</ele>
        <time>2016-05-03T14:40:19Z</time>
      </trkpt>
      <trkpt lat="45.20962" lon="0.49775">
        <ele>206</ele>
        <time>2016-05-03T14:40:24Z</time>
      </trkpt>
      <trkpt lat="45.20966" lon="0.4978">
        <ele>205</ele>
        <time>2016-05-03T14:40:29Z</time>
      </trkpt>
      <trkpt lat="45.20974" lon="0.49782">
        <ele>205</ele>
        <time>2016-05-03T14:40:33Z</time>
      </trkpt>
      <trkpt lat="45.20982" lon="0.49786">
        <ele>204</ele>
        <time>2016-05-03T14:40:38Z</time>
      </trkpt>
      <trkpt lat="45.20989" lon="0.49794">
        <ele>204</ele>
        <time>2016-05-03T14:40:42Z</time>
      </trkpt>
      <trkpt lat="45.20999" lon="0.49793">
        <ele>206</ele>
        <time>2016-05-03T14:40:47Z</time>
      </trkpt>
      <trkpt lat="45.21007" lon="0.49796">
        <ele>206</ele>
        <time>2016-05-03T14:40:51Z</time>
      </trkpt>
      <trkpt lat="45.21012" lon="0.49799">
        <ele>207</ele>
        <time>2016-05-03T14:40:56Z</time>
      </trkpt>
      <trkpt lat="45.21024" lon="0.49799">
        <ele>205</ele>
        <time>2016-05-03T14:41:00Z</time>
      </trkpt>
      <trkpt lat="45.21034" lon="0.49803">
        <ele>199</ele>
        <time>2016-05-03T14:41:05Z</time>
      </trkpt>
      <trkpt lat="45.21042" lon="0.49804">
        <ele>201</ele>
        <time>2016-05-03T14:41:10Z</time>
      </trkpt>
      <trkpt lat="45.2105" lon="0.49806">
        <ele>200</ele>
        <time>2016-05-03T14:41:14Z</time>
      </trkpt>
      <trkpt lat="45.21056" lon="0.4981">
        <ele>200</ele>
        <time>2016-05-03T14:41:19Z</time>
      </trkpt>
      <trkpt lat="45.21062" lon="0.49813">
        <ele>199</ele>
        <time>2016-05-03T14:41:23Z</time>
      </trkpt>
      <trkpt lat="45.21068" lon="0.49817">
        <ele>199</ele>
        <time>2016-05-03T14:41:27Z</time>
      </trkpt>
      <trkpt lat="45.21074" lon="0.4982">
        <ele>198</ele>
        <time>2016-05-03T14:41:32Z</time>
      </trkpt>
      <trkpt lat="45.21081" lon="0.49826">
        <ele>198</ele>
        <time>2016-05-03T14:41:37Z</time>
      </trkpt>
      <trkpt lat="45.21085" lon="0.4983">
        <ele>200</ele>
        <time>2016-05-03T14:41:41Z</time>
      </trkpt>
      <trkpt lat="45.21091" lon="0.49837">
        <ele>203</ele>
        <time>2016-05-03T14:41:46Z</time>
      </trkpt>
      <trkpt lat="45.21096" lon="0.49843">
        <ele>206</ele>
        <time>2016-05-03T14:41:51Z</time>
      </trkpt>
      <trkpt lat="45.21101" lon="0.49848">
        <ele>208</ele>
        <time>2016-05-03T14:41:55Z</time>
      </trkpt>
      <trkpt lat="45.21105" lon="0.49852">
        <ele>209</ele>
        <time>2016-05-03T14:41:59Z</time>
      </trkpt>
      <trkpt lat="45.21112" lon="0.49858">
        <ele>210</ele>
        <time>2016-05-03T14:42:04Z</time>
      </trkpt>
      <trkpt lat="45.21117" lon="0.49863">
        <ele>213</ele>
        <time>2016-05-03T14:42:08Z</time>
      </trkpt>
      <trkpt lat="45.2112" lon="0.49865">
        <ele>215</ele>
        <time>2016-05-03T14:42:12Z</time>
      </trkpt>
      <trkpt lat="45.21127" lon="0.49868">
        <ele>216</ele>
        <time>2016-05-03T14:42:16Z</time>
      </trkpt>
      <trkpt lat="45.21133" lon="0.4987">
        <ele>215</ele>
        <time>2016-05-03T14:42:20Z</time>
      </trkpt>
      <trkpt lat="45.21139" lon="0.49871">
        <ele>215</ele>
        <time>2016-05-03T14:42:25Z</time>
      </trkpt>
      <trkpt lat="45.21143" lon="0.4988">
        <ele>217</ele>
        <time>2016-05-03T14:42:30Z</time>
      </trkpt>
      <trkpt lat="45.21149" lon="0.49884">
        <ele>218</ele>
        <time>2016-05-03T14:42:34Z</time>
      </trkpt>
      <trkpt lat="45.21155" lon="0.49887">
        <ele>217</ele>
        <time>2016-05-03T14:42:39Z</time>
      </trkpt>
      <trkpt lat="45.21161" lon="0.4989">
        <ele>217</ele>
        <time>2016-05-03T14:42:43Z</time>
      </trkpt>
      <trkpt lat="45.21165" lon="0.49892">
        <ele>218</ele>
        <time>2016-05-03T14:42:48Z</time>
      </trkpt>
      <trkpt lat="45.21174" lon="0.49897">
        <ele>216</ele>
        <time>2016-05-03T14:42:52Z</time>
      </trkpt>
      <trkpt lat="45.21188" lon="0.49906">
        <ele>211</ele>
        <time>2016-05-03T14:42:56Z</time>
      </trkpt>
      <trkpt lat="45.21196" lon="0.4991">
        <ele>209</ele>
        <time>2016-05-03T14:43:01Z</time>
      </trkpt>
      <trkpt lat="45.21202" lon="0.49912">
        <ele>206</ele>
        <time>2016-05-03T14:43:05Z</time>
      </trkpt>
      <trkpt lat="45.21209" lon="0.49916">
        <ele>206</ele>
        <time>2016-05-03T14:43:09Z</time>
      </trkpt>
      <trkpt lat="45.21214" lon="0.49919">
        <ele>206</ele>
        <time>2016-05-03T14:43:13Z</time>
      </trkpt>
      <trkpt lat="45.21218" lon="0.49922">
        <ele>206</ele>
        <time>2016-05-03T14:43:17Z</time>
      </trkpt>
      <trkpt lat="45.21223" lon="0.49926">
        <ele>205</ele>
        <time>2016-05-03T14:43:21Z</time>
      </trkpt>
      <trkpt lat="45.21227" lon="0.49933">
        <ele>209</ele>
        <time>2016-05-03T14:43:26Z</time>
      </trkpt>
      <trkpt lat="45.21231" lon="0.49935">
        <ele>209</ele>
        <time>2016-05-03T14:43:30Z</time>
      </trkpt>
      <trkpt lat="45.21237" lon="0.49939">
        <ele>209</ele>
        <time>2016-05-03T14:43:35Z</time>
      </trkpt>
      <trkpt lat="45.21244" lon="0.49945">
        <ele>208</ele>
        <time>2016-05-03T14:43:39Z</time>
      </trkpt>
      <trkpt lat="45.21251" lon="0.4995">
        <ele>211</ele>
        <time>2016-05-03T14:43:43Z</time>
      </trkpt>
      <trkpt lat="45.21255" lon="0.49954">
        <ele>213</ele>
        <time>2016-05-03T14:43:47Z</time>
      </trkpt>
      <trkpt lat="45.21259" lon="0.49959">
        <ele>214</ele>
        <time>2016-05-03T14:43:52Z</time>
      </trkpt>
      <trkpt lat="45.21264" lon="0.49961">
        <ele>214</ele>
        <time>2016-05-03T14:43:56Z</time>
      </trkpt>
      <trkpt lat="45.21268" lon="0.49965">
        <ele>216</ele>
        <time>2016-05-03T14:44:00Z</time>
      </trkpt>
      <trkpt lat="45.21276" lon="0.49971">
        <ele>219</ele>
        <time>2016-05-03T14:44:05Z</time>
      </trkpt>
      <trkpt lat="45.21282" lon="0.49973">
        <ele>219</ele>
        <time>2016-05-03T14:44:09Z</time>
      </trkpt>
      <trkpt lat="45.21291" lon="0.49975">
        <ele>218</ele>
        <time>2016-05-03T14:44:14Z</time>
      </trkpt>
      <trkpt lat="45.21297" lon="0.49978">
        <ele>218</ele>
        <time>2016-05-03T14:44:18Z</time>
      </trkpt>
      <trkpt lat="45.21302" lon="0.49982">
        <ele>219</ele>
        <time>2016-05-03T14:44:23Z</time>
      </trkpt>
      <trkpt lat="45.21311" lon="0.49987">
        <ele>219</ele>
        <time>2016-05-03T14:44:28Z</time>
      </trkpt>
      <trkpt lat="45.21314" lon="0.49991">
        <ele>222</ele>
        <time>2016-05-03T14:44:33Z</time>
      </trkpt>
      <trkpt lat="45.21325" lon="0.49993">
        <ele>220</ele>
        <time>2016-05-03T14:44:38Z</time>
      </trkpt>
      <trkpt lat="45.21331" lon="0.49996">
        <ele>221</ele>
        <time>2016-05-03T14:44:42Z</time>
      </trkpt>
      <trkpt lat="45.21336" lon="0.49999">
        <ele>222</ele>
        <time>2016-05-03T14:44:46Z</time>
      </trkpt>
      <trkpt lat="45.21344" lon="0.49998">
        <ele>221</ele>
        <time>2016-05-03T14:44:51Z</time>
      </trkpt>
      <trkpt lat="45.2135" lon="0.5">
        <ele>219</ele>
        <time>2016-05-03T14:44:55Z</time>
      </trkpt>
      <trkpt lat="45.21357" lon="0.50006">
        <ele>221</ele>
        <time>2016-05-03T14:45:00Z</time>
      </trkpt>
      <trkpt lat="45.21361" lon="0.50009">
        <ele>222</ele>
        <time>2016-05-03T14:45:04Z</time>
      </trkpt>
      <trkpt lat="45.21368" lon="0.50008">
        <ele>219</ele>
        <time>2016-05-03T14:45:08Z</time>
      </trkpt>
      <trkpt lat="45.21375" lon="0.5001">
        <ele>219</ele>
        <time>2016-05-03T14:45:13Z</time>
      </trkpt>
      <trkpt lat="45.21381" lon="0.50013">
        <ele>219</ele>
        <time>2016-05-03T14:45:17Z</time>
      </trkpt>
      <trkpt lat="45.21386" lon="0.50018">
        <ele>221</ele>
        <time>2016-05-03T14:45:21Z</time>
      </trkpt>
      <trkpt lat="45.21395" lon="0.5002">
        <ele>219</ele>
        <time>2016-05-03T14:45:26Z</time>
      </trkpt>
      <trkpt lat="45.214" lon="0.50022">
        <ele>223</ele>
        <time>2016-05-03T14:45:30Z</time>
      </trkpt>
      <trkpt lat="45.21406" lon="0.50026">
        <ele>223</ele>
        <time>2016-05-03T14:45:34Z</time>
      </trkpt>
      <trkpt lat="45.2141" lon="0.50028">
        <ele>224</ele>
        <time>2016-05-03T14:45:38Z</time>
      </trkpt>
      <trkpt lat="45.21418" lon="0.50031">
        <ele>224</ele>
        <time>2016-05-03T14:45:42Z</time>
      </trkpt>
      <trkpt lat="45.21425" lon="0.50033">
        <ele>224</ele>
        <time>2016-05-03T14:45:46Z</time>
      </trkpt>
      <trkpt lat="45.21432" lon="0.50037">
        <ele>224</ele>
        <time>2016-05-03T14:45:50Z</time>
      </trkpt>
      <trkpt lat="45.21438" lon="0.50041">
        <ele>225</ele>
        <time>2016-05-03T14:45:55Z</time>
      </trkpt>
      <trkpt lat="45.21444" lon="0.50042">
        <ele>226</ele>
        <time>2016-05-03T14:45:59Z</time>
      </trkpt>
      <trkpt lat="45.21453" lon="0.50044">
        <ele>224</ele>
        <time>2016-05-03T14:46:04Z</time>
      </trkpt>
      <trkpt lat="45.21458" lon="0.50046">
        <ele>225</ele>
        <time>2016-05-03T14:46:08Z</time>
      </trkpt>
      <trkpt lat="45.21464" lon="0.50049">
        <ele>224</ele>
        <time>2016-05-03T14:46:13Z</time>
      </trkpt>
      <trkpt lat="45.21468" lon="0.50051">
        <ele>225</ele>
        <time>2016-05-03T14:46:18Z</time>
      </trkpt>
      <trkpt lat="45.21474" lon="0.5005">
        <ele>226</ele>
        <time>2016-05-03T14:46:22Z</time>
      </trkpt>
      <trkpt lat="45.2148" lon="0.50051">
        <ele>225</ele>
        <time>2016-05-03T14:46:26Z</time>
      </trkpt>
      <trkpt lat="45.21485" lon="0.50055">
        <ele>226</ele>
        <time>2016-05-03T14:46:31Z</time>
      </trkpt>
      <trkpt lat="45.21489" lon="0.50058">
        <ele>225</ele>
        <time>2016-05-03T14:46:36Z</time>
      </trkpt>
      <trkpt lat="45.21491" lon="0.50064">
        <ele>227</ele>
        <time>2016-05-03T14:46:40Z</time>
      </trkpt>
      <trkpt lat="45.215" lon="0.50075">
        <ele>222</ele>
        <time>2016-05-03T14:46:45Z</time>
      </trkpt>
      <trkpt lat="45.21506" lon="0.50082">
        <ele>223</ele>
        <time>2016-05-03T14:46:49Z</time>
      </trkpt>
      <trkpt lat="45.21511" lon="0.5009">
        <ele>220</ele>
        <time>2016-05-03T14:46:53Z</time>
      </trkpt>
      <trkpt lat="45.21517" lon="0.50096">
        <ele>219</ele>
        <time>2016-05-03T14:46:57Z</time>
      </trkpt>
      <trkpt lat="45.21521" lon="0.50102">
        <ele>223</ele>
        <time>2016-05-03T14:47:01Z</time>
      </trkpt>
      <trkpt lat="45.21525" lon="0.50108">
        <ele>226</ele>
        <time>2016-05-03T14:47:06Z</time>
      </trkpt>
      <trkpt lat="45.21528" lon="0.50115">
        <ele>226</ele>
        <time>2016-05-03T14:47:10Z</time>
      </trkpt>
      <trkpt lat="45.21533" lon="0.50126">
        <ele>226</ele>
        <time>2016-05-03T14:47:15Z</time>
      </trkpt>
      <trkpt lat="45.21536" lon="0.50135">
        <ele>227</ele>
        <time>2016-05-03T14:47:20Z</time>
      </trkpt>
      <trkpt lat="45.2154" lon="0.50145">
        <ele>224</ele>
        <time>2016-05-03T14:47:24Z</time>
      </trkpt>
      <trkpt lat="45.21544" lon="0.50151">
        <ele>227</ele>
        <time>2016-05-03T14:47:29Z</time>
      </trkpt>
      <trkpt lat="45.21548" lon="0.50159">
        <ele>228</ele>
        <time>2016-05-03T14:47:33Z</time>
      </trkpt>
      <trkpt lat="45.21552" lon="0.50166">
        <ele>229</ele>
        <time>2016-05-03T14:47:37Z</time>
      </trkpt>
      <trkpt lat="45.21555" lon="0.50173">
        <ele>230</ele>
        <time>2016-05-03T14:47:41Z</time>
      </trkpt>
      <trkpt lat="45.21559" lon="0.50186">
        <ele>226</ele>
        <time>2016-05-03T14:47:46Z</time>
      </trkpt>
      <trkpt lat="45.21563" lon="0.50193">
        <ele>226</ele>
        <time>2016-05-03T14:47:50Z</time>
      </trkpt>
      <trkpt lat="45.21569" lon="0.50202">
        <ele>225</ele>
        <time>2016-05-03T14:47:55Z</time>
      </trkpt>
      <trkpt lat="45.21575" lon="0.50211">
        <ele>226</ele>
        <time>2016-05-03T14:47:59Z</time>
      </trkpt>
      <trkpt lat="45.21579" lon="0.5022">
        <ele>227</ele>
        <time>2016-05-03T14:48:04Z</time>
      </trkpt>
      <trkpt lat="45.21582" lon="0.50228">
        <ele>227</ele>
        <time>2016-05-03T14:48:09Z</time>
      </trkpt>
      <trkpt lat="45.21585" lon="0.50235">
        <ele>228</ele>
        <time>2016-05-03T14:48:13Z</time>
      </trkpt>
      <trkpt lat="45.21587" lon="0.50243">
        <ele>228</ele>
        <time>2016-05-03T14:48:17Z</time>
      </trkpt>
      <trkpt lat="45.21591" lon="0.50253">
        <ele>228</ele>
        <time>2016-05-03T14:48:22Z</time>
      </trkpt>
      <trkpt lat="45.21596" lon="0.50261">
        <ele>228</ele>
        <time>2016-05-03T14:48:26Z</time>
      </trkpt>
      <trkpt lat="45.216" lon="0.50269">
        <ele>228</ele>
        <time>2016-05-03T14:48:30Z</time>
      </trkpt>
      <trkpt lat="45.21603" lon="0.50276">
        <ele>229</ele>
        <time>2016-05-03T14:48:34Z</time>
      </trkpt>
      <trkpt lat="45.21606" lon="0.50283">
        <ele>231</ele>
        <time>2016-05-03T14:48:39Z</time>
      </trkpt>
      <trkpt lat="45.2161" lon="0.50287">
        <ele>236</ele>
        <time>2016-05-03T14:48:43Z</time>
      </trkpt>
      <trkpt lat="45.21609" lon="0.50292">
        <ele>233</ele>
        <time>2016-05-03T14:48:47Z</time>
      </trkpt>
      <trkpt lat="45.21613" lon="0.503">
        <ele>232</ele>
        <time>2016-05-03T14:48:52Z</time>
      </trkpt>
      <trkpt lat="45.21617" lon="0.50305">
        <ele>235</ele>
        <time>2016-05-03T14:48:56Z</time>
      </trkpt>
      <trkpt lat="45.21619" lon="0.50311">
        <ele>233</ele>
        <time>2016-05-03T14:49:00Z</time>
      </trkpt>
      <trkpt lat="45.21633" lon="0.50321">
        <ele>228</ele>
        <time>2016-05-03T14:49:05Z</time>
      </trkpt>
      <trkpt lat="45.21639" lon="0.50327">
        <ele>227</ele>
        <time>2016-05-03T14:49:09Z</time>
      </trkpt>
      <trkpt lat="45.2164" lon="0.50332">
        <ele>227</ele>
        <time>2016-05-03T14:49:13Z</time>
      </trkpt>
      <trkpt lat="45.21648" lon="0.50339">
        <ele>228</ele>
        <time>2016-05-03T14:49:18Z</time>
      </trkpt>
      <trkpt lat="45.21656" lon="0.50347">
        <ele>229</ele>
        <time>2016-05-03T14:49:23Z</time>
      </trkpt>
      <trkpt lat="45.21664" lon="0.50354">
        <ele>230</ele>
        <time>2016-05-03T14:49:28Z</time>
      </trkpt>
      <trkpt lat="45.2167" lon="0.50358">
        <ele>231</ele>
        <time>2016-05-03T14:49:32Z</time>
      </trkpt>
      <trkpt lat="45.2168" lon="0.50364">
        <ele>232</ele>
        <time>2016-05-03T14:49:37Z</time>
      </trkpt>
      <trkpt lat="45.21687" lon="0.50367">
        <ele>231</ele>
        <time>2016-05-03T14:49:42Z</time>
      </trkpt>
      <trkpt lat="45.21693" lon="0.5037">
        <ele>230</ele>
        <time>2016-05-03T14:49:46Z</time>
      </trkpt>
      <trkpt lat="45.21703" lon="0.50374">
        <ele>228</ele>
        <time>2016-05-03T14:49:51Z</time>
      </trkpt>
      <trkpt lat="45.21708" lon="0.50378">
        <ele>229</ele>
        <time>2016-05-03T14:49:55Z</time>
      </trkpt>
      <trkpt lat="45.21713" lon="0.50379">
        <ele>229</ele>
        <time>2016-05-03T14:49:59Z</time>
      </trkpt>
      <trkpt lat="45.21718" lon="0.50382">
        <ele>229</ele>
        <time>2016-05-03T14:50:03Z</time>
      </trkpt>
      <trkpt lat="45.21731" lon="0.50384">
        <ele>225</ele>
        <time>2016-05-03T14:50:07Z</time>
      </trkpt>
      <trkpt lat="45.21739" lon="0.50386">
        <ele>225</ele>
        <time>2016-05-03T14:50:12Z</time>
      </trkpt>
      <trkpt lat="45.21744" lon="0.50389">
        <ele>226</ele>
        <time>2016-05-03T14:50:16Z</time>
      </trkpt>
      <trkpt lat="45.21749" lon="0.5039">
        <ele>226</ele>
        <time>2016-05-03T14:50:20Z</time>
      </trkpt>
      <trkpt lat="45.21756" lon="0.50391">
        <ele>226</ele>
        <time>2016-05-03T14:50:25Z</time>
      </trkpt>
      <trkpt lat="45.21762" lon="0.50392">
        <ele>226</ele>
        <time>2016-05-03T14:50:30Z</time>
      </trkpt>
      <trkpt lat="45.21767" lon="0.50396">
        <ele>227</ele>
        <time>2016-05-03T14:50:35Z</time>
      </trkpt>
      <trkpt lat="45.21774" lon="0.50399">
        <ele>227</ele>
        <time>2016-05-03T14:50:39Z</time>
      </trkpt>
      <trkpt lat="45.21779" lon="0.504">
        <ele>227</ele>
        <time>2016-05-03T14:50:43Z</time>
      </trkpt>
      <trkpt lat="45.21783" lon="0.50402">
        <ele>227</ele>
        <time>2016-05-03T14:50:48Z</time>
      </trkpt>
      <trkpt lat="45.21789" lon="0.50408">
        <ele>228</ele>
        <time>2016-05-03T14:50:52Z</time>
      </trkpt>
      <trkpt lat="45.21795" lon="0.50412">
        <ele>228</ele>
        <time>2016-05-03T14:50:57Z</time>
      </trkpt>
      <trkpt lat="45.21798" lon="0.50408">
        <ele>224</ele>
        <time>2016-05-03T14:51:04Z</time>
      </trkpt>
      <trkpt lat="45.218" lon="0.50406">
        <ele>223</ele>
        <time>2016-05-03T14:51:08Z</time>
      </trkpt>
      <trkpt lat="45.218" lon="0.50406">
        <ele>223</ele>
        <time>2016-05-03T14:51:09Z</time>
      </trkpt>
    </trkseg>
  </trk>
</gpx>